[[{"header":{"parameterUnit":"m.s-1","parameterCategory":1,"la1":31.0,"la2":29.5877,"lo1":-88.7671,"lo2":-86.6584,"dy":0.0162,"dx":0.0185,"nx":115,"ny":88,"refTime":"2023-07-28T06:00:00:Z","depth":0,"parameterNumber":2,"parameterNumberName":"U-component_of_WINDS"},"data":[0.0,0.0,0.0,0.0,0.0,0.0,0.0,0.0,0.0,0.0,0.0,0.0,0.0,0.0,0.0,0.0,0.0,0.0,0.0,0.0,0.0,0.0,0.0,0.0,0.0,0.0,0.0,0.0,0.0,0.0,0.0,0.0,0.0,0.0,0.0,0.0,0.0,0.0,0.0,0.0,0.0,0.0,0.0,0.0,0.0,0.0,0.0,0.0,0.0,0.0,0.0,0.0,0.0,0.0,0.0,0.0,0.0,0.0,0.0,0.0,0.0,0.0,0.0,0.0,0.0,0.0,0.0,0.0,0.0,0.0,0.0,0.0,0.0,0.0,0.0,0.0,0.0,0.0,0.0,0.0,0.0,0.0,0.0,0.0,0.0,0.0,0.0,0.0,0.0,0.0,0.0,0.0,0.0,0.0,0.0,0.0,0.0,0.0,0.0,0.0,0.0,0.0,0.0,0.0,0.0,0.0,0.0,0.0,0.0,0.0,0.0,0.0,0.0,0.0,0.0,0.0,0.0,0.0,0.0,0.0,0.0,0.0,0.0,0.0,0.0,0.0,0.0,0.0,0.0,0.0,0.0,0.0,0.0,0.0,0.0,0.0,0.0,0.0,0.0,0.0,0.0,0.0,0.0,0.0,0.0,0.0,0.0,0.0,0.0,0.0,0.0,0.0,0.0,0.0,0.0,0.0,0.0,0.0,0.0,0.0,0.0,0.0,0.0,0.0,0.0,0.0,0.0,0.0,0.0,0.0,0.0,0.0,0.0,0.0,0.0,0.0,0.0,0.0,0.0,0.0,0.0,0.0,0.0,0.0,0.0,0.0,0.0,0.0,0.0,0.0,0.0,0.0,0.0,0.0,0.0,0.0,0.0,0.0,0.0,0.0,0.0,0.0,0.0,0.0,0.0,0.0,0.0,0.0,0.0,0.0,0.0,0.0,0.0,0.0,0.0,0.0,0.0,0.0,0.0,0.0,0.0,0.0,0.0,0.0,0.0,0.0,0.0,0.0,0.0,0.0,0.0,0.0,0.0,0.0,0.0,0.0,0.0,0.0,0.0,0.0,0.0,0.0,0.0,0.0,0.0,0.0,0.0,0.0,0.0,0.0,0.0,0.0,0.0,0.0,0.0,0.0,0.0,0.0,0.0,0.0,0.0,0.0,0.0,0.0,0.0,0.0,0.0,0.0,0.0,0.0,0.0,0.0,0.0,0.0,0.0,0.0,0.0,0.0,0.0,0.0,0.0,0.0,0.0,0.0,0.0,0.0,0.0,0.0,0.0,0.0,0.0,0.0,0.0,0.0,0.0,0.0,0.0,0.0,0.0,0.0,0.0,0.0,0.0,0.0,0.0,0.0,0.0,0.0,0.0,0.0,0.0,0.0,0.0,0.0,0.0,0.0,0.0,0.0,0.0,0.0,0.0,0.0,0.0,0.0,0.0,0.0,0.0,0.0,0.0,0.0,0.0,0.0,0.0,0.0,0.0,0.0,0.0,0.0,0.0,0.0,0.0,0.0,0.0,0.0,0.0,0.0,0.0,0.0,0.0,0.0,0.0,0.0,0.0,0.0,0.0,0.0,0.0,0.0,0.0,0.0,0.0,0.0,0.0,0.0,0.0,0.0,0.0,0.0,0.0,0.0,0.0,0.0,0.0,0.0,0.0,0.0,0.0,0.0,0.0,0.0,0.0,0.0,0.0,0.0,0.0,0.0,0.0,0.0,0.0,0.0,0.0,0.0,0.0,0.0,0.0,0.0,0.0,0.0,0.0,0.0,0.0,0.0,0.0,0.0,0.0,0.0,0.0,0.0,0.0,0.0,0.0,0.0,0.0,0.0,0.0,0.0,0.0,0.0,0.0,0.0,0.0,0.0,0.0,0.0,0.0,0.0,0.0,0.0,0.0,0.0,0.0,0.0,0.0,0.0,0.0,0.0,0.0,0.0,0.0,0.0,0.0,0.0,0.0,0.0,0.0,0.0,0.0,0.0,0.0,0.0,0.0,0.0,0.0,0.0,0.0,0.0,0.0,0.0,0.0,0.0,0.0,0.0,0.0,0.0,0.0,0.0,0.0,0.0,0.0,0.0,0.0,0.0,0.0,0.0,0.0,0.0,0.0,0.0,0.0,0.0,0.0,0.0,0.0,0.0,0.0,0.0,0.0,0.0,0.0,0.0,0.0,0.0,0.0,0.0,0.0,0.0,0.0,0.0,0.0,0.0,0.0,0.0,0.0,0.0,0.0,0.0,0.0,0.0,0.0,0.0,0.0,0.0,0.0,0.0,0.0,0.0,0.0,0.0,0.0,0.0,0.0,0.0,0.0,0.0,0.0,0.0,0.0,0.0,0.0,0.0,0.0,0.0,0.0,0.0,0.0,0.0,0.0,0.0,0.0,0.0,0.0,0.0,0.0,0.0,0.0,0.0,0.0,0.0,0.0,0.0,0.0,0.0,0.0,0.0,0.0,0.0,0.0,0.0,0.0,0.0,0.0,0.0,0.0,0.0,0.0,0.0,0.0,0.0,0.0,0.0,0.0,0.0,0.0,0.0,0.0,0.0,0.0,0.0,0.0,0.0,0.0,0.0,0.0,0.0,0.0,0.0,0.0,0.0,0.0,0.0,0.0,0.0,0.0,0.0,0.0,0.0,0.0,0.0,0.0,0.0,0.0,0.0,0.0,0.0,0.0,0.0,0.0,0.0,0.0,0.0,0.0,0.0,0.0,0.0,0.0,0.0,0.0,0.0,0.0,0.0,0.0,0.0,0.0,0.0,0.0,0.0,0.0,0.0,0.0,0.0,0.0,0.0,0.0,0.0,0.0,0.0,0.0,0.0,0.0,0.0,0.0,0.0,0.0,0.0,0.0,0.0,0.0,0.0,0.0,0.0,0.0,0.0,0.0,0.0,0.0,0.0,0.0,0.0,0.0,0.0,0.0,0.0,0.0,0.0,0.0,0.0,0.0,0.0,0.0,0.0,0.0,0.0,0.0,0.0,0.0,0.0,0.0,0.0,0.0,0.0,0.0,0.0,0.0,0.0,0.0,0.0,0.0,0.0,0.0,0.0,0.0,0.0,0.0,0.0,0.0,0.0,0.0,0.0,0.0,0.0,0.0,0.0,0.0,0.0,0.0,0.0,0.0,0.0,0.0,0.0,0.0,0.0,0.0,0.0,0.0,0.0,0.0,0.0,0.0,0.0,0.0,0.0,0.0,0.0,0.0,0.0,0.0,0.0,0.0,0.0,0.0,0.0,0.0,0.0,0.0,0.0,0.0,0.0,0.0,0.0,0.0,0.0,0.0,0.0,0.0,0.0,0.0,0.0,0.0,0.0,0.0,0.0,0.0,0.0,0.0,0.0,0.0,0.0,0.0,0.0,0.0,0.0,0.0,0.0,0.0,0.0,0.0,0.0,0.0,0.0,0.0,0.0,0.0,0.0,0.0,0.0,0.0,0.0,0.0,0.0,0.0,0.0,0.0,0.0,0.0,0.0,0.0,0.0,0.0,0.0,0.0,0.0,0.0,0.0,0.0,0.0,0.0,0.0,0.0,0.0,0.0,0.0,0.0,0.0,0.0,0.0,0.0,0.0,0.0,0.0,0.0,0.0,0.0,0.0,0.0,0.0,0.0,0.0,0.0,0.0,0.0,0.0,0.0,0.0,0.0,0.0,0.0,0.0,0.0,0.0,0.0,0.0,0.0,0.0,0.0,0.0,0.0,0.0,0.0,0.0,0.0,0.0,0.0,0.0,0.0,0.0,0.0,0.0,0.0,0.0,0.0,0.0,0.0,0.0,0.0,0.0,0.0,0.0,0.0,0.0,0.0,0.0,0.0,0.0,0.0,0.0,0.0,0.0,0.0,0.0,0.0,0.0,0.0,0.0,0.0,0.0,0.0,0.0,0.0,0.0,0.0,0.0,0.0,0.0,0.0,0.0,0.0,0.0,0.0,0.0,0.0,0.0,0.0,0.0,0.0,0.0,0.0,0.0,0.0,0.0,0.0,0.0,0.0,0.0,0.0,0.0,0.0,0.0,0.0,0.0,0.0,0.0,0.0,0.0,0.0,0.0,0.0,0.0,0.0,0.0,0.0,0.0,0.0,0.0,0.0,0.0,0.0,0.0,0.0,0.0,0.0,0.0,0.0,0.0,0.0,0.0,0.0,0.0,0.0,0.0,0.0,0.0,0.0,0.0,0.0,0.0,0.0,0.0,0.0,0.0,0.0,0.0,0.0,0.0,0.0,0.0,0.0,0.0,0.0,0.0,0.0,0.0,0.0,0.0,0.0,0.0,-2.1426,0.0,0.0,0.0,0.0,0.0,0.0,0.0,0.0,0.0,0.0,0.0,0.0,0.0,0.0,0.0,0.0,0.0,0.0,0.0,0.0,0.0,0.0,0.0,0.0,0.0,0.0,0.0,0.0,0.0,0.0,0.0,0.0,0.0,0.0,0.0,0.0,0.0,0.0,0.0,0.0,0.0,0.0,0.0,0.0,0.0,0.0,0.0,0.0,0.0,0.0,0.0,0.0,0.0,0.0,0.0,0.0,0.0,0.0,0.0,0.0,0.0,0.0,0.0,0.0,0.0,0.0,0.0,0.0,0.0,0.0,0.0,0.0,0.0,0.0,0.0,0.0,0.0,0.0,0.0,0.0,0.0,0.0,0.0,0.0,0.0,0.0,0.0,0.0,0.0,0.0,0.0,0.0,0.0,0.0,0.0,0.0,0.0,0.0,0.0,0.0,0.0,0.0,0.0,0.0,0.0,0.0,0.0,0.0,0.0,0.0,-2.2819,-2.2855,-2.271,-2.2708,-2.2795,0.0,0.0,0.0,0.0,0.0,0.0,0.0,0.0,0.0,0.0,0.0,0.0,0.0,0.0,0.0,0.0,0.0,0.0,0.0,0.0,0.0,0.0,0.0,0.0,0.0,0.0,0.0,0.0,0.0,0.0,0.0,0.0,0.0,0.0,0.0,0.0,0.0,0.0,0.0,0.0,0.0,0.0,0.0,0.0,0.0,0.0,0.0,0.0,0.0,0.0,0.0,0.0,0.0,0.0,0.0,0.0,0.0,0.0,0.0,0.0,0.0,0.0,0.0,0.0,0.0,0.0,0.0,0.0,0.0,0.0,0.0,0.0,0.0,0.0,0.0,0.0,0.0,0.0,0.0,0.0,0.0,0.0,0.0,0.0,0.0,0.0,0.0,0.0,0.0,0.0,0.0,0.0,0.0,0.0,0.0,0.0,0.0,0.0,0.0,0.0,0.0,0.0,0.0,0.0,0.0,0.0,0.0,0.0,0.0,0.0,0.0,0.0,-2.3314,-2.3452,-2.3839,0.0,0.0,0.0,0.0,0.0,0.0,0.0,0.0,0.0,0.0,0.0,0.0,0.0,0.0,0.0,0.0,0.0,0.0,0.0,0.0,0.0,0.0,0.0,0.0,0.0,0.0,0.0,0.0,0.0,0.0,0.0,0.0,0.0,0.0,0.0,0.0,0.0,0.0,0.0,0.0,0.0,0.0,0.0,0.0,0.0,0.0,0.0,0.0,0.0,0.0,0.0,0.0,0.0,0.0,0.0,0.0,0.0,0.0,0.0,0.0,0.0,0.0,0.0,0.0,0.0,0.0,0.0,0.0,0.0,0.0,0.0,0.0,0.0,0.0,0.0,0.0,0.0,0.0,0.0,0.0,0.0,0.0,0.0,0.0,0.0,0.0,0.0,0.0,0.0,0.0,0.0,0.0,0.0,0.0,0.0,0.0,0.0,0.0,0.0,0.0,0.0,0.0,0.0,0.0,0.0,0.0,0.0,0.0,0.0,0.0,-2.5148,-2.5091,-2.4935,0.0,-2.3616,0.0,0.0,0.0,0.0,0.0,0.0,0.0,0.0,0.0,0.0,0.0,0.0,0.0,0.0,0.0,0.0,0.0,0.0,0.0,0.0,0.0,0.0,0.0,0.0,0.0,0.0,0.0,0.0,0.0,0.0,0.0,0.0,0.0,0.0,0.0,0.0,0.0,0.0,0.0,0.0,0.0,0.0,0.0,0.0,0.0,0.0,0.0,0.0,0.0,0.0,0.0,0.0,0.0,0.0,0.0,0.0,0.0,0.0,0.0,0.0,0.0,0.0,0.0,0.0,0.0,0.0,0.0,0.0,0.0,0.0,0.0,0.0,0.0,0.0,0.0,0.0,0.0,0.0,0.0,0.0,0.0,0.0,0.0,0.0,0.0,0.0,0.0,0.0,0.0,0.0,0.0,0.0,0.0,0.0,0.0,0.0,0.0,0.0,0.0,0.0,0.0,0.0,0.0,0.0,0.0,0.0,0.0,0.0,0.0,0.0,-2.536,-2.5293,-2.5164,-2.4594,0.0,0.0,0.0,0.0,0.0,0.0,0.0,0.0,0.0,0.0,0.0,0.0,0.0,0.0,0.0,0.0,0.0,0.0,0.0,0.0,0.0,0.0,0.0,0.0,0.0,0.0,0.0,0.0,0.0,0.0,0.0,0.0,0.0,0.0,0.0,0.0,0.0,0.0,0.0,0.0,0.0,0.0,0.0,0.0,0.0,0.0,0.0,0.0,0.0,0.0,0.0,0.0,0.0,0.0,0.0,0.0,0.0,0.0,0.0,0.0,0.0,0.0,0.0,0.0,0.0,0.0,0.0,0.0,0.0,0.0,0.0,0.0,0.0,0.0,0.0,0.0,0.0,0.0,0.0,0.0,0.0,0.0,0.0,0.0,0.0,0.0,0.0,0.0,0.0,0.0,0.0,0.0,0.0,0.0,0.0,0.0,0.0,0.0,0.0,0.0,0.0,0.0,0.0,0.0,0.0,0.0,0.0,0.0,0.0,0.0,-2.5965,-2.6034,-2.5924,-2.56,-2.5037,-2.4222,0.0,0.0,0.0,0.0,0.0,0.0,0.0,0.0,0.0,0.0,0.0,0.0,0.0,0.0,0.0,0.0,0.0,0.0,0.0,0.0,0.0,0.0,0.0,0.0,0.0,0.0,0.0,0.0,0.0,0.0,0.0,0.0,0.0,0.0,0.0,0.0,0.0,0.0,0.0,0.0,0.0,0.0,0.0,0.0,0.0,0.0,0.0,0.0,0.0,0.0,0.0,0.0,0.0,0.0,0.0,0.0,0.0,0.0,0.0,0.0,0.0,0.0,0.0,0.0,0.0,0.0,0.0,0.0,0.0,0.0,0.0,0.0,0.0,0.0,0.0,0.0,0.0,0.0,0.0,0.0,0.0,0.0,0.0,0.0,0.0,0.0,0.0,0.0,0.0,0.0,0.0,0.0,0.0,0.0,0.0,0.0,0.0,0.0,0.0,0.0,0.0,0.0,0.0,0.0,0.0,0.0,0.0,0.0,-2.666,-2.7383,-2.7684,-2.7446,-2.6708,-2.6148,0.0,0.0,0.0,0.0,0.0,0.0,0.0,0.0,0.0,0.0,0.0,0.0,0.0,0.0,0.0,0.0,0.0,0.0,0.0,0.0,0.0,0.0,0.0,0.0,0.0,0.0,0.0,0.0,0.0,0.0,0.0,0.0,0.0,0.0,0.0,0.0,0.0,0.0,0.0,0.0,0.0,0.0,0.0,0.0,0.0,0.0,0.0,0.0,0.0,0.0,0.0,0.0,0.0,0.0,0.0,0.0,0.0,0.0,0.0,0.0,0.0,0.0,0.0,0.0,0.0,0.0,0.0,0.0,0.0,0.0,0.0,0.0,0.0,0.0,0.0,0.0,0.0,0.0,0.0,0.0,0.0,0.0,0.0,0.0,0.0,0.0,0.0,0.0,0.0,0.0,0.0,0.0,0.0,0.0,0.0,0.0,0.0,0.0,0.0,0.0,0.0,0.0,0.0,0.0,0.0,0.0,0.0,0.0,0.0,-2.7527,-2.7729,-2.7777,-2.7669,-2.7312,-2.6778,0.0,0.0,0.0,0.0,0.0,0.0,0.0,0.0,0.0,0.0,0.0,0.0,0.0,0.0,0.0,0.0,0.0,0.0,0.0,0.0,0.0,0.0,0.0,0.0,0.0,0.0,0.0,0.0,0.0,0.0,0.0,0.0,0.0,0.0,0.0,0.0,0.0,0.0,0.0,0.0,0.0,0.0,0.0,0.0,0.0,0.0,0.0,0.0,0.0,0.0,0.0,0.0,0.0,0.0,0.0,0.0,0.0,0.0,0.0,0.0,0.0,0.0,0.0,0.0,0.0,0.0,0.0,0.0,0.0,0.0,0.0,0.0,0.0,0.0,0.0,0.0,0.0,0.0,0.0,0.0,0.0,0.0,0.0,0.0,0.0,0.0,0.0,0.0,0.0,0.0,0.0,0.0,0.0,0.0,0.0,0.0,0.0,0.0,0.0,0.0,0.0,0.0,0.0,0.0,0.0,0.0,0.0,0.0,0.0,-2.9168,0.0,-2.9274,-2.8932,-2.8578,-2.7922,0.0,0.0,0.0,0.0,0.0,0.0,0.0,0.0,0.0,0.0,0.0,0.0,0.0,0.0,0.0,0.0,0.0,0.0,0.0,0.0,0.0,0.0,0.0,0.0,0.0,0.0,0.0,0.0,0.0,0.0,0.0,0.0,0.0,0.0,0.0,0.0,0.0,0.0,0.0,0.0,0.0,0.0,0.0,0.0,0.0,0.0,0.0,0.0,0.0,0.0,0.0,0.0,0.0,0.0,0.0,0.0,0.0,0.0,0.0,0.0,0.0,0.0,0.0,0.0,0.0,0.0,0.0,0.0,0.0,0.0,0.0,0.0,0.0,0.0,0.0,0.0,0.0,0.0,0.0,0.0,0.0,0.0,0.0,0.0,0.0,0.0,0.0,0.0,0.0,0.0,0.0,0.0,0.0,0.0,0.0,0.0,0.0,0.0,0.0,0.0,0.0,0.0,0.0,0.0,0.0,0.0,0.0,0.0,-3.0085,-3.1656,-3.2408,-3.2282,-3.1522,-3.0553,-2.9601,0.0,0.0,0.0,0.0,0.0,0.0,0.0,0.0,0.0,0.0,0.0,0.0,0.0,0.0,0.0,0.0,0.0,0.0,0.0,0.0,0.0,0.0,0.0,0.0,0.0,0.0,0.0,0.0,0.0,0.0,0.0,0.0,0.0,0.0,0.0,0.0,0.0,0.0,0.0,0.0,0.0,0.0,0.0,0.0,0.0,0.0,0.0,0.0,0.0,0.0,0.0,0.0,0.0,0.0,0.0,0.0,0.0,0.0,0.0,0.0,0.0,0.0,0.0,0.0,0.0,0.0,0.0,0.0,0.0,0.0,0.0,0.0,0.0,0.0,0.0,0.0,0.0,0.0,0.0,0.0,0.0,0.0,0.0,0.0,0.0,0.0,0.0,0.0,0.0,0.0,0.0,0.0,0.0,0.0,0.0,0.0,0.0,0.0,0.0,0.0,0.0,0.0,0.0,0.0,0.0,0.0,0.0,0.0,0.0,-3.3536,-3.3102,-3.2966,-3.3149,-3.1629,-3.0294,0.0,0.0,0.0,0.0,0.0,0.0,0.0,0.0,0.0,0.0,0.0,0.0,0.0,0.0,0.0,0.0,0.0,0.0,0.0,0.0,0.0,0.0,0.0,0.0,0.0,0.0,0.0,0.0,0.0,0.0,0.0,0.0,0.0,0.0,0.0,0.0,0.0,0.0,0.0,0.0,0.0,0.0,0.0,0.0,0.0,0.0,0.0,0.0,0.0,0.0,0.0,0.0,0.0,0.0,0.0,0.0,0.0,0.0,0.0,0.0,0.0,0.0,0.0,0.0,0.0,0.0,0.0,0.0,0.0,0.0,0.0,0.0,0.0,0.0,0.0,0.0,0.0,0.0,0.0,0.0,0.0,0.0,0.0,0.0,0.0,0.0,0.0,0.0,0.0,0.0,0.0,0.0,0.0,0.0,0.0,0.0,0.0,0.0,0.0,0.0,0.0,0.0,0.0,0.0,0.0,0.0,0.0,0.0,0.0,-3.7045,-3.6147,-3.5699,-3.5818,-3.4296,-3.2525,-3.0485,0.0,0.0,0.0,0.0,0.0,0.0,0.0,0.0,0.0,0.0,0.0,0.0,0.0,0.0,0.0,0.0,0.0,0.0,0.0,0.0,0.0,0.0,0.0,0.0,0.0,0.0,0.0,0.0,0.0,0.0,0.0,0.0,0.0,0.0,0.0,0.0,0.0,0.0,0.0,0.0,0.0,0.0,0.0,0.0,0.0,0.0,0.0,0.0,0.0,0.0,0.0,0.0,0.0,0.0,0.0,0.0,0.0,0.0,0.0,0.0,0.0,0.0,0.0,0.0,0.0,0.0,0.0,0.0,0.0,0.0,0.0,0.0,0.0,0.0,0.0,0.0,0.0,0.0,0.0,0.0,0.0,0.0,0.0,0.0,0.0,0.0,0.0,0.0,0.0,0.0,0.0,0.0,0.0,0.0,0.0,0.0,0.0,0.0,0.0,0.0,0.0,0.0,0.0,0.0,0.0,0.0,0.0,0.0,-4.1771,-4.1104,-4.0155,-3.9071,-3.8022,-3.5871,0.0,0.0,0.0,0.0,0.0,0.0,0.0,0.0,0.0,0.0,0.0,0.0,0.0,0.0,0.0,0.0,0.0,0.0,0.0,0.0,0.0,0.0,0.0,0.0,0.0,0.0,0.0,0.0,0.0,0.0,0.0,0.0,0.0,0.0,0.0,0.0,0.0,0.0,0.0,0.0,0.0,0.0,0.0,0.0,0.0,0.0,0.0,0.0,0.0,0.0,0.0,0.0,0.0,0.0,0.0,0.0,0.0,0.0,0.0,0.0,0.0,0.0,0.0,0.0,0.0,0.0,0.0,0.0,0.0,0.0,0.0,0.0,0.0,0.0,0.0,0.0,0.0,0.0,0.0,0.0,0.0,0.0,0.0,0.0,0.0,0.0,0.0,0.0,0.0,0.0,0.0,0.0,0.0,0.0,0.0,0.0,0.0,0.0,0.0,0.0,0.0,0.0,0.0,0.0,0.0,0.0,0.0,0.0,0.0,-4.3177,-4.411,-4.3516,-4.1385,-3.9176,-3.6887,0.0,0.0,0.0,0.0,0.0,0.0,0.0,0.0,0.0,0.0,0.0,0.0,0.0,0.0,0.0,0.0,0.0,0.0,0.0,0.0,0.0,0.0,0.0,0.0,0.0,0.0,0.0,0.0,0.0,0.0,0.0,0.0,0.0,0.0,0.0,0.0,0.0,0.0,0.0,0.0,0.0,0.0,0.0,0.0,0.0,0.0,0.0,0.0,0.0,0.0,0.0,0.0,0.0,0.0,0.0,0.0,0.0,0.0,0.0,0.0,0.0,0.0,0.0,0.0,0.0,0.0,0.0,0.0,0.0,0.0,0.0,0.0,0.0,0.0,0.0,0.0,0.0,0.0,0.0,0.0,0.0,0.0,0.0,0.0,0.0,0.0,0.0,0.0,0.0,0.0,0.0,0.0,0.0,0.0,0.0,0.0,0.0,0.0,0.0,0.0,0.0,0.0,0.0,0.0,0.0,0.0,0.0,0.0,-4.1637,-4.4265,-4.5946,-4.6102,-4.4562,-4.1669,-3.8747,0.0,0.0,0.0,0.0,0.0,0.0,0.0,0.0,0.0,0.0,0.0,0.0,0.0,0.0,0.0,0.0,0.0,0.0,0.0,0.0,0.0,0.0,0.0,0.0,0.0,0.0,0.0,0.0,0.0,0.0,0.0,0.0,0.0,0.0,0.0,0.0,0.0,0.0,0.0,0.0,0.0,0.0,0.0,0.0,0.0,0.0,0.0,0.0,0.0,0.0,0.0,0.0,0.0,0.0,0.0,0.0,0.0,0.0,0.0,0.0,0.0,0.0,0.0,0.0,0.0,0.0,0.0,0.0,0.0,0.0,0.0,0.0,0.0,0.0,0.0,0.0,0.0,0.0,0.0,0.0,0.0,0.0,0.0,0.0,0.0,0.0,0.0,0.0,0.0,0.0,0.0,0.0,0.0,0.0,0.0,0.0,0.0,0.0,0.0,0.0,0.0,0.0,0.0,0.0,0.0,0.0,0.0,0.0,-4.318,-4.4971,-4.6955,-4.7849,-4.7497,-4.4525,-4.0885,0.0,0.0,0.0,0.0,0.0,0.0,0.0,0.0,0.0,0.0,0.0,0.0,0.0,0.0,0.0,0.0,0.0,0.0,0.0,0.0,0.0,0.0,0.0,0.0,0.0,0.0,0.0,0.0,0.0,0.0,0.0,0.0,0.0,0.0,0.0,0.0,0.0,0.0,0.0,0.0,0.0,0.0,0.0,0.0,0.0,0.0,0.0,0.0,0.0,0.0,0.0,0.0,0.0,0.0,0.0,0.0,0.0,0.0,0.0,0.0,0.0,0.0,0.0,0.0,0.0,0.0,0.0,0.0,0.0,0.0,0.0,0.0,0.0,0.0,0.0,0.0,0.0,0.0,0.0,0.0,0.0,0.0,0.0,0.0,0.0,0.0,0.0,0.0,0.0,0.0,0.0,0.0,0.0,0.0,0.0,0.0,0.0,0.0,0.0,0.0,0.0,0.0,0.0,0.0,0.0,0.0,0.0,0.0,-4.3379,-4.5563,-4.7056,-4.74,-4.6548,-4.4609,-4.193,0.0,0.0,0.0,0.0,0.0,0.0,0.0,0.0,0.0,0.0,0.0,0.0,0.0,0.0,0.0,0.0,0.0,0.0,0.0,0.0,0.0,0.0,0.0,0.0,0.0,0.0,0.0,0.0,0.0,0.0,0.0,0.0,0.0,0.0,0.0,0.0,0.0,0.0,0.0,0.0,0.0,0.0,0.0,0.0,0.0,0.0,0.0,0.0,-3.3434,0.0,0.0,0.0,0.0,0.0,0.0,0.0,0.0,0.0,0.0,0.0,0.0,0.0,0.0,0.0,0.0,0.0,0.0,0.0,0.0,0.0,0.0,0.0,0.0,0.0,0.0,0.0,0.0,0.0,0.0,0.0,0.0,0.0,0.0,0.0,0.0,0.0,0.0,0.0,0.0,0.0,0.0,0.0,0.0,0.0,0.0,0.0,0.0,0.0,0.0,0.0,0.0,0.0,0.0,0.0,0.0,0.0,0.0,0.0,-4.3551,-4.5143,-4.6477,-4.6765,-4.5864,-4.4162,-4.1814,0.0,0.0,0.0,0.0,0.0,0.0,0.0,0.0,0.0,0.0,0.0,0.0,0.0,0.0,0.0,0.0,0.0,0.0,0.0,0.0,0.0,0.0,0.0,0.0,0.0,0.0,0.0,0.0,0.0,0.0,0.0,0.0,0.0,0.0,0.0,0.0,0.0,0.0,0.0,0.0,0.0,0.0,0.0,0.0,0.0,0.0,0.0,0.0,0.0,0.0,0.0,0.0,0.0,0.0,0.0,0.0,0.0,0.0,0.0,0.0,0.0,0.0,0.0,0.0,0.0,0.0,0.0,0.0,0.0,0.0,0.0,0.0,0.0,0.0,0.0,0.0,0.0,0.0,0.0,0.0,0.0,0.0,0.0,0.0,0.0,0.0,0.0,0.0,0.0,0.0,0.0,0.0,0.0,0.0,0.0,0.0,0.0,0.0,0.0,0.0,0.0,0.0,0.0,0.0,0.0,0.0,0.0,-4.1616,-4.3643,-4.4599,-4.5773,-4.6041,-4.5293,-4.3511,-4.1303,-3.8723,0.0,0.0,0.0,0.0,0.0,0.0,0.0,0.0,0.0,0.0,0.0,0.0,0.0,0.0,0.0,0.0,0.0,0.0,0.0,0.0,0.0,0.0,0.0,0.0,0.0,0.0,0.0,0.0,0.0,0.0,0.0,0.0,0.0,0.0,0.0,0.0,0.0,0.0,-3.0386,-3.2922,0.0,0.0,0.0,0.0,0.0,0.0,0.0,0.0,-3.6199,0.0,0.0,0.0,0.0,0.0,0.0,0.0,0.0,0.0,0.0,0.0,0.0,0.0,0.0,0.0,0.0,0.0,0.0,0.0,0.0,0.0,0.0,0.0,0.0,0.0,0.0,0.0,0.0,0.0,0.0,0.0,0.0,0.0,0.0,0.0,0.0,0.0,0.0,0.0,0.0,0.0,0.0,0.0,0.0,0.0,0.0,0.0,0.0,0.0,0.0,0.0,0.0,0.0,0.0,0.0,0.0,-3.8995,-4.1434,-4.3497,-4.5034,-4.5703,-4.5498,-4.4452,-4.2969,-4.1132,-3.8863,0.0,0.0,0.0,0.0,0.0,0.0,0.0,0.0,0.0,0.0,0.0,0.0,0.0,0.0,0.0,0.0,0.0,0.0,0.0,0.0,0.0,0.0,0.0,0.0,0.0,0.0,0.0,0.0,0.0,0.0,0.0,0.0,0.0,0.0,0.0,0.0,0.0,0.0,0.0,-3.5917,-3.7792,0.0,0.0,0.0,0.0,0.0,0.0,0.0,0.0,-3.4785,0.0,0.0,0.0,0.0,0.0,0.0,0.0,0.0,0.0,0.0,0.0,0.0,0.0,0.0,0.0,0.0,0.0,0.0,0.0,0.0,0.0,0.0,0.0,0.0,0.0,0.0,0.0,0.0,0.0,0.0,0.0,0.0,0.0,0.0,0.0,0.0,0.0,0.0,0.0,0.0,0.0,0.0,0.0,0.0,0.0,0.0,0.0,0.0,0.0,0.0,0.0,0.0,0.0,0.0,0.0,-3.8217,-4.056,-4.2355,-4.3572,-4.4106,-4.3996,-4.3156,-4.1979,-4.0363,0.0,0.0,0.0,0.0,0.0,0.0,0.0,0.0,0.0,0.0,0.0,0.0,0.0,0.0,0.0,0.0,0.0,0.0,0.0,0.0,0.0,0.0,0.0,0.0,0.0,0.0,0.0,0.0,0.0,0.0,0.0,0.0,0.0,0.0,0.0,0.0,0.0,0.0,0.0,0.0,-3.8095,-3.9605,-4.1032,0.0,0.0,0.0,0.0,0.0,0.0,-3.7507,-3.6366,0.0,0.0,0.0,0.0,0.0,0.0,0.0,0.0,0.0,0.0,0.0,0.0,0.0,0.0,0.0,0.0,0.0,0.0,0.0,0.0,0.0,0.0,0.0,0.0,0.0,0.0,0.0,0.0,0.0,0.0,0.0,0.0,0.0,0.0,0.0,0.0,0.0,0.0,0.0,0.0,0.0,0.0,0.0,0.0,0.0,0.0,0.0,0.0,0.0,0.0,0.0,0.0,0.0,0.0,0.0,-3.7398,-3.9652,-4.1277,-4.2192,-4.2631,-4.2637,-4.2157,-4.0972,-3.9483,0.0,0.0,0.0,0.0,0.0,0.0,0.0,0.0,0.0,0.0,0.0,0.0,0.0,0.0,0.0,0.0,0.0,0.0,0.0,0.0,0.0,0.0,0.0,0.0,0.0,0.0,0.0,0.0,0.0,0.0,0.0,0.0,0.0,0.0,0.0,0.0,0.0,0.0,0.0,0.0,0.0,-4.0935,-4.2019,-4.2351,0.0,0.0,0.0,0.0,-3.9797,-3.948,0.0,0.0,0.0,0.0,0.0,0.0,0.0,0.0,0.0,0.0,0.0,0.0,0.0,0.0,0.0,0.0,0.0,0.0,0.0,0.0,0.0,0.0,0.0,0.0,0.0,0.0,0.0,0.0,0.0,0.0,0.0,0.0,0.0,0.0,0.0,0.0,0.0,0.0,0.0,0.0,0.0,0.0,0.0,0.0,0.0,0.0,0.0,0.0,0.0,0.0,0.0,0.0,0.0,0.0,0.0,0.0,-3.7665,-3.9355,-4.0995,-4.2533,-4.2458,-4.2269,-4.1906,-4.0334,-3.8821,0.0,0.0,0.0,0.0,0.0,0.0,0.0,0.0,0.0,0.0,0.0,0.0,0.0,0.0,0.0,0.0,0.0,0.0,0.0,0.0,0.0,0.0,0.0,0.0,0.0,0.0,0.0,0.0,0.0,0.0,0.0,0.0,0.0,0.0,0.0,0.0,0.0,0.0,0.0,0.0,0.0,-4.1744,-4.2591,-4.3458,-4.3694,0.0,0.0,-4.2019,-4.1948,-4.1469,0.0,0.0,0.0,0.0,0.0,0.0,0.0,0.0,0.0,0.0,0.0,0.0,0.0,0.0,0.0,0.0,0.0,0.0,0.0,0.0,0.0,0.0,0.0,0.0,0.0,0.0,0.0,0.0,0.0,0.0,0.0,0.0,0.0,0.0,0.0,0.0,0.0,0.0,0.0,0.0,0.0,0.0,0.0,0.0,0.0,0.0,0.0,0.0,0.0,0.0,0.0,0.0,0.0,0.0,0.0,-3.5634,-3.6808,-3.8859,-4.0485,-4.1596,-4.1872,-4.1934,-4.1744,-3.9966,-3.8347,0.0,0.0,0.0,0.0,0.0,0.0,0.0,0.0,0.0,0.0,0.0,0.0,0.0,0.0,0.0,0.0,0.0,0.0,0.0,0.0,0.0,0.0,0.0,0.0,0.0,0.0,0.0,0.0,0.0,0.0,0.0,0.0,0.0,0.0,0.0,0.0,0.0,0.0,0.0,0.0,0.0,0.0,-4.3436,-4.5095,0.0,0.0,0.0,-4.3973,-4.3671,0.0,0.0,0.0,0.0,0.0,0.0,0.0,0.0,0.0,0.0,0.0,0.0,0.0,0.0,0.0,0.0,0.0,0.0,0.0,0.0,0.0,0.0,0.0,0.0,0.0,0.0,0.0,0.0,0.0,0.0,0.0,0.0,0.0,0.0,0.0,0.0,0.0,0.0,0.0,0.0,0.0,0.0,0.0,0.0,0.0,0.0,0.0,0.0,0.0,0.0,0.0,0.0,0.0,0.0,0.0,0.0,0.0,-3.6242,-3.8496,-4.0053,-4.0881,-4.1376,-4.1499,-4.1156,-3.9616,0.0,0.0,0.0,0.0,0.0,0.0,0.0,0.0,0.0,0.0,0.0,0.0,0.0,0.0,0.0,0.0,0.0,0.0,0.0,0.0,0.0,0.0,0.0,0.0,0.0,0.0,0.0,-2.8749,0.0,0.0,0.0,0.0,0.0,0.0,0.0,0.0,0.0,0.0,0.0,0.0,0.0,0.0,-4.3305,-4.4234,-4.6186,-4.6992,0.0,0.0,-4.5517,-4.4721,-4.3695,-4.2358,0.0,0.0,0.0,0.0,0.0,0.0,0.0,0.0,0.0,0.0,0.0,0.0,0.0,0.0,0.0,0.0,0.0,0.0,0.0,0.0,0.0,0.0,0.0,0.0,0.0,0.0,0.0,0.0,0.0,0.0,0.0,0.0,0.0,0.0,0.0,0.0,0.0,0.0,0.0,0.0,0.0,0.0,0.0,0.0,0.0,0.0,0.0,0.0,0.0,0.0,0.0,0.0,0.0,0.0,0.0,-3.6655,-3.8415,-3.9921,-4.1115,-4.122,-4.0833,-4.0047,-3.9222,-3.7843,0.0,0.0,0.0,0.0,0.0,0.0,0.0,0.0,0.0,0.0,0.0,0.0,0.0,0.0,0.0,0.0,0.0,0.0,0.0,0.0,0.0,0.0,0.0,0.0,0.0,0.0,0.0,0.0,0.0,0.0,0.0,0.0,0.0,0.0,0.0,0.0,0.0,0.0,0.0,0.0,0.0,-4.3936,-4.4773,-4.6153,-4.6841,0.0,0.0,-4.6341,-4.4903,-4.5162,-4.4205,-4.0215,0.0,0.0,0.0,0.0,0.0,0.0,0.0,0.0,0.0,0.0,0.0,0.0,0.0,0.0,0.0,0.0,0.0,0.0,0.0,0.0,0.0,0.0,0.0,0.0,0.0,0.0,0.0,0.0,0.0,0.0,0.0,0.0,0.0,0.0,0.0,0.0,0.0,0.0,0.0,0.0,0.0,0.0,0.0,0.0,0.0,0.0,0.0,0.0,0.0,0.0,0.0,0.0,0.0,-3.5084,-3.7411,-3.8534,-3.9756,-4.1036,-4.0866,-4.0298,-3.9483,-3.8435,-3.7081,0.0,0.0,0.0,0.0,0.0,0.0,0.0,0.0,0.0,0.0,0.0,0.0,0.0,0.0,0.0,0.0,0.0,0.0,0.0,0.0,0.0,0.0,0.0,0.0,0.0,0.0,0.0,0.0,-3.2059,-3.2211,-3.251,0.0,0.0,0.0,0.0,0.0,0.0,0.0,0.0,0.0,0.0,-4.3859,-4.4896,-4.6424,0.0,0.0,-4.6438,-4.6028,-4.5359,-4.3913,-4.2318,-4.0633,-3.8515,0.0,0.0,0.0,0.0,0.0,0.0,0.0,0.0,0.0,0.0,0.0,0.0,0.0,0.0,0.0,0.0,0.0,0.0,0.0,0.0,0.0,0.0,0.0,0.0,0.0,0.0,0.0,0.0,0.0,0.0,0.0,0.0,0.0,0.0,0.0,0.0,0.0,0.0,0.0,0.0,0.0,0.0,0.0,0.0,0.0,0.0,0.0,0.0,0.0,0.0,0.0,0.0,-3.464,-3.7542,-3.8269,-3.9273,-4.0645,-4.0336,-3.9712,-3.8664,-3.7702,-3.6505,0.0,0.0,0.0,0.0,0.0,0.0,0.0,0.0,0.0,0.0,0.0,0.0,0.0,0.0,0.0,0.0,0.0,0.0,0.0,0.0,0.0,0.0,0.0,0.0,0.0,0.0,0.0,0.0,-3.2436,-3.224,-3.2114,0.0,0.0,0.0,0.0,0.0,0.0,0.0,0.0,0.0,0.0,-4.3688,-4.4747,-4.5989,-4.6815,-4.6615,-4.5974,-4.5287,-4.4734,-4.2783,-4.1103,-4.0214,0.0,0.0,0.0,0.0,0.0,0.0,0.0,0.0,0.0,0.0,0.0,0.0,0.0,0.0,0.0,0.0,0.0,0.0,0.0,0.0,0.0,0.0,0.0,0.0,0.0,0.0,0.0,0.0,0.0,0.0,0.0,0.0,0.0,0.0,0.0,0.0,0.0,0.0,0.0,0.0,0.0,0.0,0.0,0.0,0.0,0.0,0.0,0.0,0.0,0.0,0.0,0.0,0.0,-3.4021,-3.6775,-3.7496,-3.8434,-3.9578,-3.9594,-3.8924,-3.7518,-3.7153,-3.6208,-3.4448,0.0,0.0,0.0,0.0,0.0,0.0,0.0,0.0,0.0,0.0,0.0,0.0,0.0,0.0,0.0,0.0,0.0,0.0,0.0,0.0,0.0,0.0,0.0,0.0,0.0,0.0,-3.1981,-3.2353,-3.2204,0.0,0.0,0.0,0.0,0.0,0.0,0.0,0.0,0.0,0.0,-4.1873,-4.3387,-4.4311,-4.4658,-4.495,-4.5131,-4.4951,-4.4236,-4.2735,-4.2126,-4.1103,0.0,0.0,0.0,0.0,0.0,0.0,0.0,0.0,0.0,0.0,0.0,0.0,0.0,0.0,0.0,0.0,0.0,0.0,0.0,0.0,0.0,0.0,0.0,0.0,0.0,0.0,0.0,0.0,0.0,0.0,0.0,0.0,0.0,0.0,0.0,0.0,0.0,0.0,0.0,0.0,-3.4209,-3.3391,0.0,0.0,0.0,0.0,0.0,0.0,0.0,0.0,0.0,0.0,0.0,0.0,-3.3702,-3.6527,-3.7259,-3.7952,-3.8772,-3.9063,-3.8474,-3.6949,-3.6659,-3.5451,-3.3205,0.0,0.0,0.0,0.0,0.0,0.0,0.0,0.0,0.0,0.0,0.0,0.0,0.0,0.0,0.0,0.0,0.0,0.0,0.0,0.0,0.0,0.0,0.0,0.0,0.0,-3.2063,0.0,0.0,0.0,0.0,0.0,0.0,0.0,0.0,0.0,0.0,0.0,-3.8619,-3.9857,-4.1779,-4.3297,-4.3844,-4.4236,-4.4554,0.0,0.0,0.0,0.0,0.0,0.0,0.0,0.0,0.0,0.0,0.0,0.0,0.0,0.0,-3.0225,-2.9717,-2.944,-2.9259,-2.9064,0.0,0.0,0.0,0.0,0.0,0.0,0.0,0.0,0.0,0.0,0.0,0.0,0.0,0.0,0.0,0.0,-3.2228,0.0,0.0,0.0,0.0,0.0,0.0,0.0,0.0,-3.3253,-3.4253,-3.5426,-3.4759,-3.4555,0.0,-3.3772,-3.2921,0.0,0.0,0.0,0.0,0.0,0.0,0.0,0.0,-3.3534,-3.6119,-3.6522,-3.7019,-3.7661,-3.7806,-3.7318,-3.6192,-3.5602,-3.4281,-3.2195,-3.1742,-3.046,0.0,0.0,0.0,0.0,0.0,0.0,0.0,0.0,0.0,0.0,0.0,0.0,0.0,0.0,0.0,0.0,0.0,0.0,0.0,0.0,0.0,0.0,0.0,-3.2059,0.0,0.0,0.0,0.0,0.0,0.0,0.0,0.0,0.0,-3.5558,-3.7686,-3.9502,-4.034,-4.162,-4.2686,-4.3135,0.0,0.0,0.0,0.0,0.0,0.0,0.0,-3.7384,-3.6641,-3.5974,-3.5234,-3.4601,-3.3647,-3.276,-3.2179,0.0,0.0,-3.0445,-2.9989,-2.9728,-2.9781,-2.9412,-2.8893,-2.8255,-2.7564,-2.6921,0.0,0.0,0.0,0.0,0.0,0.0,0.0,0.0,-3.5335,-3.4823,0.0,0.0,0.0,0.0,0.0,0.0,0.0,0.0,0.0,0.0,-3.4922,-3.5828,-3.6248,-3.5941,-3.5811,-3.5795,-3.5596,-3.4808,-3.3508,-3.0912,0.0,0.0,0.0,0.0,0.0,0.0,-3.3399,-3.5463,-3.5477,-3.5698,-3.6238,-3.5969,-3.5632,-3.5202,-3.4005,-3.2745,-3.1512,-3.1,-3.0269,-2.9458,-2.7298,0.0,0.0,0.0,0.0,0.0,0.0,0.0,0.0,0.0,0.0,0.0,0.0,0.0,0.0,0.0,0.0,0.0,0.0,0.0,0.0,-3.1277,0.0,0.0,0.0,0.0,0.0,0.0,0.0,0.0,0.0,0.0,-3.7758,-3.907,-4.0229,-4.1288,0.0,0.0,0.0,0.0,-4.0253,-4.02,-4.0138,-3.9311,-3.7303,-3.696,-3.6537,-3.5398,0.0,0.0,-3.3717,-3.341,-3.2961,-3.2014,-3.2009,-3.1993,-3.102,-3.0306,-2.9927,-3.0378,-2.9795,-2.9134,-2.8741,-2.8118,-2.7423,-4.0735,0.0,0.0,0.0,0.0,-3.6267,-3.6898,-3.7776,-3.7776,-3.7215,-3.6285,-3.6079,0.0,0.0,0.0,0.0,0.0,0.0,-3.3818,-3.4017,-3.4668,-3.539,-3.6185,-3.5542,-3.5365,-3.5646,-3.5103,-3.4497,-3.3925,-3.3144,-3.2096,-3.0869,0.0,0.0,0.0,0.0,-3.3518,-3.461,-3.508,-3.5334,-3.5493,-3.5958,-3.5771,-3.4941,-3.3672,-3.2857,-3.2477,-3.2006,-3.1144,-2.9877,-2.8738,0.0,0.0,0.0,0.0,0.0,0.0,0.0,0.0,0.0,0.0,0.0,0.0,0.0,0.0,0.0,0.0,0.0,0.0,0.0,-3.1241,-3.2447,-3.3081,0.0,0.0,0.0,0.0,0.0,0.0,0.0,0.0,0.0,-3.7156,-3.8419,-3.9219,0.0,0.0,-3.9931,-3.9621,-3.9468,-3.973,-4.0676,0.0,0.0,0.0,-3.6015,-3.5993,-3.5001,-3.4654,-3.4328,-3.367,-3.3251,-3.2761,-3.2212,-3.1496,-3.0841,-3.0651,-3.076,-3.0649,-3.0169,-2.9816,-2.9356,-2.8503,-2.7971,-2.7373,-4.3388,-4.0831,-3.9511,-3.8671,-3.8101,-3.8059,-3.8478,-3.924,-3.915,-3.8539,-3.7592,-3.7302,-3.5895,-3.3727,-3.3212,0.0,0.0,0.0,-3.4313,-3.4501,-3.4589,-3.507,-3.5877,-3.5333,-3.5152,-3.5444,-3.5279,-3.4982,-3.4522,-3.4829,-3.4266,-3.2945,0.0,0.0,-3.3045,-3.3372,-3.3762,-3.4201,-3.4572,-3.4748,-3.4748,-3.5098,-3.4782,-3.3855,-3.3208,-3.2843,-3.2718,-3.2373,-3.1631,-3.0456,-2.9645,-2.8342,0.0,0.0,0.0,0.0,0.0,0.0,0.0,0.0,0.0,0.0,0.0,-2.6152,-2.6665,0.0,0.0,0.0,-2.9215,-3.0363,-3.1919,-3.287,0.0,0.0,0.0,0.0,0.0,0.0,0.0,-3.4849,-3.5122,-3.5561,-3.6265,-3.7192,-3.7912,-3.8262,-3.9082,-3.9291,-3.8522,0.0,-3.8484,-3.9253,-3.8226,-3.6941,-3.5565,-3.5341,-3.5093,-3.4336,-3.4182,-3.3931,-3.3329,-3.2773,-3.2258,-3.1864,-3.1056,-3.0337,-3.0093,-3.0337,-3.0512,-2.9977,-2.9624,-2.9082,-2.8382,-2.7844,-2.7246,-4.5321,-4.361,-4.1408,-4.0447,-4.0394,-4.0262,-4.011,-3.9956,-3.979,-3.9191,-3.8176,-3.7512,-3.6203,-3.4482,-3.4264,0.0,0.0,-3.4551,-3.4883,-3.4994,-3.4643,-3.4857,-3.5429,-3.5242,-3.5088,-3.5121,-3.5801,-3.5801,-3.5234,-3.5866,-3.5866,-3.5185,-3.4505,-3.4165,-3.4117,-3.4101,-3.4101,-3.4101,-3.4101,-3.4101,-3.405,-3.3813,-3.3277,-3.2453,-3.2718,-3.2703,-3.2382,-3.2247,-3.1845,-3.1025,-3.0072,-2.883,-2.7292,0.0,0.0,0.0,0.0,0.0,0.0,0.0,0.0,0.0,0.0,0.0,0.0,0.0,0.0,0.0,-3.0738,0.0,-3.162,-3.2696,0.0,0.0,0.0,-3.3789,-3.3591,-3.408,-3.442,-3.4356,0.0,0.0,0.0,0.0,-3.6458,-3.8172,-3.8948,-3.8972,-3.8017,-3.7282,-3.6817,-3.6453,-3.6043,-3.5773,-3.5611,-3.4792,-3.4048,-3.3675,-3.3536,-3.341,-3.2846,-3.2151,-3.1667,-3.1289,-3.069,-3.0079,-2.9496,-2.9428,-2.951,-2.9875,-2.9225,-2.8539,-2.8268,-2.7716,-2.7075,-4.5246,-4.4611,-4.2928,-4.1813,-4.1163,-4.1119,-4.0983,-4.0834,-4.077,-4.0198,-3.9243,-3.9054,-3.7916,-3.5996,-3.5118,-3.457,-3.4331,-3.4317,-3.43,-3.4349,-3.425,-3.4298,-3.446,-3.441,-3.436,-3.4376,-3.4538,-3.4813,-3.5169,-3.5364,-3.5364,-3.5185,-3.5007,-3.4635,-3.4117,-3.4101,-3.4101,-3.4101,-3.4101,-3.4,-3.3797,-3.3555,-3.3187,-3.2788,-3.2578,-3.2468,-3.2398,-3.2206,-3.1734,-3.1025,-2.9933,-2.8708,-2.7277,-2.5928,0.0,0.0,0.0,0.0,0.0,0.0,0.0,0.0,0.0,-2.6867,-2.8269,0.0,-2.9146,0.0,-3.0764,-3.1552,-3.1782,-3.2556,0.0,0.0,-3.3015,-3.341,-3.3231,-3.4032,-3.4522,-3.4234,-3.4423,-3.4554,-3.4293,-3.4744,-3.5062,-3.5085,-3.5703,-3.5933,-3.5183,-3.5233,-3.508,-3.4696,-3.5153,-3.5411,-3.4455,-3.3987,-3.3689,-3.3396,-3.3382,-3.3227,-3.2761,-3.182,-3.0979,-3.0623,-2.974,-2.9048,-2.8845,-2.8804,-2.8779,-2.869,-2.8345,-2.7933,-2.7611,-2.7203,-2.6754,-4.5233,-4.4483,-4.3641,-4.2594,-4.1471,-4.1363,-4.129,-4.1215,-4.1076,-4.0521,-3.9623,-3.8814,-3.7488,-3.5924,-3.5224,-3.4691,-3.43,-3.4134,-3.4101,-3.4101,-3.4101,-3.4101,-3.4101,-3.4101,-3.4101,-3.4117,-3.4424,-3.4797,-3.5169,-3.5509,-3.5509,-3.5185,-3.5185,-3.4813,-3.4133,-3.4101,-3.4101,-3.4101,-3.4101,-3.3899,-3.3539,-3.3346,-3.3081,-3.2609,-3.2373,-3.2176,-3.212,-3.1853,-3.1531,-3.1155,-3.0201,-2.9123,-2.7935,-2.699,-2.5906,0.0,0.0,0.0,0.0,0.0,0.0,0.0,0.0,0.0,0.0,0.0,-2.9654,0.0,-3.1161,0.0,-3.217,-3.2801,-3.3004,-3.2616,-3.3244,-3.3633,-3.346,-3.3969,-3.4283,-3.402,-3.4117,-3.4077,-3.3911,-3.4098,-3.4128,-3.3801,-3.4098,-3.4184,-3.3996,-3.4312,-3.4484,-3.4029,-3.437,-3.4469,-3.3635,-3.3621,-3.3621,-3.3199,-3.2863,-3.2528,-3.2233,-3.1295,-3.0443,-3.0011,-2.9131,-2.843,-2.8444,-2.8314,-2.8183,-2.8039,-2.7709,-2.7443,-2.7323,-2.6998,-2.6658,-4.5045,-4.3886,-4.3676,-4.2816,-4.1587,-4.1363,-4.1318,-4.138,-4.1105,-4.055,-3.9664,-3.7803,-3.6308,-3.5285,-3.4996,-3.4594,-3.4101,-3.4101,-3.4101,-3.4101,-3.4101,-3.4101,-3.4101,-3.4101,-3.4101,-3.4133,-3.4748,-3.5056,-3.5056,-3.5704,-3.5704,-3.5072,-3.504,-3.4732,-3.4117,-3.4101,-3.4101,-3.4101,-3.405,-3.3797,-3.324,-3.3187,-3.2812,-3.2135,-3.1981,-3.1868,-3.1667,-3.1452,-3.1233,-3.1144,-3.0437,-2.9576,-2.8594,-2.8152,-2.72,0.0,-2.563,0.0,0.0,0.0,0.0,0.0,0.0,0.0,0.0,-2.9333,-3.0309,-3.1503,-3.1569,-3.1826,-3.2498,-3.3151,-3.3411,-3.3078,-3.3493,-3.3837,-3.373,-3.3785,-3.3854,-3.3799,-3.3813,-3.3827,-3.3813,-3.3675,-3.3536,-3.3521,-3.3367,-3.3255,-3.3465,-3.3959,-3.4242,-3.4112,-3.3663,-3.3438,-3.3297,-3.3421,-3.3392,-3.289,-3.2208,-3.164,-3.1515,-3.0759,-3.0017,-2.9535,-2.8849,-2.8287,-2.8352,-2.8091,-2.7868,-2.7709,-2.7353,-2.7059,-2.7162,-2.6918,-2.6658,-4.368,-4.3781,-4.2552,-4.185,-4.1604,-4.1408,-4.138,-4.138,-4.1335,-4.0763,-3.9721,-3.7677,-3.6514,-3.6064,-3.5051,-3.4399,-3.4101,-3.4101,-3.4101,-3.4101,-3.4101,-3.4101,-3.4101,-3.4101,-3.4101,-3.4101,-3.423,-3.4295,-3.4311,-3.4441,-3.4441,-3.4311,-3.4295,-3.423,0.0,0.0,0.0,0.0,-3.3797,-3.3366,-3.2911,-3.2563,-3.2176,-3.1652,-3.161,0.0,-3.1552,-3.1394,-3.104,-3.0535,-3.0029,0.0,0.0,0.0,0.0,0.0,0.0,0.0,0.0,0.0,0.0,0.0,-2.7509,-2.8205,-2.8269,-2.9301,-3.0291,-3.1051,-3.1482,-3.1843,-3.232,-3.2956,-3.3185,-3.2807,-3.2639,-3.2611,-3.2904,-3.3212,-3.3391,-3.3185,-3.3312,-3.3382,-3.3423,-3.3396,-3.3312,-3.3325,-3.289,-3.2595,-3.2678,-3.317,-3.3537,-3.3466,-3.3297,-3.3213,-3.3058,-3.2681,-3.2375,-3.2041,-3.1461,-3.1047,-3.0856,-3.0335,-2.9775,-2.9508,-2.898,-2.8481,-2.8495,-2.8379,-2.7878,-2.7426,-2.7012,-2.6843,-2.7005,-2.6769,-2.6533,-4.3786,0.0,-4.2517,-4.1973,0.0,0.0,-4.1498,-4.1515,-4.1363,-4.0791,-3.9909,-3.8677,-3.7509,-3.639,-3.561,-3.4824,-3.4101,-3.4101,-3.4101,-3.4101,-3.4101,-3.4101,-3.4101,-3.4101,-3.4101,-3.4101,-3.4101,-3.4101,-3.4101,-3.4101,-3.4101,-3.4101,-3.405,-3.4,-3.4,-3.3848,-3.3729,-3.3543,-3.3245,-3.2803,-3.2351,-3.216,-3.1781,-3.1263,0.0,0.0,0.0,0.0,0.0,0.0,0.0,0.0,0.0,0.0,0.0,-2.7088,-2.7371,-2.7272,-2.6635,-2.6694,-2.6624,-2.619,-2.7069,-2.787,-2.8484,-2.9024,-2.9624,-3.0303,-3.0601,-3.1048,-3.1702,-3.1997,-3.2027,-3.1944,-3.1763,-3.1721,-3.182,-3.219,-3.2298,-3.2192,-3.2165,-3.2261,-3.2412,-3.233,-3.2456,-3.2778,-3.2328,-3.2061,-3.2342,-3.2398,-3.2412,-3.2426,-3.2412,-3.233,-3.2151,-3.1805,-3.1432,-3.124,-3.0732,-3.0307,-3.0146,-2.9613,-2.919,-2.9046,-2.8376,-2.7816,-2.7843,-2.745,-2.6889,-2.6385,-2.6051,-2.5871,-2.5917,-2.5836,-2.5782,-4.4078,-4.2798,-4.2658,-4.2201,-4.1604,-4.1604,-4.1604,-4.1587,0.0,0.0,0.0,-3.9549,-3.8342,-3.6734,-3.6235,-3.5383,-3.4379,-3.4216,-3.4151,-3.4101,-3.4101,-3.4101,-3.4101,-3.4101,-3.4101,-3.4101,-3.4101,-3.4101,-3.4101,-3.4101,-3.4101,-3.405,-3.4,-3.3899,-3.3864,-3.3523,-3.3193,-3.2841,-3.2625,-3.2327,-3.1807,-3.1709,-3.1422,-3.0851,-3.0762,-3.0522,-3.0266,-3.0172,-3.0111,-3.0097,-2.9111,-2.8711,-2.9023,-2.8681,-2.8381,-2.8149,-2.8573,-2.8389,-2.7214,-2.686,-2.6438,-2.5783,-2.6372,-2.7325,-2.8684,-2.8651,-2.8896,-2.9759,-2.98,-3.0179,-3.104,-3.1043,-3.0962,-3.1096,-3.1079,-3.0904,-3.0894,-3.1093,-3.1307,-3.1149,-3.1299,-3.1338,-3.1541,-3.1461,-3.1492,-3.1951,-3.1696,-3.1401,-3.178,-3.1682,-3.1612,-3.1612,-3.1654,-3.1489,-3.1271,-3.1013,-3.077,-3.0622,-2.998,-2.9504,-2.9234,-2.8852,-2.8511,-2.8284,-2.7543,-2.7162,-2.7023,-2.6569,-2.5722,-2.5292,-2.509,-2.4811,-2.4595,-2.4646,-2.4785,-4.3306,-4.2745,-4.2194,-4.1798,-4.1604,-4.1604,-4.1604,-4.1507,-4.0665,-4.0182,-3.9998,-3.8721,-3.8001,-3.7669,-3.6534,-3.5745,-3.5349,-3.4726,-3.4349,0.0,-3.4101,-3.4101,-3.4101,-3.4101,-3.4101,-3.4101,-3.4101,-3.4101,-3.4101,-3.4101,-3.405,-3.3949,-3.4,-3.3949,-3.3642,-3.2711,-3.2104,-3.2033,-3.2327,-3.2033,-3.1349,-3.0955,-3.0642,-3.0294,-3.0219,-3.0172,-3.0111,-3.0111,-3.0111,-3.0111,-2.994,-2.9565,-2.899,-2.927,-2.9266,-2.8679,-2.8707,-2.8605,-2.8408,-2.7635,-2.7006,-2.6652,-2.6742,-2.7325,-2.8465,-2.8587,-2.891,-2.9652,-2.9717,-3.0113,-3.0812,-3.0825,-3.0784,-3.0893,-3.0491,-3.0342,-3.0596,-3.0571,-3.0564,-3.089,-3.1258,-3.1363,-3.1373,-3.1387,-3.1349,-3.1485,-3.112,-3.0572,-3.0403,-3.0881,-3.1415,-3.1485,-3.1485,-3.1419,-3.1104,-3.0717,-3.0294,-3.0135,-2.9416,-2.8803,-2.8463,-2.816,-2.7851,-2.7346,-2.7094,-2.6904,-2.6687,-2.6449,-2.5783,-2.4987,-2.4748,-2.4436,-2.3651,-2.3624,-2.3925,-4.2934,-4.2326,-4.1938,-4.178,-4.1797,-4.1754,-4.1648,-4.1534,-4.0622,-4.0472,-4.0699,-3.9066,-3.8196,-3.7972,-3.6776,-3.5792,-3.5005,-3.4644,-3.4349,-3.4101,-3.4101,-3.3906,-3.3599,-3.3922,-3.3922,-3.3599,-3.3838,-3.4,-3.4101,-3.405,-3.4,-3.4,-3.3949,-3.3694,-3.324,-3.2617,-3.2089,-3.1709,-3.161,-3.1321,-3.0911,-3.0687,-3.0303,-2.9625,-2.9611,-2.9551,-2.9355,-2.9369,-2.9525,-2.9851,-2.9539,-2.9308,-2.9275,-2.8937,-2.8679,-2.8689,-2.8689,-2.838,-2.7603,-2.6685,-2.6202,-2.628,-2.6321,-2.6687,-2.7569,-2.7623,-2.7746,-2.813,-2.8157,-2.8466,-2.9141,-2.9237,-2.9361,-2.99,-2.9665,-2.9638,-2.9793,-2.985,-2.9881,-3.0067,-3.0137,-3.028,-3.0474,-3.0409,-3.0563,-3.0839,-3.0656,-3.0277,-2.9715,-3.008,-3.0474,-3.0474,-3.0459,-3.0395,-3.0266,-2.9993,-2.9595,-2.9162,-2.8732,-2.8243,-2.7707,-2.7448,-2.7264,-2.6958,-2.6658,-2.638,-2.6129,-2.5668,-2.5137,-2.4622,-2.4193,-2.3799,-2.3381,-2.3271,-2.3399,-4.2967,-4.2005,-4.1884,-4.1884,-4.1902,-4.1841,-4.1666,-4.1271,-4.0447,-4.0464,-4.078,-3.9257,-3.8425,-3.8094,-3.7013,-3.5854,-3.4906,-3.4676,-3.4399,-3.4101,-3.4101,-3.3809,-3.3404,-3.3874,-3.3825,-3.342,-3.3758,-3.3935,-3.389,-3.3774,-3.3627,-3.3514,-3.3323,-3.3056,-3.2594,-3.2485,-3.2104,-3.1537,-3.1043,-3.0687,-3.0582,-3.0522,-3.0053,-2.9226,-2.9123,-2.8873,-2.8507,-2.8619,-2.8914,-2.9336,-2.8942,-2.89,-2.9307,-2.8366,-2.7987,-2.8422,-2.8478,-2.7942,-2.6648,-2.6018,-2.5666,-2.567,-2.5683,-2.59,-2.6335,-2.6416,-2.6538,-2.6769,-2.6904,-2.7128,-2.7619,-2.7639,-2.7878,-2.8567,-2.8685,-2.8657,-2.8685,-2.8886,-2.8948,-2.8948,-2.8872,-2.8976,-2.9226,-2.9268,-2.9547,-3.0115,-3.0319,-3.0108,-2.9701,-2.9602,-2.9574,-2.9462,-2.9504,-2.9526,-2.9324,-2.9282,-2.8968,-2.8227,-2.8055,-2.7704,-2.7143,-2.6951,-2.6736,-2.6467,-2.6126,-2.5796,-2.554,-2.5097,-2.4611,-2.4164,-2.3883,-2.3654,-2.3343,-2.315,-2.309,-4.3515,-4.2094,-4.1987,-4.1858,-4.1648,-4.1754,-4.1366,-4.0551,-3.9761,-3.9343,-3.9268,-3.8691,-3.8288,-3.8006,-3.7123,-3.6357,-3.5711,-3.5133,-3.4594,-3.4134,-3.4101,-3.4068,-3.3939,-3.4052,-3.4068,-3.3955,-3.402,-3.3678,-3.3194,-3.3194,-3.2708,-3.1804,-3.1844,-3.1961,-3.1781,-3.1774,-3.1667,-3.1495,-3.1043,-3.0642,-3.0312,-3.0233,-2.9736,-2.8916,-2.8796,-2.8496,-2.7902,-2.8394,-2.8717,-2.8774,-2.8703,-2.8703,-2.8703,-2.8127,-2.779,-2.7846,-2.786,-2.7449,-2.656,-2.6758,-2.6308,-2.5222,-2.5113,-2.5154,-2.5222,-2.5322,-2.583,-2.6608,-2.6816,-2.6829,-2.7045,-2.7045,-2.716,-2.7385,-2.7459,-2.7354,-2.7552,-2.7561,-2.7708,-2.7649,-2.8019,-2.8169,-2.8759,-2.8886,-2.9111,-2.9701,-2.9729,-2.9659,-2.9546,-2.9504,-2.935,-2.9055,-2.9223,-2.9336,-2.8923,-2.8774,-2.8531,-2.7998,-2.7565,-2.7156,-2.6713,-2.6348,-2.6079,-2.5819,-2.5531,-2.5392,-2.5111,-2.4805,-2.4576,-2.4054,-2.3832,-2.37,-2.3271,-2.2909,-2.2848,-4.2834,-4.2199,-4.2097,-4.197,-4.1841,-4.1797,-4.1339,-4.0496,-3.9578,-3.8789,-3.8105,-3.7413,-3.7288,-3.7575,-3.6554,-3.5585,-3.4748,-3.4833,-3.4381,-3.3616,-3.3906,-3.389,-3.355,-3.3922,-3.3696,-3.2967,-3.316,-3.3015,-3.2515,-3.2708,-3.256,-3.2169,-3.2415,-3.2376,-3.2106,-3.1743,-3.1495,-3.1263,-3.05,-3.0001,-2.9867,-3.0214,-2.9837,-2.8755,-2.848,-2.8066,-2.7427,-2.7511,-2.7762,-2.8113,-2.8141,-2.8155,-2.8141,-2.7551,-2.72,-2.7186,-2.6692,-2.6453,-2.6392,-2.6065,-2.5578,-2.5032,-2.5005,-2.4948,-2.4892,-2.5005,-2.5349,-2.5731,-2.5939,-2.612,-2.6435,-2.6489,-2.6626,-2.7116,-2.7473,-2.7726,-2.7894,-2.8118,-2.8181,-2.8093,-2.8316,-2.8563,-2.8713,-2.9012,-2.9307,-2.9518,-2.935,-2.9139,-2.9083,-2.9069,-2.897,-2.8844,-2.9024,-2.9108,-2.8769,-2.8689,-2.8408,-2.7917,-2.7279,-2.6703,-2.6245,-2.5713,-2.5377,-2.5354,-2.5353,-2.5227,-2.4875,-2.465,-2.4478,-2.3995,-2.3582,-2.333,-2.3017,-2.2848,-2.28,-4.2483,-4.2305,-4.2145,-4.2037,-4.197,-4.1611,-4.1022,-4.0204,-3.9221,-3.8216,-3.7172,-3.6449,-3.6431,-3.672,-3.5949,-3.5002,-3.4233,-3.4388,-3.4151,-3.3421,-3.3518,-3.3453,-3.3388,-3.3404,-3.3113,-3.2465,-3.2515,-3.2241,-3.1613,-3.1887,-3.2029,-3.1908,-3.2426,-3.2531,-3.2011,-3.1566,-3.1183,-3.0792,-2.9914,-2.9348,-2.9232,-2.9695,-2.9348,-2.8239,-2.794,-2.7471,-2.6763,-2.6779,-2.7017,-2.7481,-2.7509,-2.7509,-2.7481,-2.6905,-2.6554,-2.6554,-2.612,-2.591,-2.6144,-2.5641,-2.5238,-2.5032,-2.5005,-2.4948,-2.4919,-2.5154,-2.5306,-2.5374,-2.5697,-2.6084,-2.6038,-2.6062,-2.6452,-2.7148,-2.7583,-2.7864,-2.8033,-2.8291,-2.8147,-2.8024,-2.8191,-2.8671,-2.8708,-2.9119,-2.954,-2.9421,-2.9128,-2.882,-2.882,-2.8862,-2.8806,-2.8638,-2.8851,-2.8934,-2.8647,-2.8371,-2.8168,-2.7694,-2.7048,-2.6599,-2.609,-2.5663,-2.5405,-2.5801,-2.5472,-2.5289,-2.5261,-2.4978,-2.4405,-2.3857,-2.3441,-2.3167,-2.3121,-2.2899,-2.2885,-4.3001,-4.2323,-4.2145,-4.2019,-4.1934,-4.1082,-4.0246,-3.947,-3.8485,-3.7492,-3.6617,-3.6182,-3.5966,-3.5919,-3.5645,-3.5274,-3.4764,-3.4093,-3.3858,-3.3826,-3.2773,-3.2838,-3.3906,-3.2757,-3.2417,-3.2676,-3.2238,-3.1562,-3.0792,-3.0685,-3.0434,-3.0256,-3.1357,-3.1597,-3.1241,-3.1076,-3.0709,-3.0172,-2.9383,-2.8808,-2.8525,-2.8398,-2.7969,-2.7271,-2.699,-2.6666,-2.6104,-2.6497,-2.6821,-2.6849,-2.6849,-2.6849,-2.6807,-2.6287,-2.5978,-2.6006,-2.6302,-2.6188,-2.5715,-2.5794,-2.5663,-2.5113,-2.4948,-2.4948,-2.4919,-2.5469,-2.5772,-2.5966,-2.6352,-2.6576,-2.6144,-2.6144,-2.6421,-2.6927,-2.7184,-2.7327,-2.7285,-2.7547,-2.7096,-2.6979,-2.7395,-2.801,-2.8405,-2.9024,-2.9296,-2.9226,-2.9107,-2.901,-2.8927,-2.901,-2.8775,-2.8526,-2.8629,-2.8906,-2.8353,-2.8126,-2.7667,-2.7236,-2.7078,-2.6734,-2.6681,-2.6607,-2.6418,-2.6256,-2.6049,-2.5948,-2.5796,-2.5301,-2.4538,-2.393,-2.3403,-2.3158,-2.3391,-2.3186,-2.3095,-4.2555,-4.2287,-4.2145,-4.1837,-4.1357,-4.0806,-3.9953,-3.8828,-3.8087,-3.7238,-3.6446,-3.6019,-3.5817,-3.5684,-3.5566,-3.5086,-3.4376,-3.4292,-3.4037,-3.3551,-3.2951,-3.2967,-3.3275,-3.2449,-3.185,-3.1656,-3.1445,-3.0806,-3.006,-3.0085,-3.0305,-3.0576,-3.0988,-3.1357,-3.148,-3.0915,-3.0425,-3.0137,-2.9039,-2.8207,-2.7847,-2.7377,-2.6869,-2.6369,-2.6778,-2.6693,-2.603,-2.6159,-2.6231,-2.6217,-2.6231,-2.6231,-2.6202,-2.602,-2.5893,-2.5921,-2.5994,-2.5925,-2.5647,-2.5492,-2.5293,-2.5046,-2.4835,-2.4721,-2.462,-2.4909,-2.5101,-2.5083,-2.532,-2.5455,-2.5792,-2.6212,-2.6763,-2.6996,-2.7305,-2.751,-2.7694,-2.7865,-2.7892,-2.7502,-2.7577,-2.8016,-2.8567,-2.9087,-2.9162,-2.9071,-2.8768,-2.8547,-2.8519,-2.8519,-2.8346,-2.8153,-2.8356,-2.8492,-2.8343,-2.7993,-2.7666,-2.74,-2.7121,-2.683,-2.6729,-2.6559,-2.6369,-2.643,-2.6361,-2.5994,-2.569,-2.5088,-2.4404,-2.4079,-2.3529,-2.3254,-2.3814,-2.3438,-2.3296,-4.2287,-4.2251,-4.1837,-4.1446,-4.0994,-4.0153,-3.9236,-3.8249,-3.7579,-3.6826,-3.6242,-3.5888,-3.5667,-3.5577,-3.5492,-3.5086,-3.4435,-3.4435,-3.4149,-3.355,-3.2852,-3.2675,-3.2886,-3.1913,-3.1186,-3.0819,-3.0532,-3.0041,-2.951,-2.9753,-3.0076,-3.0379,-3.0593,-3.0873,-3.1107,-3.0293,-2.9744,-2.9466,-2.8307,-2.7496,-2.7115,-2.6594,-2.6204,-2.599,-2.6411,-2.6495,-2.6071,-2.5948,-2.5893,-2.5893,-2.5893,-2.5893,-2.5893,-2.5893,-2.5893,-2.5893,-2.5784,-2.5674,-2.5578,-2.523,-2.5018,-2.4948,-2.4734,-2.4549,-2.4421,-2.4651,-2.4758,-2.4726,-2.4983,-2.5308,-2.5715,-2.6311,-2.6708,-2.6809,-2.7026,-2.7282,-2.7385,-2.7796,-2.789,-2.7642,-2.753,-2.7879,-2.8208,-2.8326,-2.8277,-2.8332,-2.7899,-2.768,-2.7592,-2.7653,-2.7592,-2.7455,-2.7449,-2.7524,-2.7431,-2.7158,-2.762,-2.7427,-2.727,-2.6974,-2.6733,-2.6534,-2.6419,-2.6494,-2.6277,-2.5808,-2.5329,-2.4773,-2.4366,-2.4087,-2.3513,-2.303,-2.3381,-2.3542,-2.3441,-4.2251,-4.2109,-4.1227,-4.0819,-4.0575,-3.9088,-3.814,-3.7813,-3.6974,-3.6353,-3.5925,-3.5688,-3.5453,-3.5442,-3.5143,-3.514,-3.486,-3.416,-3.398,-3.4087,-3.2196,-3.1892,-3.2819,-3.1005,-3.0332,-3.0551,-2.9777,-2.9307,-2.9185,-2.9452,-2.9632,-2.967,-2.9867,-3.0038,-3.0008,-2.9222,-2.8659,-2.8381,-2.7466,-2.6756,-2.6457,-2.6165,-2.5934,-2.5893,-2.6004,-2.595,-2.5893,-2.5893,-2.5893,-2.5893,-2.5893,-2.5893,-2.5893,-2.5893,-2.5893,-2.5893,-2.5784,-2.5633,-2.5494,-2.5188,-2.4892,-2.4778,-2.4664,-2.4549,-2.4558,-2.4917,-2.5196,-2.5163,-2.5595,-2.6108,-2.5993,-2.5972,-2.6065,-2.6307,-2.6387,-2.6401,-2.6481,-2.6814,-2.7287,-2.7319,-2.7203,-2.6944,-2.687,-2.6972,-2.6992,-2.6918,-2.6789,-2.6748,-2.6626,-2.6714,-2.6545,-2.6422,-2.6547,-2.6734,-2.641,-2.6202,-2.7003,-2.756,-2.7377,-2.7154,-2.6913,-2.6667,-2.6304,-2.6238,-2.5777,-2.5306,-2.4874,-2.4354,-2.3926,-2.3587,-2.3142,-2.3016,-2.3317,-2.3591,-2.3489,-4.1466,-4.1377,-4.0548,-3.9907,-3.9444,-3.866,-3.8064,-3.7474,-3.6678,-3.6025,-3.5444,-3.5035,-3.4556,-3.4158,-3.396,-3.3906,-3.3768,-3.3356,-3.3379,-3.3334,-3.1795,-3.1199,-3.1345,-3.047,-2.9927,-2.9955,-2.9553,-2.9198,-2.8967,-2.8774,-2.8855,-2.9114,-2.9085,-2.929,-2.9621,-2.8989,-2.8592,-2.8398,-2.7572,-2.6893,-2.663,-2.6351,-2.6082,-2.5948,-2.5893,-2.5893,-2.5893,-2.5893,-2.5893,-2.5893,-2.5893,-2.5893,-2.5893,-2.5893,-2.5893,-2.5893,-2.5784,-2.5633,-2.5481,-2.5089,-2.4778,-2.4593,-2.4376,-2.4287,-2.4287,-2.44,-2.4518,-2.4505,-2.4675,-2.4754,-2.4648,-2.4588,-2.5048,-2.603,-2.6047,-2.6008,-2.6021,-2.6117,-2.6347,-2.6623,-2.6462,-2.643,-2.6404,-2.6438,-2.631,-2.6323,-2.6289,-2.6289,-2.6254,-2.6235,-2.6321,-2.6184,-2.6184,-2.5964,-2.5783,-2.5656,-2.606,-2.6612,-2.667,-2.6829,-2.6684,-2.6385,-2.6087,-2.5676,-2.5179,-2.4734,-2.4329,-2.3988,-2.355,-2.3533,-2.3442,-2.3486,-2.3591,-2.3489,-2.3268,-4.0971,-4.0592,-3.9768,-3.9159,-3.8658,-3.8182,-3.7602,-3.6873,-3.6197,-3.57,-3.5283,-3.4754,-3.4226,-3.3878,-3.4004,-3.3671,-3.3088,-3.2873,-3.2796,-3.259,-3.1658,-3.1079,-3.092,-3.0198,-2.9742,-2.9563,-2.9259,-2.9029,-2.8842,-2.8332,-2.8252,-2.8531,-2.8372,-2.8382,-2.8786,-2.8405,-2.8181,-2.8055,-2.7321,-2.6841,-2.6616,-2.6297,-2.6082,-2.5948,-2.5893,-2.5893,-2.5879,-2.5697,-2.5669,-2.5851,-2.5893,-2.5893,-2.5893,-2.5893,-2.5893,-2.5839,-2.5688,-2.5522,-2.53,-2.4975,-2.4664,-2.4408,-2.4216,-2.4125,-2.4125,-2.4125,-2.4054,-2.4067,-2.4034,-2.3949,-2.3832,-2.3713,-2.418,-2.4944,-2.5071,-2.5288,-2.5481,-2.5484,-2.5533,-2.573,-2.5778,-2.5712,-2.5588,-2.5581,-2.5581,-2.5568,-2.5568,-2.5521,-2.5535,-2.5481,-2.5487,-2.544,-2.5235,-2.5182,-2.5287,-2.5227,-2.5179,-2.5454,-2.5703,-2.5992,-2.6046,-2.5782,-2.541,-2.4764,-2.4164,-2.3891,-2.353,-2.3327,-2.3065,-2.3341,-2.3462,-2.3156,-2.2911,-2.2995,-2.2823,-4.0638,-3.975,-3.889,-3.8439,-3.8167,-3.7432,-3.6768,-3.6201,-3.5566,-3.5385,-3.5331,-3.4786,-3.4327,-3.4391,-3.461,-3.4074,-3.2967,-3.2636,-3.2166,-3.1654,-3.1183,-3.1062,-3.0903,-3.0073,-2.9608,-2.9412,-2.892,-2.8716,-2.8684,-2.8088,-2.784,-2.7996,-2.7846,-2.764,-2.7754,-2.7518,-2.7527,-2.749,-2.687,-2.6563,-2.6496,-2.6065,-2.5795,-2.5795,-2.5781,-2.5725,-2.5556,-2.5177,-2.5191,-2.5683,-2.564,-2.5544,-2.5739,-2.5781,-2.5546,-2.5423,-2.5412,-2.5204,-2.4937,-2.4694,-2.4492,-2.4305,-2.4157,-2.4112,-2.4112,-2.4054,-2.4008,-2.3949,-2.3891,-2.3832,-2.3628,-2.3522,-2.3526,-2.3488,-2.3906,-2.4266,-2.4771,-2.4788,-2.4788,-2.4922,-2.5017,-2.4978,-2.453,-2.4464,-2.4451,-2.4451,-2.4477,-2.4498,-2.4439,-2.4518,-2.4308,-2.436,-2.4511,-2.455,-2.4708,-2.4708,-2.4661,-2.4766,-2.4962,-2.5145,-2.5331,-2.5045,-2.4689,-2.3978,-2.3485,-2.3167,-2.2862,-2.2736,-2.2636,-2.2633,-2.2549,-2.2246,-2.2294,-2.2462,-2.2522,-3.9405,-3.9022,-3.8107,-3.7374,-3.6895,-3.6425,-3.6127,-3.5762,-3.5365,-3.5101,-3.5002,-3.4677,-3.388,-3.3009,-3.3599,-3.3009,-3.2018,-3.195,-3.1632,-3.0933,-3.0613,-3.0424,-3.0293,-2.9823,-2.947,-2.9227,-2.8732,-2.8429,-2.8332,-2.7875,-2.7675,-2.7675,-2.769,-2.756,-2.7575,-2.7575,-2.7524,-2.7473,-2.6945,-2.6602,-2.6462,-2.5682,-2.5272,-2.5219,-2.5219,-2.5047,-2.4615,-2.4339,-2.4245,-2.4399,-2.4441,-2.4389,-2.4406,-2.4368,-2.4396,-2.4332,-2.4422,-2.4422,-2.4269,-2.4256,-2.4253,-2.4157,-2.3936,-2.4008,-2.4112,-2.3995,-2.3949,-2.3891,-2.3891,-2.3734,-2.3484,-2.339,-2.3463,-2.3522,-2.3569,-2.3705,-2.3953,-2.4038,-2.4157,-2.4288,-2.4419,-2.4328,-2.4223,-2.4144,-2.4144,-2.4157,-2.4157,-2.4157,-2.4112,-2.4112,-2.4157,-2.4171,-2.4217,-2.4178,-2.4178,-2.4178,-2.4191,-2.4243,-2.4321,-2.4347,-2.4398,-2.4287,-2.3846,-2.3321,-2.3251,-2.2958,-2.258,-2.2356,-2.2209,-2.2197,-2.2197,-2.2197,-2.2197,-2.2306,-2.2318,-3.8816,-3.8383,-3.7736,-3.718,-3.6716,-3.6604,-3.6127,-3.5427,-3.4938,-3.4552,-3.4303,-3.4134,-3.3558,-3.2816,-3.3414,-3.29,-3.1623,-3.175,-3.1433,-3.0726,-3.0248,-2.9827,-2.9507,-2.9367,-2.9236,-2.8726,-2.8481,-2.8381,-2.825,-2.784,-2.769,-2.769,-2.7625,-2.761,-2.756,-2.7524,-2.7524,-2.7423,-2.693,-2.6515,-2.6211,-2.5426,-2.493,-2.4709,-2.4662,-2.4394,-2.3858,-2.3659,-2.3657,-2.3831,-2.3863,-2.3761,-2.3709,-2.3709,-2.3658,-2.362,-2.3793,-2.3743,-2.3581,-2.3575,-2.351,-2.3367,-2.321,-2.321,-2.3241,-2.3223,-2.3166,-2.3,-2.3038,-2.3039,-2.3048,-2.3119,-2.3305,-2.345,-2.3509,-2.3582,-2.3688,-2.3844,-2.3949,-2.4008,-2.4067,-2.4125,-2.4125,-2.4125,-2.4125,-2.4112,-2.4112,-2.4112,-2.4112,-2.4125,-2.4099,-2.4131,-2.3995,-2.3929,-2.372,-2.3642,-2.3485,-2.3537,-2.3532,-2.3558,-2.3748,-2.3638,-2.3454,-2.3157,-2.298,-2.2689,-2.2311,-2.2077,-2.2197,-2.2197,-2.2197,-2.2149,-2.2113,-2.2015,-2.2027,-3.8669,-3.7899,-3.7721,-3.7468,-3.7195,-3.7155,-3.6229,-3.5128,-3.4426,-3.387,-3.3558,-3.3423,-3.3296,-3.322,-3.3616,-3.3338,-3.1867,-3.1934,-3.1383,-3.0667,-3.0021,-2.9415,-2.8626,-2.8905,-2.8661,-2.8058,-2.8138,-2.8071,-2.7847,-2.7534,-2.7555,-2.757,-2.755,-2.7565,-2.75,-2.7384,-2.7318,-2.7179,-2.6579,-2.5994,-2.5502,-2.4967,-2.4487,-2.4134,-2.3893,-2.3752,-2.3336,-2.3097,-2.3126,-2.3548,-2.3553,-2.3391,-2.3381,-2.3423,-2.3344,-2.3176,-2.3114,-2.3133,-2.291,-2.2683,-2.2561,-2.2463,-2.2218,-2.2047,-2.2286,-2.235,-2.224,-2.2129,-2.1924,-2.2089,-2.2286,-2.2661,-2.2993,-2.3221,-2.3428,-2.3598,-2.3819,-2.3891,-2.3891,-2.3891,-2.4067,-2.4125,-2.4125,-2.4125,-2.4125,-2.4125,-2.4125,-2.4125,-2.4125,-2.4125,-2.4118,-2.4084,-2.3909,-2.3636,-2.335,-2.305,-2.2884,-2.2753,-2.2682,-2.2743,-2.3223,-2.3219,-2.3198,-2.293,-2.2359,-2.2004,-2.1838,-2.1825,-2.1921,-2.1776,-2.1536,-2.1704,-2.1872,-2.1689,-2.1677,-3.8365,-3.8018,-3.7774,-3.7327,-3.6702,-3.6284,-3.5465,-3.4402,-3.4071,-3.3693,-3.3414,-3.3372,-3.3051,-3.257,-3.3195,-3.279,-3.1628,-3.1741,-3.1366,-3.0228,-2.9941,-2.9099,-2.8265,-2.8151,-2.7874,-2.7473,-2.6734,-2.6682,-2.6859,-2.6627,-2.6587,-2.743,-2.707,-2.7051,-2.7395,-2.6991,-2.6747,-2.6624,-2.5958,-2.5369,-2.491,-2.4261,-2.378,-2.3461,-2.3079,-2.2941,-2.2846,-2.238,-2.2035,-2.2021,-2.2152,-2.2262,-2.2101,-2.201,-2.1988,-2.1984,-2.2129,-2.2163,-2.197,-2.2088,-2.2172,-2.1985,-2.177,-2.1814,-2.1992,-2.186,-2.1763,-2.1746,-2.1746,-2.1665,-2.1769,-2.187,-2.2337,-2.2815,-2.3032,-2.3302,-2.3748,-2.3995,-2.4008,-2.4067,-2.4067,-2.4125,-2.4125,-2.4125,-2.4125,-2.4125,-2.4112,-2.4112,-2.4073,-2.4034,-2.3922,-2.3853,-2.3559,-2.3197,-2.2646,-2.2346,-2.2191,-2.1968,-2.182,-2.1684,-2.2159,-2.2247,-2.192,-2.1711,-2.1497,-2.1275,-2.1272,-2.1068,-2.108,-2.0937,-2.0866,-2.0986,-2.1069,-2.1116,-2.127,-3.8099,-3.7609,-3.7374,-3.677,-3.597,-3.558,-3.4791,-3.3821,-3.3507,-3.3043,-3.2551,-3.2696,-3.2645,-3.2324,-3.2604,-3.2293,-3.1712,-3.1398,-3.1008,-3.0264,-2.9881,-2.9246,-2.8446,-2.7736,-2.7304,-2.6965,-2.6563,-2.6374,-2.6161,-2.5933,-2.5989,-2.6572,-2.6288,-2.6273,-2.6602,-2.6318,-2.6153,-2.606,-2.5538,-2.4926,-2.4259,-2.3746,-2.3093,-2.2752,-2.24,-2.232,-2.2373,-2.2,-2.163,-2.1458,-2.1471,-2.1423,-2.1277,-2.1229,-2.118,-2.1149,-2.1272,-2.1449,-2.1365,-2.1303,-2.1302,-2.1261,-2.097,-2.0917,-2.0983,-2.0983,-2.0917,-2.0917,-2.097,-2.1046,-2.1297,-2.164,-2.2061,-2.2326,-2.2566,-2.2765,-2.3215,-2.3715,-2.4067,-2.4067,-2.4067,-2.4125,-2.4125,-2.4047,-2.4112,-2.4099,-2.406,-2.4021,-2.3602,-2.3537,-2.3493,-2.3352,-2.306,-2.2596,-2.1968,-2.1576,-2.142,-2.1186,-2.0926,-2.0716,-2.0747,-2.0628,-2.0398,-2.0557,-2.0814,-2.0782,-2.0686,-2.0483,-2.033,-2.0451,-2.044,-2.0287,-2.031,-2.0488,-2.0701,-3.7653,-3.6958,-3.6747,-3.6134,-3.5377,-3.5188,-3.4375,-3.3234,-3.2959,-3.2381,-3.1472,-3.1884,-3.2087,-3.2104,-3.2006,-3.1982,-3.1698,-3.1165,-3.0643,-3.0274,-2.981,-2.9361,-2.8777,-2.8015,-2.721,-2.6459,-2.6196,-2.6042,-2.5649,-2.5468,-2.5345,-2.5555,-2.5495,-2.563,-2.563,-2.5495,-2.5465,-2.5403,-2.5025,-2.4417,-2.371,-2.3283,-2.2776,-2.2211,-2.2085,-2.1949,-2.1938,-2.1678,-2.1471,-2.1326,-2.1242,-2.1095,-2.0997,-2.0997,-2.0997,-2.0983,-2.1,-2.0914,-2.0791,-2.0589,-2.0437,-2.0321,-2.0042,-1.9913,-2.0015,-2.0142,-2.0155,-2.0156,-2.0271,-2.0501,-2.0898,-2.1258,-2.1645,-2.1892,-2.1973,-2.2133,-2.2502,-2.3232,-2.3514,-2.3618,-2.3532,-2.3537,-2.3759,-2.3838,-2.3968,-2.406,-2.3995,-2.3825,-2.3393,-2.3014,-2.2968,-2.2732,-2.2361,-2.1888,-2.1237,-2.1004,-2.0823,-2.0656,-2.0271,-2.0051,-1.983,-1.9768,-1.9836,-2.0067,-2.0266,-2.0124,-1.9987,-1.9752,-1.9731,-1.9957,-1.9818,-1.9502,-1.9619,-1.9877,-2.0053,-3.6586,-3.6399,-3.6139,-3.5924,-3.572,-3.5272,-3.4341,-3.3366,-3.2948,-3.2244,-3.1314,-3.1343,-3.1444,-3.1393,-3.1376,-3.1257,-3.1053,-3.0773,-3.051,-3.0027,-2.9661,-2.9348,-2.8778,-2.8326,-2.7673,-2.6825,-2.5893,-2.5062,-2.4792,-2.4298,-2.4672,-2.527,-2.5046,-2.494,-2.5255,-2.5106,-2.4792,-2.4717,-2.4298,-2.3718,-2.3209,-2.2801,-2.2447,-2.1855,-2.1841,-2.1746,-2.1568,-2.1471,-2.1291,-2.1023,-2.101,-2.0947,-2.0861,-2.0898,-2.0947,-2.0861,-2.0799,-2.0686,-2.0485,-2.0233,-2.0016,-1.9901,-1.985,-1.9811,-1.9862,-1.9926,-2.0042,-2.0093,-2.0131,-2.0297,-2.0297,-2.0733,-2.0966,-2.1276,-2.143,-2.1613,-2.2042,-2.226,-2.2441,-2.2551,-2.2659,-2.2854,-2.3141,-2.3363,-2.3498,-2.3511,-2.3459,-2.3302,-2.2962,-2.2583,-2.2336,-2.2021,-2.1694,-2.1121,-2.0502,-2.0425,-2.0335,-2.0258,-2.0002,-1.9795,-1.9574,-1.9328,-1.9376,-1.9528,-1.9388,-1.9128,-1.9038,-1.9006,-1.8987,-1.9039,-1.8888,-1.8736,-1.8902,-1.9146,-1.9182,-3.6046,-3.5585,-3.5433,-3.5078,-3.4619,-3.4267,-3.3592,-3.2791,-3.2505,-3.1981,-3.1375,-3.119,-3.119,-3.1089,-3.0656,-3.0421,-3.0363,-3.0517,-3.0309,-2.9913,-2.9633,-2.908,-2.8418,-2.8124,-2.7165,-2.6138,-2.5033,-2.4612,-2.4507,-2.3954,-2.4193,-2.4687,-2.4433,-2.4448,-2.4792,-2.4433,-2.4119,-2.397,-2.3746,-2.3275,-2.2694,-2.2282,-2.1793,-2.1698,-2.152,-2.1423,-2.1326,-2.1229,-2.1109,-2.0938,-2.0924,-2.0875,-2.0875,-2.0875,-2.0911,-2.0825,-2.0699,-2.0586,-2.0435,-2.0283,-2.0131,-2.0182,-2.0029,-1.9978,-2.0016,-2.0067,-2.0144,-2.0246,-2.0296,-2.0398,-2.0524,-2.0549,-2.0755,-2.0874,-2.0875,-2.0966,-2.1159,-2.1078,-2.1183,-2.147,-2.1964,-2.2289,-2.2496,-2.2678,-2.2893,-2.2962,-2.2923,-2.2727,-2.2437,-2.2072,-2.1628,-2.125,-2.0901,-2.0578,-2.0092,-2.0067,-1.9978,-1.9875,-1.972,-1.9525,-1.9263,-1.904,-1.8827,-1.8767,-1.8541,-1.8464,-1.8391,-1.8499,-1.8328,-1.8247,-1.834,-1.8343,-1.8265,-1.8279,-1.8439,-3.5357,-3.4678,-3.4649,-3.4189,-3.3459,-3.3238,-3.2866,-3.23,-3.2161,-3.1783,-3.1291,-3.1116,-3.0976,-3.0818,-3.033,-2.9945,-2.9819,-3.027,-3.01,-2.9578,-2.9299,-2.8685,-2.7897,-2.7361,-2.6763,-2.5772,-2.5031,-2.4627,-2.4253,-2.3834,-2.3969,-2.4119,-2.379,-2.3747,-2.4104,-2.3763,-2.3509,-2.3465,-2.348,-2.3113,-2.2466,-2.1779,-2.1326,-2.1423,-2.118,-2.118,-2.118,-2.1131,-2.1046,-2.0974,-2.0974,-2.0974,-2.0938,-2.0938,-2.0924,-2.0749,-2.0749,-2.0686,-2.0636,-2.0435,-2.0283,-2.0296,-2.0144,-2.0131,-2.0131,-2.0182,-2.0347,-2.0511,-2.0562,-2.0562,-2.0662,-2.0649,-2.0675,-2.0588,-2.0386,-2.0207,-2.0361,-2.0335,-2.0257,-2.0628,-2.1298,-2.1689,-2.1856,-2.2094,-2.2348,-2.245,-2.2424,-2.2016,-2.1703,-2.1236,-2.0836,-2.036,-2.0079,-1.9976,-1.9784,-1.9733,-1.9668,-1.9617,-1.9408,-1.921,-1.8946,-1.8691,-1.853,-1.8422,-1.8367,-1.8302,-1.8139,-1.8084,-1.8139,-1.8139,-1.8084,-1.8041,-1.802,-1.7965,-1.8056,-3.4027,-3.3908,-3.3817,-3.3678,-3.3538,-3.3178,-3.2884,-3.2521,-3.2179,-3.1893,-3.1223,-3.0677,-3.0262,-3.001,-3.0019,-3.0185,-3.0232,-3.0055,-2.9517,-2.8705,-2.8522,-2.7969,-2.7257,-2.7182,-2.6536,-2.5613,-2.5262,-2.4648,-2.404,-2.367,-2.367,-2.3761,-2.3673,-2.3467,-2.3703,-2.3349,-2.2979,-2.2979,-2.2979,-2.2814,-2.2402,-2.1888,-2.165,-2.1506,-2.1375,-2.1215,-2.118,-2.1131,-2.1095,-2.0997,-2.1095,-2.1095,-2.1033,-2.1082,-2.1095,-2.0983,-2.0871,-2.0759,-2.0759,-2.0523,-2.0385,-2.0398,-2.0233,-2.0144,-2.0195,-2.0347,-2.0498,-2.0662,-2.0662,-2.0612,-2.0549,-2.0549,-2.0511,-2.041,-2.0195,-2.008,-2.0042,-1.999,-1.9862,-1.9888,-2.0589,-2.095,-2.121,-2.1484,-2.176,-2.1823,-2.1822,-2.1404,-2.1041,-2.0629,-2.0295,-1.995,-1.9656,-1.95,-1.9448,-1.946,-1.9408,-1.9316,-1.9158,-1.8946,-1.8786,-1.8583,-1.8367,-1.8313,-1.8205,-1.8205,-1.8139,-1.8084,-1.8018,-1.7975,-1.792,-1.7865,-1.7767,-1.7767,-1.7767,-3.3807,-3.3788,-3.3753,-3.3671,-3.3559,-3.3316,-3.2979,-3.2411,-3.1421,-3.0716,-3.0159,-2.9059,-2.8254,-2.7997,-2.8313,-2.8196,-2.7819,-2.8201,-2.8062,-2.758,-2.7418,-2.6978,-2.6198,-2.6073,-2.5878,-2.5009,-2.466,-2.4387,-2.3827,-2.3683,-2.3729,-2.4014,-2.3703,-2.3659,-2.3599,-2.3333,-2.3082,-2.2904,-2.2709,-2.2449,-2.2137,-2.1807,-2.1568,-2.1458,-2.1277,-2.1153,-2.1104,-2.1193,-2.1095,-2.0947,-2.0983,-2.1059,-2.0961,-2.0961,-2.101,-2.1033,-2.1019,-2.097,-2.0871,-2.0646,-2.0497,-2.0549,-2.0448,-2.0398,-2.0398,-2.0448,-2.0498,-2.0448,-2.0435,-2.0334,-2.0283,-2.0182,-2.0195,-2.0144,-2.0042,-1.999,-1.9875,-1.9772,-1.9708,-1.9759,-1.9823,-2.0218,-2.0552,-2.0772,-2.0953,-2.1017,-2.1029,-2.0758,-2.0423,-2.0128,-1.9911,-1.9693,-1.946,-1.9198,-1.9198,-1.9146,-1.9158,-1.9052,-1.9011,-1.8839,-1.8679,-1.8518,-1.8302,-1.8205,-1.8205,-1.8139,-1.8084,-1.803,-1.7975,-1.792,-1.781,-1.7645,-1.749,-1.7423,-1.7423,-3.3254,-3.322,-3.3395,-3.3405,-3.3285,-3.3074,-3.2611,-3.1927,-3.0659,-2.965,-2.8661,-2.7514,-2.6426,-2.6043,-2.664,-2.6634,-2.5675,-2.6188,-2.6112,-2.6134,-2.6045,-2.567,-2.5092,-2.4901,-2.4507,-2.3577,-2.3846,-2.3747,-2.367,-2.3679,-2.3849,-2.4298,-2.3585,-2.3541,-2.3612,-2.3211,-2.2814,-2.2586,-2.2402,-2.217,-2.1935,-2.1698,-2.152,-2.1369,-2.1108,-2.0868,-2.0855,-2.0689,-2.054,-2.0382,-2.039,-2.0465,-2.0616,-2.047,-2.0558,-2.0606,-2.0641,-2.0494,-2.0465,-2.0448,-2.0499,-2.0453,-2.0278,-1.9887,-1.992,-2.0213,-2.0293,-1.9876,-2.008,-1.9978,-1.985,-1.9862,-1.9875,-1.9875,-1.9772,-1.9823,-1.9823,-1.9668,-1.9565,-1.9565,-1.9617,-1.9656,-1.9924,-2.0041,-2.0131,-2.0207,-2.0131,-2.0029,-1.9875,-1.972,-1.9565,-1.9408,-1.9303,-1.9105,-1.904,-1.8987,-1.8946,-1.8893,-1.8851,-1.8691,-1.8572,-1.841,-1.8193,-1.8139,-1.8084,-1.7975,-1.7865,-1.792,-1.792,-1.7755,-1.7579,-1.7368,-1.7267,-1.7145,-1.7088,-3.1727,-3.1604,-3.219,-3.2383,-3.2384,-3.2026,-3.1398,-3.0677,-3.0127,-2.8778,-2.7126,-2.6241,-2.562,-2.5524,-2.5444,-2.5648,-2.5889,-2.5954,-2.5199,-2.4532,-2.4286,-2.4236,-2.386,-2.3547,-2.3378,-2.3351,-2.3357,-2.3188,-2.3024,-2.32,-2.343,-2.3581,-2.3186,-2.2965,-2.2737,-2.2469,-2.2239,-2.2072,-2.1923,-2.1815,-2.1702,-2.1622,-2.1499,-2.1322,-2.088,-2.0502,-2.0382,-2.0019,-1.968,-1.9522,-1.9595,-1.9754,-2.0019,-1.9807,-1.988,-2.0087,-1.9854,-1.9767,-1.984,-1.9832,-1.9786,-1.9584,-1.9315,-1.9043,-1.9037,-1.9547,-1.9522,-1.9346,-1.9635,-1.9773,-1.9695,-1.9708,-1.9629,-1.9668,-1.9617,-1.9668,-1.9668,-1.9552,-1.9512,-1.9473,-1.9525,-1.9617,-1.9656,-1.9823,-1.9875,-1.9978,-1.9914,-1.9862,-1.9617,-1.9408,-1.9251,-1.9146,-1.9093,-1.904,-1.904,-1.8999,-1.8999,-1.8946,-1.8839,-1.8691,-1.8476,-1.8302,-1.8073,-1.792,-1.7865,-1.7755,-1.7645,-1.759,-1.7534,-1.7468,-1.7301,-1.7145,-1.6987,-1.6874,-1.6818,-3.0176,-2.9283,-2.9436,-3.0056,-3.0899,-3.0502,-2.9855,-2.8966,-2.7759,-2.6276,-2.4719,-2.4517,-2.4235,-2.3977,-2.3838,-2.3634,-2.3408,-2.3515,-2.3208,-2.3143,-2.3079,-2.3043,-2.2817,-2.2801,-2.2791,-2.2629,-2.2667,-2.2763,-2.2576,-2.255,-2.2753,-2.2793,-2.2554,-2.2294,-2.1985,-2.1707,-2.1588,-2.1522,-2.1236,-2.0945,-2.0972,-2.0763,-2.0612,-2.0416,-2.017,-1.9771,-1.9581,-1.9421,-1.9192,-1.9002,-1.9021,-1.9179,-1.9324,-1.9087,-1.9186,-1.943,-1.9087,-1.9099,-1.9099,-1.9094,-1.8883,-1.8814,-1.8684,-1.8576,-1.8417,-1.9157,-1.9321,-1.9281,-1.9339,-1.954,-1.9291,-1.9356,-1.9368,-1.9473,-1.9512,-1.9525,-1.9512,-1.95,-1.95,-1.9525,-1.9617,-1.9708,-1.9708,-1.9708,-1.9759,-1.9811,-1.9708,-1.9656,-1.9396,-1.9214,-1.9097,-1.8919,-1.8895,-1.8806,-1.8794,-1.8931,-1.9016,-1.8862,-1.8708,-1.8437,-1.8112,-1.8116,-1.7941,-1.7788,-1.7556,-1.7313,-1.7203,-1.7157,-1.7145,-1.7123,-1.7022,-1.6864,-1.6705,-1.6602,-1.6602,-2.8555,-2.754,-2.7156,-2.7871,-2.9193,-2.8953,-2.83,-2.7353,-2.6127,-2.4515,-2.3098,-2.3327,-2.3148,-2.2698,-2.2589,-2.2316,-2.1951,-2.1908,-2.1823,-2.1879,-2.2001,-2.2093,-2.2058,-2.2043,-2.1992,-2.1827,-2.1911,-2.2031,-2.1767,-2.1693,-2.1624,-2.1654,-2.1718,-2.1498,-2.1839,-2.1161,-2.0955,-2.0891,-2.0664,-2.0207,-2.0325,-2.0213,-2.0023,-1.9789,-1.9507,-1.9199,-1.8928,-1.8693,-1.8442,-1.8354,-1.8362,-1.8506,-1.8513,-1.8513,-1.8474,-1.85,-1.8429,-1.8377,-1.8364,-1.8312,-1.7941,-1.7513,-1.8103,-1.8131,-1.8234,-1.8684,-1.918,-1.8769,-1.9037,-1.9263,-1.9052,-1.917,-1.9275,-1.9316,-1.9473,-1.9473,-1.95,-1.9488,-1.9552,-1.9565,-1.9656,-1.9668,-1.9579,-1.9567,-1.9517,-1.9554,-1.9565,-1.95,-1.9291,-1.9137,-1.9052,-1.8851,-1.869,-1.8578,-1.853,-1.8346,-1.8112,-1.7911,-1.7796,-1.7734,-1.7571,-1.7565,-1.7339,-1.688,-1.6708,-1.6667,-1.6526,-1.6299,-1.6511,-1.6775,-1.6684,-1.6591,-1.6534,-1.6488,-1.6374,-2.6912,-2.662,-2.5745,-2.6307,-2.7597,-2.7373,-2.6749,-2.594,-2.5454,-2.4436,-2.3014,-2.2832,-2.2515,-2.2248,-2.214,-2.1784,-2.1383,-2.1325,-2.1295,-2.1213,-2.1274,-2.1431,-2.1476,-2.1442,-2.1376,-2.1549,-2.1357,-2.1029,-2.0827,-2.0825,-2.0577,-2.0272,-2.0445,-2.0797,-2.2121,-2.1268,-2.0529,-2.015,-2.0156,-1.9974,-1.9956,-1.9932,-1.9679,-1.9426,-1.8981,-1.8551,-1.8355,-1.7932,-1.7728,-1.766,-1.7676,-1.7847,-1.8035,-1.7682,-1.7695,-1.7922,-1.7316,-1.7111,-1.7245,-1.7452,-1.7124,-1.6598,-1.7322,-1.7501,-1.6937,-1.7739,-1.9027,-1.8517,-1.8812,-1.9214,-1.9223,-1.9223,-1.9275,-1.9153,-1.9273,-1.915,-1.9101,-1.9015,-1.8941,-1.9078,-1.9337,-1.9485,-1.9423,-1.9374,-1.93,-1.9325,-1.9384,-1.9254,-1.9016,-1.8806,-1.8612,-1.8425,-1.8217,-1.8082,-1.7888,-1.7476,-1.7234,-1.7038,-1.697,-1.7002,-1.6746,-1.6469,-1.6184,-1.5905,-1.5816,-1.5818,-1.5532,-1.5269,-1.5624,-1.6043,-1.644,-1.642,-1.6374,-1.6363,-1.6249,-2.5671,-2.5096,-2.4706,-2.4887,-2.5393,-2.5597,-2.5159,-2.4373,-2.4056,-2.3643,-2.3133,-2.2764,-2.2236,-2.1878,-2.1652,-2.1365,-2.0847,-2.1181,-2.1135,-2.0991,-2.0846,-2.1021,-2.1034,-2.0906,-2.0824,-2.0836,-2.046,-1.9989,-1.9745,-1.9789,-1.9662,-1.942,-1.9715,-2.0189,-2.0286,-2.0009,-2.0017,-1.9874,-1.9447,-1.9044,-1.9336,-1.9114,-1.8852,-1.8686,-1.8248,-1.7973,-1.7805,-1.7416,-1.728,-1.7225,-1.7267,-1.7494,-1.7636,-1.7321,-1.7387,-1.7457,-1.6986,-1.6846,-1.6778,-1.6822,-1.6635,-1.6527,-1.6802,-1.7282,-1.7216,-1.7982,-1.8418,-1.8564,-1.88,-1.9129,-1.9328,-1.9396,-1.9362,-1.8929,-1.8769,-1.8435,-1.8263,-1.8104,-1.8055,-1.8374,-1.8607,-1.8422,-1.8286,-1.8533,-1.8558,-1.8446,-1.8471,-1.8434,-1.8262,-1.8017,-1.7859,-1.7748,-1.7565,-1.7456,-1.7264,-1.6808,-1.6616,-1.6515,-1.6443,-1.6424,-1.6063,-1.5549,-1.5429,-1.5356,-1.5122,-1.4914,-1.479,-1.4738,-1.4881,-1.5229,-1.5618,-1.5946,-1.6033,-1.6058,-1.6066,-2.4874,-2.4339,-2.4247,-2.3988,-2.3818,-2.4327,-2.415,-2.3529,-2.3247,-2.3151,-2.3042,-2.2582,-2.1996,-2.1479,-2.1033,-2.0685,-2.0023,-2.0217,-2.0335,-2.0273,-2.0178,-2.0052,-2.0067,-2.0131,-1.9925,-1.9925,-1.9653,-1.9223,-1.8842,-1.8743,-1.8731,-1.893,-1.939,-1.8953,-1.8822,-1.8934,-1.9305,-1.9003,-1.8476,-1.8531,-1.8603,-1.8492,-1.8218,-1.8044,-1.7842,-1.761,-1.7432,-1.7253,-1.7157,-1.706,-1.7157,-1.724,-1.7269,-1.7227,-1.7173,-1.7031,-1.6863,-1.6693,-1.6565,-1.6534,-1.6485,-1.6368,-1.694,-1.714,-1.737,-1.7884,-1.813,-1.8338,-1.8704,-1.8714,-1.8778,-1.8955,-1.8718,-1.8276,-1.8105,-1.7738,-1.7642,-1.7533,-1.7375,-1.7677,-1.7603,-1.735,-1.7315,-1.746,-1.7654,-1.7581,-1.7472,-1.7485,-1.7472,-1.7327,-1.7111,-1.6955,-1.6799,-1.6657,-1.6479,-1.6149,-1.6018,-1.5976,-1.5822,-1.5703,-1.517,-1.4648,-1.4708,-1.4763,-1.4407,-1.4165,-1.4216,-1.4195,-1.4222,-1.441,-1.476,-1.5149,-1.5502,-1.5548,-1.5495,-2.4422,-2.4353,-2.4192,-2.3527,-2.29,-2.3462,-2.3605,-2.3351,-2.3129,-2.2996,-2.2902,-2.2098,-2.1487,-2.1011,-2.0233,-1.9635,-1.9252,-1.9132,-1.914,-1.9019,-1.9148,-1.9007,-1.8945,-1.8915,-1.9059,-1.8951,-1.8718,-1.8356,-1.7997,-1.8121,-1.8187,-1.8084,-1.8278,-1.7772,-1.7622,-1.7977,-1.8327,-1.8023,-1.7968,-1.8062,-1.8106,-1.7995,-1.7738,-1.7579,-1.7489,-1.7263,-1.7142,-1.7059,-1.6961,-1.6946,-1.704,-1.697,-1.6941,-1.6925,-1.6714,-1.66,-1.6476,-1.6522,-1.6522,-1.6534,-1.6491,-1.6498,-1.6917,-1.6828,-1.6942,-1.7488,-1.7762,-1.7787,-1.7873,-1.7739,-1.7678,-1.7617,-1.7592,-1.7448,-1.7388,-1.7231,-1.7195,-1.7051,-1.6895,-1.6834,-1.6676,-1.6582,-1.6728,-1.6908,-1.6777,-1.6551,-1.6527,-1.6551,-1.6575,-1.6693,-1.6456,-1.6185,-1.601,-1.5812,-1.5603,-1.5533,-1.5347,-1.5317,-1.4887,-1.466,-1.418,-1.3951,-1.4,-1.3944,-1.3573,-1.3427,-1.3412,-1.339,-1.3418,-1.363,-1.3791,-1.4155,-1.4488,-1.4543,-1.4508,-2.3696,-2.3479,-2.2842,-2.2334,-2.2027,-2.2002,-2.189,-2.1768,-2.2129,-2.2118,-2.1537,-2.159,-2.0845,-1.9736,-2.02,-1.947,-1.8995,-1.8796,-1.8997,-1.8895,-1.8575,-1.8659,-1.8586,-1.8434,-1.8437,-1.8192,-1.7884,-1.7515,-1.7195,-1.7346,-1.7337,-1.7128,-1.739,-1.6872,-1.6759,-1.72,-1.7319,-1.7443,-1.7526,-1.7609,-1.7446,-1.7253,-1.7054,-1.6924,-1.6813,-1.6621,-1.6454,-1.6692,-1.6532,-1.6074,-1.6414,-1.6414,-1.5957,-1.5931,-1.5919,-1.6179,-1.6346,-1.6534,-1.6534,-1.6534,-1.6491,-1.6479,-1.6679,-1.6898,-1.7,-1.7208,-1.747,-1.7347,-1.7239,-1.7158,-1.7099,-1.7015,-1.6836,-1.667,-1.6551,-1.6421,-1.6327,-1.6127,-1.5997,-1.6112,-1.5957,-1.5913,-1.6115,-1.5986,-1.5846,-1.5602,-1.5533,-1.5661,-1.5765,-1.5939,-1.5963,-1.5637,-1.5533,-1.5395,-1.5234,-1.5154,-1.4832,-1.4567,-1.4291,-1.4057,-1.3815,-1.3645,-1.3488,-1.3276,-1.3094,-1.2852,-1.2607,-1.2632,-1.2704,-1.2469,-1.2586,-1.3086,-1.3465,-1.3474,-1.3512,-2.3257,-2.2772,-2.2168,-2.1799,-2.1516,-2.0946,-2.0624,-2.0661,-2.126,-2.1211,-2.0775,-2.061,-1.9983,-1.9171,-1.9194,-1.8755,-1.7899,-1.792,-1.8022,-1.7951,-1.8107,-1.7848,-1.777,-1.7704,-1.7506,-1.7315,-1.7106,-1.6804,-1.6503,-1.6404,-1.6416,-1.6488,-1.6768,-1.6299,-1.6083,-1.6462,-1.6968,-1.7037,-1.7092,-1.7212,-1.7037,-1.6697,-1.6464,-1.6391,-1.6248,-1.6088,-1.5941,-1.6376,-1.6178,-1.5659,-1.606,-1.6008,-1.5724,-1.5801,-1.5967,-1.6245,-1.6393,-1.6466,-1.6479,-1.6479,-1.6436,-1.6392,-1.6306,-1.6348,-1.6601,-1.6769,-1.6871,-1.6837,-1.683,-1.675,-1.6669,-1.6504,-1.6209,-1.5881,-1.5707,-1.5487,-1.5303,-1.5074,-1.52,-1.5416,-1.5405,-1.5337,-1.528,-1.512,-1.5119,-1.5222,-1.5257,-1.5291,-1.5349,-1.5395,-1.5476,-1.5326,-1.5211,-1.5154,-1.4971,-1.4777,-1.4558,-1.4291,-1.4104,-1.3821,-1.3583,-1.3344,-1.3104,-1.291,-1.2666,-1.2471,-1.2274,-1.2076,-1.2031,-1.1828,-1.1728,-1.2088,-1.2416,-1.252,-1.2574,-2.2908,-2.2163,-2.1841,-2.1415,-2.1189,-2.0242,-1.9783,-1.9772,-2.024,-2.0423,-2.0142,-1.959,-1.9166,-1.8667,-1.8384,-1.7922,-1.7444,-1.7349,-1.7267,-1.6837,-1.6987,-1.6928,-1.6788,-1.6445,-1.6604,-1.6519,-1.6378,-1.6204,-1.604,-1.5978,-1.5975,-1.5927,-1.5967,-1.5688,-1.544,-1.5819,-1.6205,-1.6423,-1.6323,-1.6354,-1.7002,-1.6838,-1.6395,-1.6582,-1.6518,-1.6397,-1.6297,-1.6384,-1.6514,-1.5995,-1.5802,-1.583,-1.5777,-1.5875,-1.6111,-1.6371,-1.6409,-1.6423,-1.6405,-1.6362,-1.6262,-1.6144,-1.5937,-1.5917,-1.6106,-1.6167,-1.6185,-1.6164,-1.6087,-1.5938,-1.5857,-1.5753,-1.5533,-1.5418,-1.528,-1.5246,-1.5234,-1.5051,-1.5074,-1.5222,-1.5153,-1.5051,-1.5017,-1.4937,-1.4834,-1.4926,-1.488,-1.488,-1.488,-1.488,-1.4971,-1.4971,-1.4926,-1.4834,-1.4731,-1.4547,-1.4316,-1.4082,-1.381,-1.3515,-1.318,-1.2949,-1.2783,-1.248,-1.2224,-1.2175,-1.1977,-1.1828,-1.1628,-1.1578,-1.1477,-1.1326,-1.1429,-1.1608,-1.1762,-2.1632,-2.1317,-2.0377,-1.9858,-1.968,-1.9309,-1.9055,-1.8886,-1.8904,-1.8958,-1.8895,-1.9078,-1.8813,-1.8103,-1.8208,-1.7888,-1.7281,-1.7108,-1.694,-1.6795,-1.6649,-1.649,-1.6371,-1.6151,-1.6026,-1.5886,-1.5787,-1.5713,-1.564,-1.5593,-1.5482,-1.5276,-1.5342,-1.5333,-1.49,-1.5305,-1.5603,-1.5879,-1.5576,-1.5643,-1.6244,-1.5865,-1.5329,-1.5289,-1.5171,-1.5474,-1.5597,-1.6139,-1.5958,-1.5543,-1.5811,-1.5629,-1.5155,-1.5345,-1.5598,-1.5856,-1.6291,-1.6299,-1.6275,-1.62,-1.61,-1.5913,-1.5736,-1.5691,-1.5659,-1.5546,-1.5468,-1.5424,-1.539,-1.5244,-1.5153,-1.5051,-1.5006,-1.5051,-1.5051,-1.5153,-1.5255,-1.5108,-1.5006,-1.496,-1.4915,-1.4834,-1.48,-1.4708,-1.4605,-1.4455,-1.4316,-1.4258,-1.4305,-1.4351,-1.4593,-1.464,-1.4558,-1.4512,-1.4455,-1.4222,-1.3941,-1.36,-1.3276,-1.2977,-1.2725,-1.251,-1.2332,-1.2036,-1.1778,-1.1778,-1.1728,-1.1528,-1.1377,-1.1326,-1.1124,-1.0964,-1.071,-1.0818,-1.1048,-2.0994,-2.0483,-1.9755,-1.9571,-1.9669,-1.9214,-1.9058,-1.9125,-1.8743,-1.8408,-1.8239,-1.8512,-1.8341,-1.7766,-1.8064,-1.8004,-1.7314,-1.7199,-1.7041,-1.6831,-1.6623,-1.6425,-1.6222,-1.597,-1.5841,-1.5697,-1.5507,-1.5403,-1.5329,-1.5313,-1.5235,-1.4992,-1.5142,-1.5124,-1.4795,-1.5087,-1.5256,-1.5483,-1.4964,-1.5082,-1.5497,-1.4948,-1.4741,-1.4601,-1.4679,-1.4835,-1.5007,-1.5498,-1.5335,-1.5107,-1.5209,-1.5511,-1.5394,-1.5643,-1.579,-1.5969,-1.6157,-1.6219,-1.6044,-1.5925,-1.5824,-1.5647,-1.5367,-1.5322,-1.5277,-1.5187,-1.5244,-1.521,-1.5345,-1.5255,-1.5255,-1.5165,-1.5244,-1.5289,-1.5289,-1.5345,-1.521,-1.5028,-1.4891,-1.4754,-1.4697,-1.4605,-1.4466,-1.4316,-1.4258,-1.4222,-1.4025,-1.3978,-1.3931,-1.3836,-1.4071,-1.4179,-1.4075,-1.4071,-1.3988,-1.3752,-1.3467,-1.3132,-1.2745,-1.2452,-1.2206,-1.2067,-1.1828,-1.1628,-1.1477,-1.1477,-1.1377,-1.1226,-1.1124,-1.1074,-1.0871,-1.0608,-1.0352,-1.0043,-1.0182,-2.0717,-1.9922,-1.963,-1.9859,-2.027,-1.9508,-1.9342,-1.9649,-1.9037,-1.8487,-1.8159,-1.8087,-1.7861,-1.7681,-1.7559,-1.7522,-1.7419,-1.7232,-1.7092,-1.6873,-1.6623,-1.6425,-1.6179,-1.5913,-1.5755,-1.5595,-1.5448,-1.5299,-1.5224,-1.5193,-1.5133,-1.5013,-1.5017,-1.511,-1.5211,-1.5189,-1.5107,-1.5162,-1.4977,-1.4933,-1.4695,-1.4352,-1.4466,-1.4597,-1.4704,-1.4602,-1.4712,-1.4883,-1.485,-1.4738,-1.4765,-1.4927,-1.5162,-1.533,-1.5509,-1.5622,-1.5679,-1.5627,-1.5548,-1.5543,-1.549,-1.5334,-1.504,-1.488,-1.488,-1.4903,-1.4949,-1.5006,-1.5142,-1.521,-1.5222,-1.5312,-1.5345,-1.5435,-1.5435,-1.5412,-1.5187,-1.4915,-1.4731,-1.4547,-1.4408,-1.4305,-1.4129,-1.3978,-1.3873,-1.3873,-1.3873,-1.3873,-1.3789,-1.3563,-1.3573,-1.3564,-1.3424,-1.3439,-1.3532,-1.3168,-1.285,-1.2647,-1.2304,-1.2017,-1.1728,-1.1578,-1.1427,-1.1326,-1.1226,-1.1108,-1.1065,-1.0972,-1.0871,-1.0769,-1.0403,-1.0087,-0.9829,-0.9562,-0.9347,-2.0232,-1.9896,-1.972,-1.9702,-1.9674,-1.9282,-1.9158,-1.9129,-1.8878,-1.8528,-1.82,-1.8027,-1.7827,-1.7526,-1.7474,-1.7378,-1.7289,-1.7183,-1.7057,-1.6905,-1.6649,-1.6452,-1.6179,-1.587,-1.5668,-1.5492,-1.5314,-1.5224,-1.5118,-1.5058,-1.4921,-1.4672,-1.4497,-1.4438,-1.427,-1.4299,-1.4339,-1.4449,-1.4401,-1.4214,-1.4271,-1.4109,-1.4188,-1.4319,-1.4472,-1.4651,-1.4937,-1.5382,-1.5417,-1.5166,-1.4574,-1.455,-1.4641,-1.4694,-1.4736,-1.4952,-1.5061,-1.5081,-1.5025,-1.5,-1.4924,-1.4756,-1.454,-1.453,-1.4563,-1.4596,-1.4642,-1.4653,-1.4767,-1.4971,-1.5028,-1.5222,-1.53,-1.5379,-1.5424,-1.5332,-1.5207,-1.479,-1.4413,-1.4239,-1.4054,-1.3899,-1.3716,-1.3552,-1.3369,-1.3311,-1.3185,-1.3175,-1.3081,-1.305,-1.3034,-1.2875,-1.2752,-1.299,-1.3137,-1.2512,-1.2117,-1.1984,-1.1738,-1.1251,-1.1004,-1.1057,-1.0956,-1.0656,-1.0646,-1.061,-1.0576,-1.0543,-1.0462,-1.0249,-0.9829,-0.9517,-0.9249,-0.8988,-0.8718]},{"header":{"parameterUnit":"m.s-1","parameterCategory":1,"la1":31.0,"la2":29.5877,"lo1":-88.7671,"lo2":-86.6584,"dy":0.0162,"dx":0.0185,"nx":115,"ny":88,"refTime":"2023-07-28T06:00:00:Z","depth":0,"parameterNumber":3,"parameterNumberName":"V-component_of_WINDS"},"data":[0.0,0.0,0.0,0.0,0.0,0.0,0.0,0.0,0.0,0.0,0.0,0.0,0.0,0.0,0.0,0.0,0.0,0.0,0.0,0.0,0.0,0.0,0.0,0.0,0.0,0.0,0.0,0.0,0.0,0.0,0.0,0.0,0.0,0.0,0.0,0.0,0.0,0.0,0.0,0.0,0.0,0.0,0.0,0.0,0.0,0.0,0.0,0.0,0.0,0.0,0.0,0.0,0.0,0.0,0.0,0.0,0.0,0.0,0.0,0.0,0.0,0.0,0.0,0.0,0.0,0.0,0.0,0.0,0.0,0.0,0.0,0.0,0.0,0.0,0.0,0.0,0.0,0.0,0.0,0.0,0.0,0.0,0.0,0.0,0.0,0.0,0.0,0.0,0.0,0.0,0.0,0.0,0.0,0.0,0.0,0.0,0.0,0.0,0.0,0.0,0.0,0.0,0.0,0.0,0.0,0.0,0.0,0.0,0.0,0.0,0.0,0.0,0.0,0.0,0.0,0.0,0.0,0.0,0.0,0.0,0.0,0.0,0.0,0.0,0.0,0.0,0.0,0.0,0.0,0.0,0.0,0.0,0.0,0.0,0.0,0.0,0.0,0.0,0.0,0.0,0.0,0.0,0.0,0.0,0.0,0.0,0.0,0.0,0.0,0.0,0.0,0.0,0.0,0.0,0.0,0.0,0.0,0.0,0.0,0.0,0.0,0.0,0.0,0.0,0.0,0.0,0.0,0.0,0.0,0.0,0.0,0.0,0.0,0.0,0.0,0.0,0.0,0.0,0.0,0.0,0.0,0.0,0.0,0.0,0.0,0.0,0.0,0.0,0.0,0.0,0.0,0.0,0.0,0.0,0.0,0.0,0.0,0.0,0.0,0.0,0.0,0.0,0.0,0.0,0.0,0.0,0.0,0.0,0.0,0.0,0.0,0.0,0.0,0.0,0.0,0.0,0.0,0.0,0.0,0.0,0.0,0.0,0.0,0.0,0.0,0.0,0.0,0.0,0.0,0.0,0.0,0.0,0.0,0.0,0.0,0.0,0.0,0.0,0.0,0.0,0.0,0.0,0.0,0.0,0.0,0.0,0.0,0.0,0.0,0.0,0.0,0.0,0.0,0.0,0.0,0.0,0.0,0.0,0.0,0.0,0.0,0.0,0.0,0.0,0.0,0.0,0.0,0.0,0.0,0.0,0.0,0.0,0.0,0.0,0.0,0.0,0.0,0.0,0.0,0.0,0.0,0.0,0.0,0.0,0.0,0.0,0.0,0.0,0.0,0.0,0.0,0.0,0.0,0.0,0.0,0.0,0.0,0.0,0.0,0.0,0.0,0.0,0.0,0.0,0.0,0.0,0.0,0.0,0.0,0.0,0.0,0.0,0.0,0.0,0.0,0.0,0.0,0.0,0.0,0.0,0.0,0.0,0.0,0.0,0.0,0.0,0.0,0.0,0.0,0.0,0.0,0.0,0.0,0.0,0.0,0.0,0.0,0.0,0.0,0.0,0.0,0.0,0.0,0.0,0.0,0.0,0.0,0.0,0.0,0.0,0.0,0.0,0.0,0.0,0.0,0.0,0.0,0.0,0.0,0.0,0.0,0.0,0.0,0.0,0.0,0.0,0.0,0.0,0.0,0.0,0.0,0.0,0.0,0.0,0.0,0.0,0.0,0.0,0.0,0.0,0.0,0.0,0.0,0.0,0.0,0.0,0.0,0.0,0.0,0.0,0.0,0.0,0.0,0.0,0.0,0.0,0.0,0.0,0.0,0.0,0.0,0.0,0.0,0.0,0.0,0.0,0.0,0.0,0.0,0.0,0.0,0.0,0.0,0.0,0.0,0.0,0.0,0.0,0.0,0.0,0.0,0.0,0.0,0.0,0.0,0.0,0.0,0.0,0.0,0.0,0.0,0.0,0.0,0.0,0.0,0.0,0.0,0.0,0.0,0.0,0.0,0.0,0.0,0.0,0.0,0.0,0.0,0.0,0.0,0.0,0.0,0.0,0.0,0.0,0.0,0.0,0.0,0.0,0.0,0.0,0.0,0.0,0.0,0.0,0.0,0.0,0.0,0.0,0.0,0.0,0.0,0.0,0.0,0.0,0.0,0.0,0.0,0.0,0.0,0.0,0.0,0.0,0.0,0.0,0.0,0.0,0.0,0.0,0.0,0.0,0.0,0.0,0.0,0.0,0.0,0.0,0.0,0.0,0.0,0.0,0.0,0.0,0.0,0.0,0.0,0.0,0.0,0.0,0.0,0.0,0.0,0.0,0.0,0.0,0.0,0.0,0.0,0.0,0.0,0.0,0.0,0.0,0.0,0.0,0.0,0.0,0.0,0.0,0.0,0.0,0.0,0.0,0.0,0.0,0.0,0.0,0.0,0.0,0.0,0.0,0.0,0.0,0.0,0.0,0.0,0.0,0.0,0.0,0.0,0.0,0.0,0.0,0.0,0.0,0.0,0.0,0.0,0.0,0.0,0.0,0.0,0.0,0.0,0.0,0.0,0.0,0.0,0.0,0.0,0.0,0.0,0.0,0.0,0.0,0.0,0.0,0.0,0.0,0.0,0.0,0.0,0.0,0.0,0.0,0.0,0.0,0.0,0.0,0.0,0.0,0.0,0.0,0.0,0.0,0.0,0.0,0.0,0.0,0.0,0.0,0.0,0.0,0.0,0.0,0.0,0.0,0.0,0.0,0.0,0.0,0.0,0.0,0.0,0.0,0.0,0.0,0.0,0.0,0.0,0.0,0.0,0.0,0.0,0.0,0.0,0.0,0.0,0.0,0.0,0.0,0.0,0.0,0.0,0.0,0.0,0.0,0.0,0.0,0.0,0.0,0.0,0.0,0.0,0.0,0.0,0.0,0.0,0.0,0.0,0.0,0.0,0.0,0.0,0.0,0.0,0.0,0.0,0.0,0.0,0.0,0.0,0.0,0.0,0.0,0.0,0.0,0.0,0.0,0.0,0.0,0.0,0.0,0.0,0.0,0.0,0.0,0.0,0.0,0.0,0.0,0.0,0.0,0.0,0.0,0.0,0.0,0.0,0.0,0.0,0.0,0.0,0.0,0.0,0.0,0.0,0.0,0.0,0.0,0.0,0.0,0.0,0.0,0.0,0.0,0.0,0.0,0.0,0.0,0.0,0.0,0.0,0.0,0.0,0.0,0.0,0.0,0.0,0.0,0.0,0.0,0.0,0.0,0.0,0.0,0.0,0.0,0.0,0.0,0.0,0.0,0.0,0.0,0.0,0.0,0.0,0.0,0.0,0.0,0.0,0.0,0.0,0.0,0.0,0.0,0.0,0.0,0.0,0.0,0.0,0.0,0.0,0.0,0.0,0.0,0.0,0.0,0.0,0.0,0.0,0.0,0.0,0.0,0.0,0.0,0.0,0.0,0.0,0.0,0.0,0.0,0.0,0.0,0.0,0.0,0.0,0.0,0.0,0.0,0.0,0.0,0.0,0.0,0.0,0.0,0.0,0.0,0.0,0.0,0.0,0.0,0.0,0.0,0.0,0.0,0.0,0.0,0.0,0.0,0.0,0.0,0.0,0.0,0.0,0.0,0.0,0.0,0.0,0.0,0.0,0.0,0.0,0.0,0.0,0.0,0.0,0.0,0.0,0.0,0.0,0.0,0.0,0.0,0.0,0.0,0.0,0.0,0.0,0.0,0.0,0.0,0.0,0.0,0.0,0.0,0.0,0.0,0.0,0.0,0.0,0.0,0.0,0.0,0.0,0.0,0.0,0.0,0.0,0.0,0.0,0.0,0.0,0.0,0.0,0.0,0.0,0.0,0.0,0.0,0.0,0.0,0.0,0.0,0.0,0.0,0.0,0.0,0.0,0.0,0.0,0.0,0.0,0.0,0.0,0.0,0.0,0.0,0.0,0.0,0.0,0.0,0.0,0.0,0.0,0.0,0.0,0.0,0.0,0.0,0.0,0.0,0.0,0.0,0.0,0.0,0.0,0.0,0.0,0.0,0.0,0.0,0.0,0.0,0.0,0.0,0.0,0.0,0.0,0.0,0.0,0.0,0.0,0.0,0.0,0.0,0.0,0.0,0.0,0.0,0.0,0.0,0.0,0.0,0.0,0.0,0.0,0.0,0.0,0.0,0.0,0.0,0.0,0.0,0.0,0.0,0.0,0.0,0.0,0.0,0.0,0.0,0.0,0.0,0.0,0.0,0.0,0.0,0.0,0.0,0.0,0.0,0.0,0.0,0.0,0.0,0.0,0.0,0.0,0.0,0.0,0.0,0.0,0.0,0.0,0.0,0.0,0.0,-0.4505,0.0,0.0,0.0,0.0,0.0,0.0,0.0,0.0,0.0,0.0,0.0,0.0,0.0,0.0,0.0,0.0,0.0,0.0,0.0,0.0,0.0,0.0,0.0,0.0,0.0,0.0,0.0,0.0,0.0,0.0,0.0,0.0,0.0,0.0,0.0,0.0,0.0,0.0,0.0,0.0,0.0,0.0,0.0,0.0,0.0,0.0,0.0,0.0,0.0,0.0,0.0,0.0,0.0,0.0,0.0,0.0,0.0,0.0,0.0,0.0,0.0,0.0,0.0,0.0,0.0,0.0,0.0,0.0,0.0,0.0,0.0,0.0,0.0,0.0,0.0,0.0,0.0,0.0,0.0,0.0,0.0,0.0,0.0,0.0,0.0,0.0,0.0,0.0,0.0,0.0,0.0,0.0,0.0,0.0,0.0,0.0,0.0,0.0,0.0,0.0,0.0,0.0,0.0,0.0,0.0,0.0,0.0,0.0,0.0,0.0,-0.387,-0.3773,-0.4363,-0.4672,-0.4638,0.0,0.0,0.0,0.0,0.0,0.0,0.0,0.0,0.0,0.0,0.0,0.0,0.0,0.0,0.0,0.0,0.0,0.0,0.0,0.0,0.0,0.0,0.0,0.0,0.0,0.0,0.0,0.0,0.0,0.0,0.0,0.0,0.0,0.0,0.0,0.0,0.0,0.0,0.0,0.0,0.0,0.0,0.0,0.0,0.0,0.0,0.0,0.0,0.0,0.0,0.0,0.0,0.0,0.0,0.0,0.0,0.0,0.0,0.0,0.0,0.0,0.0,0.0,0.0,0.0,0.0,0.0,0.0,0.0,0.0,0.0,0.0,0.0,0.0,0.0,0.0,0.0,0.0,0.0,0.0,0.0,0.0,0.0,0.0,0.0,0.0,0.0,0.0,0.0,0.0,0.0,0.0,0.0,0.0,0.0,0.0,0.0,0.0,0.0,0.0,0.0,0.0,0.0,0.0,0.0,0.0,0.0,0.0,0.0,0.0,0.0,0.0,-0.4426,-0.4931,-0.5176,0.0,0.0,0.0,0.0,0.0,0.0,0.0,0.0,0.0,0.0,0.0,0.0,0.0,0.0,0.0,0.0,0.0,0.0,0.0,0.0,0.0,0.0,0.0,0.0,0.0,0.0,0.0,0.0,0.0,0.0,0.0,0.0,0.0,0.0,0.0,0.0,0.0,0.0,0.0,0.0,0.0,0.0,0.0,0.0,0.0,0.0,0.0,0.0,0.0,0.0,0.0,0.0,0.0,0.0,0.0,0.0,0.0,0.0,0.0,0.0,0.0,0.0,0.0,0.0,0.0,0.0,0.0,0.0,0.0,0.0,0.0,0.0,0.0,0.0,0.0,0.0,0.0,0.0,0.0,0.0,0.0,0.0,0.0,0.0,0.0,0.0,0.0,0.0,0.0,0.0,0.0,0.0,0.0,0.0,0.0,0.0,0.0,0.0,0.0,0.0,0.0,0.0,0.0,0.0,0.0,0.0,0.0,0.0,0.0,0.0,-0.4152,-0.4594,-0.5186,0.0,-0.6494,0.0,0.0,0.0,0.0,0.0,0.0,0.0,0.0,0.0,0.0,0.0,0.0,0.0,0.0,0.0,0.0,0.0,0.0,0.0,0.0,0.0,0.0,0.0,0.0,0.0,0.0,0.0,0.0,0.0,0.0,0.0,0.0,0.0,0.0,0.0,0.0,0.0,0.0,0.0,0.0,0.0,0.0,0.0,0.0,0.0,0.0,0.0,0.0,0.0,0.0,0.0,0.0,0.0,0.0,0.0,0.0,0.0,0.0,0.0,0.0,0.0,0.0,0.0,0.0,0.0,0.0,0.0,0.0,0.0,0.0,0.0,0.0,0.0,0.0,0.0,0.0,0.0,0.0,0.0,0.0,0.0,0.0,0.0,0.0,0.0,0.0,0.0,0.0,0.0,0.0,0.0,0.0,0.0,0.0,0.0,0.0,0.0,0.0,0.0,0.0,0.0,0.0,0.0,0.0,0.0,0.0,0.0,0.0,0.0,0.0,-0.4187,-0.4574,-0.5234,-0.5905,0.0,0.0,0.0,0.0,0.0,0.0,0.0,0.0,0.0,0.0,0.0,0.0,0.0,0.0,0.0,0.0,0.0,0.0,0.0,0.0,0.0,0.0,0.0,0.0,0.0,0.0,0.0,0.0,0.0,0.0,0.0,0.0,0.0,0.0,0.0,0.0,0.0,0.0,0.0,0.0,0.0,0.0,0.0,0.0,0.0,0.0,0.0,0.0,0.0,0.0,0.0,0.0,0.0,0.0,0.0,0.0,0.0,0.0,0.0,0.0,0.0,0.0,0.0,0.0,0.0,0.0,0.0,0.0,0.0,0.0,0.0,0.0,0.0,0.0,0.0,0.0,0.0,0.0,0.0,0.0,0.0,0.0,0.0,0.0,0.0,0.0,0.0,0.0,0.0,0.0,0.0,0.0,0.0,0.0,0.0,0.0,0.0,0.0,0.0,0.0,0.0,0.0,0.0,0.0,0.0,0.0,0.0,0.0,0.0,0.0,-0.4113,-0.4415,-0.4922,-0.5441,-0.6069,-0.6717,0.0,0.0,0.0,0.0,0.0,0.0,0.0,0.0,0.0,0.0,0.0,0.0,0.0,0.0,0.0,0.0,0.0,0.0,0.0,0.0,0.0,0.0,0.0,0.0,0.0,0.0,0.0,0.0,0.0,0.0,0.0,0.0,0.0,0.0,0.0,0.0,0.0,0.0,0.0,0.0,0.0,0.0,0.0,0.0,0.0,0.0,0.0,0.0,0.0,0.0,0.0,0.0,0.0,0.0,0.0,0.0,0.0,0.0,0.0,0.0,0.0,0.0,0.0,0.0,0.0,0.0,0.0,0.0,0.0,0.0,0.0,0.0,0.0,0.0,0.0,0.0,0.0,0.0,0.0,0.0,0.0,0.0,0.0,0.0,0.0,0.0,0.0,0.0,0.0,0.0,0.0,0.0,0.0,0.0,0.0,0.0,0.0,0.0,0.0,0.0,0.0,0.0,0.0,0.0,0.0,0.0,0.0,0.0,-0.4222,-0.4521,-0.5069,-0.5959,-0.6043,-0.6459,0.0,0.0,0.0,0.0,0.0,0.0,0.0,0.0,0.0,0.0,0.0,0.0,0.0,0.0,0.0,0.0,0.0,0.0,0.0,0.0,0.0,0.0,0.0,0.0,0.0,0.0,0.0,0.0,0.0,0.0,0.0,0.0,0.0,0.0,0.0,0.0,0.0,0.0,0.0,0.0,0.0,0.0,0.0,0.0,0.0,0.0,0.0,0.0,0.0,0.0,0.0,0.0,0.0,0.0,0.0,0.0,0.0,0.0,0.0,0.0,0.0,0.0,0.0,0.0,0.0,0.0,0.0,0.0,0.0,0.0,0.0,0.0,0.0,0.0,0.0,0.0,0.0,0.0,0.0,0.0,0.0,0.0,0.0,0.0,0.0,0.0,0.0,0.0,0.0,0.0,0.0,0.0,0.0,0.0,0.0,0.0,0.0,0.0,0.0,0.0,0.0,0.0,0.0,0.0,0.0,0.0,0.0,0.0,0.0,-0.4237,-0.4702,-0.5211,-0.5755,-0.6117,-0.6676,0.0,0.0,0.0,0.0,0.0,0.0,0.0,0.0,0.0,0.0,0.0,0.0,0.0,0.0,0.0,0.0,0.0,0.0,0.0,0.0,0.0,0.0,0.0,0.0,0.0,0.0,0.0,0.0,0.0,0.0,0.0,0.0,0.0,0.0,0.0,0.0,0.0,0.0,0.0,0.0,0.0,0.0,0.0,0.0,0.0,0.0,0.0,0.0,0.0,0.0,0.0,0.0,0.0,0.0,0.0,0.0,0.0,0.0,0.0,0.0,0.0,0.0,0.0,0.0,0.0,0.0,0.0,0.0,0.0,0.0,0.0,0.0,0.0,0.0,0.0,0.0,0.0,0.0,0.0,0.0,0.0,0.0,0.0,0.0,0.0,0.0,0.0,0.0,0.0,0.0,0.0,0.0,0.0,0.0,0.0,0.0,0.0,0.0,0.0,0.0,0.0,0.0,0.0,0.0,0.0,0.0,0.0,0.0,0.0,-0.4489,0.0,-0.5492,-0.5821,-0.627,-0.6768,0.0,0.0,0.0,0.0,0.0,0.0,0.0,0.0,0.0,0.0,0.0,0.0,0.0,0.0,0.0,0.0,0.0,0.0,0.0,0.0,0.0,0.0,0.0,0.0,0.0,0.0,0.0,0.0,0.0,0.0,0.0,0.0,0.0,0.0,0.0,0.0,0.0,0.0,0.0,0.0,0.0,0.0,0.0,0.0,0.0,0.0,0.0,0.0,0.0,0.0,0.0,0.0,0.0,0.0,0.0,0.0,0.0,0.0,0.0,0.0,0.0,0.0,0.0,0.0,0.0,0.0,0.0,0.0,0.0,0.0,0.0,0.0,0.0,0.0,0.0,0.0,0.0,0.0,0.0,0.0,0.0,0.0,0.0,0.0,0.0,0.0,0.0,0.0,0.0,0.0,0.0,0.0,0.0,0.0,0.0,0.0,0.0,0.0,0.0,0.0,0.0,0.0,0.0,0.0,0.0,0.0,0.0,0.0,-0.4563,-0.5014,-0.5496,-0.5983,-0.6413,-0.6564,-0.697,0.0,0.0,0.0,0.0,0.0,0.0,0.0,0.0,0.0,0.0,0.0,0.0,0.0,0.0,0.0,0.0,0.0,0.0,0.0,0.0,0.0,0.0,0.0,0.0,0.0,0.0,0.0,0.0,0.0,0.0,0.0,0.0,0.0,0.0,0.0,0.0,0.0,0.0,0.0,0.0,0.0,0.0,0.0,0.0,0.0,0.0,0.0,0.0,0.0,0.0,0.0,0.0,0.0,0.0,0.0,0.0,0.0,0.0,0.0,0.0,0.0,0.0,0.0,0.0,0.0,0.0,0.0,0.0,0.0,0.0,0.0,0.0,0.0,0.0,0.0,0.0,0.0,0.0,0.0,0.0,0.0,0.0,0.0,0.0,0.0,0.0,0.0,0.0,0.0,0.0,0.0,0.0,0.0,0.0,0.0,0.0,0.0,0.0,0.0,0.0,0.0,0.0,0.0,0.0,0.0,0.0,0.0,0.0,0.0,-0.4862,-0.5614,-0.6259,-0.6744,-0.7302,-0.7905,0.0,0.0,0.0,0.0,0.0,0.0,0.0,0.0,0.0,0.0,0.0,0.0,0.0,0.0,0.0,0.0,0.0,0.0,0.0,0.0,0.0,0.0,0.0,0.0,0.0,0.0,0.0,0.0,0.0,0.0,0.0,0.0,0.0,0.0,0.0,0.0,0.0,0.0,0.0,0.0,0.0,0.0,0.0,0.0,0.0,0.0,0.0,0.0,0.0,0.0,0.0,0.0,0.0,0.0,0.0,0.0,0.0,0.0,0.0,0.0,0.0,0.0,0.0,0.0,0.0,0.0,0.0,0.0,0.0,0.0,0.0,0.0,0.0,0.0,0.0,0.0,0.0,0.0,0.0,0.0,0.0,0.0,0.0,0.0,0.0,0.0,0.0,0.0,0.0,0.0,0.0,0.0,0.0,0.0,0.0,0.0,0.0,0.0,0.0,0.0,0.0,0.0,0.0,0.0,0.0,0.0,0.0,0.0,0.0,-0.595,-0.6455,-0.6939,-0.7532,-0.8076,-0.8639,-0.9175,0.0,0.0,0.0,0.0,0.0,0.0,0.0,0.0,0.0,0.0,0.0,0.0,0.0,0.0,0.0,0.0,0.0,0.0,0.0,0.0,0.0,0.0,0.0,0.0,0.0,0.0,0.0,0.0,0.0,0.0,0.0,0.0,0.0,0.0,0.0,0.0,0.0,0.0,0.0,0.0,0.0,0.0,0.0,0.0,0.0,0.0,0.0,0.0,0.0,0.0,0.0,0.0,0.0,0.0,0.0,0.0,0.0,0.0,0.0,0.0,0.0,0.0,0.0,0.0,0.0,0.0,0.0,0.0,0.0,0.0,0.0,0.0,0.0,0.0,0.0,0.0,0.0,0.0,0.0,0.0,0.0,0.0,0.0,0.0,0.0,0.0,0.0,0.0,0.0,0.0,0.0,0.0,0.0,0.0,0.0,0.0,0.0,0.0,0.0,0.0,0.0,0.0,0.0,0.0,0.0,0.0,0.0,0.0,-0.7836,-0.7897,-0.8261,-0.8841,-0.9041,-0.9277,0.0,0.0,0.0,0.0,0.0,0.0,0.0,0.0,0.0,0.0,0.0,0.0,0.0,0.0,0.0,0.0,0.0,0.0,0.0,0.0,0.0,0.0,0.0,0.0,0.0,0.0,0.0,0.0,0.0,0.0,0.0,0.0,0.0,0.0,0.0,0.0,0.0,0.0,0.0,0.0,0.0,0.0,0.0,0.0,0.0,0.0,0.0,0.0,0.0,0.0,0.0,0.0,0.0,0.0,0.0,0.0,0.0,0.0,0.0,0.0,0.0,0.0,0.0,0.0,0.0,0.0,0.0,0.0,0.0,0.0,0.0,0.0,0.0,0.0,0.0,0.0,0.0,0.0,0.0,0.0,0.0,0.0,0.0,0.0,0.0,0.0,0.0,0.0,0.0,0.0,0.0,0.0,0.0,0.0,0.0,0.0,0.0,0.0,0.0,0.0,0.0,0.0,0.0,0.0,0.0,0.0,0.0,0.0,0.0,-0.9079,-1.0285,-1.0749,-1.0414,-1.068,-1.1014,0.0,0.0,0.0,0.0,0.0,0.0,0.0,0.0,0.0,0.0,0.0,0.0,0.0,0.0,0.0,0.0,0.0,0.0,0.0,0.0,0.0,0.0,0.0,0.0,0.0,0.0,0.0,0.0,0.0,0.0,0.0,0.0,0.0,0.0,0.0,0.0,0.0,0.0,0.0,0.0,0.0,0.0,0.0,0.0,0.0,0.0,0.0,0.0,0.0,0.0,0.0,0.0,0.0,0.0,0.0,0.0,0.0,0.0,0.0,0.0,0.0,0.0,0.0,0.0,0.0,0.0,0.0,0.0,0.0,0.0,0.0,0.0,0.0,0.0,0.0,0.0,0.0,0.0,0.0,0.0,0.0,0.0,0.0,0.0,0.0,0.0,0.0,0.0,0.0,0.0,0.0,0.0,0.0,0.0,0.0,0.0,0.0,0.0,0.0,0.0,0.0,0.0,0.0,0.0,0.0,0.0,0.0,0.0,-0.9708,-1.0219,-1.2204,-1.3111,-1.2883,-1.2541,-1.2403,0.0,0.0,0.0,0.0,0.0,0.0,0.0,0.0,0.0,0.0,0.0,0.0,0.0,0.0,0.0,0.0,0.0,0.0,0.0,0.0,0.0,0.0,0.0,0.0,0.0,0.0,0.0,0.0,0.0,0.0,0.0,0.0,0.0,0.0,0.0,0.0,0.0,0.0,0.0,0.0,0.0,0.0,0.0,0.0,0.0,0.0,0.0,0.0,0.0,0.0,0.0,0.0,0.0,0.0,0.0,0.0,0.0,0.0,0.0,0.0,0.0,0.0,0.0,0.0,0.0,0.0,0.0,0.0,0.0,0.0,0.0,0.0,0.0,0.0,0.0,0.0,0.0,0.0,0.0,0.0,0.0,0.0,0.0,0.0,0.0,0.0,0.0,0.0,0.0,0.0,0.0,0.0,0.0,0.0,0.0,0.0,0.0,0.0,0.0,0.0,0.0,0.0,0.0,0.0,0.0,0.0,0.0,0.0,-1.0966,-1.1212,-1.3464,-1.4972,-1.5433,-1.4467,-1.3779,0.0,0.0,0.0,0.0,0.0,0.0,0.0,0.0,0.0,0.0,0.0,0.0,0.0,0.0,0.0,0.0,0.0,0.0,0.0,0.0,0.0,0.0,0.0,0.0,0.0,0.0,0.0,0.0,0.0,0.0,0.0,0.0,0.0,0.0,0.0,0.0,0.0,0.0,0.0,0.0,0.0,0.0,0.0,0.0,0.0,0.0,0.0,0.0,0.0,0.0,0.0,0.0,0.0,0.0,0.0,0.0,0.0,0.0,0.0,0.0,0.0,0.0,0.0,0.0,0.0,0.0,0.0,0.0,0.0,0.0,0.0,0.0,0.0,0.0,0.0,0.0,0.0,0.0,0.0,0.0,0.0,0.0,0.0,0.0,0.0,0.0,0.0,0.0,0.0,0.0,0.0,0.0,0.0,0.0,0.0,0.0,0.0,0.0,0.0,0.0,0.0,0.0,0.0,0.0,0.0,0.0,0.0,0.0,-1.1522,-1.2422,-1.4162,-1.5287,-1.5688,-1.5143,-1.5054,0.0,0.0,0.0,0.0,0.0,0.0,0.0,0.0,0.0,0.0,0.0,0.0,0.0,0.0,0.0,0.0,0.0,0.0,0.0,0.0,0.0,0.0,0.0,0.0,0.0,0.0,0.0,0.0,0.0,0.0,0.0,0.0,0.0,0.0,0.0,0.0,0.0,0.0,0.0,0.0,0.0,0.0,0.0,0.0,0.0,0.0,0.0,0.0,-1.7871,0.0,0.0,0.0,0.0,0.0,0.0,0.0,0.0,0.0,0.0,0.0,0.0,0.0,0.0,0.0,0.0,0.0,0.0,0.0,0.0,0.0,0.0,0.0,0.0,0.0,0.0,0.0,0.0,0.0,0.0,0.0,0.0,0.0,0.0,0.0,0.0,0.0,0.0,0.0,0.0,0.0,0.0,0.0,0.0,0.0,0.0,0.0,0.0,0.0,0.0,0.0,0.0,0.0,0.0,0.0,0.0,0.0,0.0,0.0,-1.2078,-1.2838,-1.432,-1.5534,-1.6467,-1.6402,-1.6577,0.0,0.0,0.0,0.0,0.0,0.0,0.0,0.0,0.0,0.0,0.0,0.0,0.0,0.0,0.0,0.0,0.0,0.0,0.0,0.0,0.0,0.0,0.0,0.0,0.0,0.0,0.0,0.0,0.0,0.0,0.0,0.0,0.0,0.0,0.0,0.0,0.0,0.0,0.0,0.0,0.0,0.0,0.0,0.0,0.0,0.0,0.0,0.0,0.0,0.0,0.0,0.0,0.0,0.0,0.0,0.0,0.0,0.0,0.0,0.0,0.0,0.0,0.0,0.0,0.0,0.0,0.0,0.0,0.0,0.0,0.0,0.0,0.0,0.0,0.0,0.0,0.0,0.0,0.0,0.0,0.0,0.0,0.0,0.0,0.0,0.0,0.0,0.0,0.0,0.0,0.0,0.0,0.0,0.0,0.0,0.0,0.0,0.0,0.0,0.0,0.0,0.0,0.0,0.0,0.0,0.0,0.0,-1.2031,-1.2824,-1.3105,-1.4542,-1.5966,-1.7386,-1.7801,-1.7959,-1.7749,0.0,0.0,0.0,0.0,0.0,0.0,0.0,0.0,0.0,0.0,0.0,0.0,0.0,0.0,0.0,0.0,0.0,0.0,0.0,0.0,0.0,0.0,0.0,0.0,0.0,0.0,0.0,0.0,0.0,0.0,0.0,0.0,0.0,0.0,0.0,0.0,0.0,0.0,-1.5566,-1.5265,0.0,0.0,0.0,0.0,0.0,0.0,0.0,0.0,-1.945,0.0,0.0,0.0,0.0,0.0,0.0,0.0,0.0,0.0,0.0,0.0,0.0,0.0,0.0,0.0,0.0,0.0,0.0,0.0,0.0,0.0,0.0,0.0,0.0,0.0,0.0,0.0,0.0,0.0,0.0,0.0,0.0,0.0,0.0,0.0,0.0,0.0,0.0,0.0,0.0,0.0,0.0,0.0,0.0,0.0,0.0,0.0,0.0,0.0,0.0,0.0,0.0,0.0,0.0,0.0,0.0,-1.2202,-1.3363,-1.4028,-1.4416,-1.5625,-1.6673,-1.7287,-1.8239,-1.8962,-1.9271,0.0,0.0,0.0,0.0,0.0,0.0,0.0,0.0,0.0,0.0,0.0,0.0,0.0,0.0,0.0,0.0,0.0,0.0,0.0,0.0,0.0,0.0,0.0,0.0,0.0,0.0,0.0,0.0,0.0,0.0,0.0,0.0,0.0,0.0,0.0,0.0,0.0,0.0,0.0,-1.5991,-1.6237,0.0,0.0,0.0,0.0,0.0,0.0,0.0,0.0,-1.8985,0.0,0.0,0.0,0.0,0.0,0.0,0.0,0.0,0.0,0.0,0.0,0.0,0.0,0.0,0.0,0.0,0.0,0.0,0.0,0.0,0.0,0.0,0.0,0.0,0.0,0.0,0.0,0.0,0.0,0.0,0.0,0.0,0.0,0.0,0.0,0.0,0.0,0.0,0.0,0.0,0.0,0.0,0.0,0.0,0.0,0.0,0.0,0.0,0.0,0.0,0.0,0.0,0.0,0.0,0.0,-1.3252,-1.4065,-1.4791,-1.5216,-1.6272,-1.722,-1.8097,-1.88,-1.936,0.0,0.0,0.0,0.0,0.0,0.0,0.0,0.0,0.0,0.0,0.0,0.0,0.0,0.0,0.0,0.0,0.0,0.0,0.0,0.0,0.0,0.0,0.0,0.0,0.0,0.0,0.0,0.0,0.0,0.0,0.0,0.0,0.0,0.0,0.0,0.0,0.0,0.0,0.0,0.0,-1.6862,-1.7016,-1.7948,0.0,0.0,0.0,0.0,0.0,0.0,-2.1005,-2.0996,0.0,0.0,0.0,0.0,0.0,0.0,0.0,0.0,0.0,0.0,0.0,0.0,0.0,0.0,0.0,0.0,0.0,0.0,0.0,0.0,0.0,0.0,0.0,0.0,0.0,0.0,0.0,0.0,0.0,0.0,0.0,0.0,0.0,0.0,0.0,0.0,0.0,0.0,0.0,0.0,0.0,0.0,0.0,0.0,0.0,0.0,0.0,0.0,0.0,0.0,0.0,0.0,0.0,0.0,0.0,-1.4356,-1.5023,-1.5639,-1.6091,-1.6901,-1.777,-1.888,-1.9215,-1.9471,0.0,0.0,0.0,0.0,0.0,0.0,0.0,0.0,0.0,0.0,0.0,0.0,0.0,0.0,0.0,0.0,0.0,0.0,0.0,0.0,0.0,0.0,0.0,0.0,0.0,0.0,0.0,0.0,0.0,0.0,0.0,0.0,0.0,0.0,0.0,0.0,0.0,0.0,0.0,0.0,0.0,-1.8119,-1.9371,-1.9861,0.0,0.0,0.0,0.0,-2.2631,-2.314,0.0,0.0,0.0,0.0,0.0,0.0,0.0,0.0,0.0,0.0,0.0,0.0,0.0,0.0,0.0,0.0,0.0,0.0,0.0,0.0,0.0,0.0,0.0,0.0,0.0,0.0,0.0,0.0,0.0,0.0,0.0,0.0,0.0,0.0,0.0,0.0,0.0,0.0,0.0,0.0,0.0,0.0,0.0,0.0,0.0,0.0,0.0,0.0,0.0,0.0,0.0,0.0,0.0,0.0,0.0,0.0,-1.5988,-1.6705,-1.719,-1.7509,-1.8241,-1.8819,-1.943,-1.9238,-1.9356,0.0,0.0,0.0,0.0,0.0,0.0,0.0,0.0,0.0,0.0,0.0,0.0,0.0,0.0,0.0,0.0,0.0,0.0,0.0,0.0,0.0,0.0,0.0,0.0,0.0,0.0,0.0,0.0,0.0,0.0,0.0,0.0,0.0,0.0,0.0,0.0,0.0,0.0,0.0,0.0,0.0,-1.9911,-2.0315,-2.1786,-2.2867,0.0,0.0,-2.4016,-2.4219,-2.4917,0.0,0.0,0.0,0.0,0.0,0.0,0.0,0.0,0.0,0.0,0.0,0.0,0.0,0.0,0.0,0.0,0.0,0.0,0.0,0.0,0.0,0.0,0.0,0.0,0.0,0.0,0.0,0.0,0.0,0.0,0.0,0.0,0.0,0.0,0.0,0.0,0.0,0.0,0.0,0.0,0.0,0.0,0.0,0.0,0.0,0.0,0.0,0.0,0.0,0.0,0.0,0.0,0.0,0.0,0.0,-1.6239,-1.6678,-1.7403,-1.8025,-1.8411,-1.9082,-1.9554,-1.9911,-1.9817,-1.9644,0.0,0.0,0.0,0.0,0.0,0.0,0.0,0.0,0.0,0.0,0.0,0.0,0.0,0.0,0.0,0.0,0.0,0.0,0.0,0.0,0.0,0.0,0.0,0.0,0.0,0.0,0.0,0.0,0.0,0.0,0.0,0.0,0.0,0.0,0.0,0.0,0.0,0.0,0.0,0.0,0.0,0.0,-2.2132,-2.3475,0.0,0.0,0.0,-2.5902,-2.637,0.0,0.0,0.0,0.0,0.0,0.0,0.0,0.0,0.0,0.0,0.0,0.0,0.0,0.0,0.0,0.0,0.0,0.0,0.0,0.0,0.0,0.0,0.0,0.0,0.0,0.0,0.0,0.0,0.0,0.0,0.0,0.0,0.0,0.0,0.0,0.0,0.0,0.0,0.0,0.0,0.0,0.0,0.0,0.0,0.0,0.0,0.0,0.0,0.0,0.0,0.0,0.0,0.0,0.0,0.0,0.0,0.0,-1.7384,-1.8054,-1.8783,-1.9499,-1.9957,-2.024,-2.0407,-2.0294,0.0,0.0,0.0,0.0,0.0,0.0,0.0,0.0,0.0,0.0,0.0,0.0,0.0,0.0,0.0,0.0,0.0,0.0,0.0,0.0,0.0,0.0,0.0,0.0,0.0,0.0,0.0,-1.7189,0.0,0.0,0.0,0.0,0.0,0.0,0.0,0.0,0.0,0.0,0.0,0.0,0.0,0.0,-2.2303,-2.3768,-2.5208,-2.6452,0.0,0.0,-2.7621,-2.7945,-2.8105,-2.7903,0.0,0.0,0.0,0.0,0.0,0.0,0.0,0.0,0.0,0.0,0.0,0.0,0.0,0.0,0.0,0.0,0.0,0.0,0.0,0.0,0.0,0.0,0.0,0.0,0.0,0.0,0.0,0.0,0.0,0.0,0.0,0.0,0.0,0.0,0.0,0.0,0.0,0.0,0.0,0.0,0.0,0.0,0.0,0.0,0.0,0.0,0.0,0.0,0.0,0.0,0.0,0.0,0.0,0.0,0.0,-1.8576,-1.8944,-1.9687,-2.0836,-2.0889,-2.0918,-2.0736,-2.0418,-2.0228,0.0,0.0,0.0,0.0,0.0,0.0,0.0,0.0,0.0,0.0,0.0,0.0,0.0,0.0,0.0,0.0,0.0,0.0,0.0,0.0,0.0,0.0,0.0,0.0,0.0,0.0,0.0,0.0,0.0,0.0,0.0,0.0,0.0,0.0,0.0,0.0,0.0,0.0,0.0,0.0,0.0,-2.4354,-2.4818,-2.7051,-2.8564,0.0,0.0,-2.8817,-2.8059,-2.9469,-2.9676,-2.6998,0.0,0.0,0.0,0.0,0.0,0.0,0.0,0.0,0.0,0.0,0.0,0.0,0.0,0.0,0.0,0.0,0.0,0.0,0.0,0.0,0.0,0.0,0.0,0.0,0.0,0.0,0.0,0.0,0.0,0.0,0.0,0.0,0.0,0.0,0.0,0.0,0.0,0.0,0.0,0.0,0.0,0.0,0.0,0.0,0.0,0.0,0.0,0.0,0.0,0.0,0.0,0.0,0.0,-1.7397,-1.8857,-1.9318,-2.0148,-2.1248,-2.1615,-2.1766,-2.1549,-2.1745,-2.1516,0.0,0.0,0.0,0.0,0.0,0.0,0.0,0.0,0.0,0.0,0.0,0.0,0.0,0.0,0.0,0.0,0.0,0.0,0.0,0.0,0.0,0.0,0.0,0.0,0.0,0.0,0.0,0.0,-1.8884,-1.9163,-1.9728,0.0,0.0,0.0,0.0,0.0,0.0,0.0,0.0,0.0,0.0,-2.5322,-2.6182,-2.831,0.0,0.0,-3.0157,-3.0177,-3.0022,-2.9759,-2.922,-2.8188,-2.7599,0.0,0.0,0.0,0.0,0.0,0.0,0.0,0.0,0.0,0.0,0.0,0.0,0.0,0.0,0.0,0.0,0.0,0.0,0.0,0.0,0.0,0.0,0.0,0.0,0.0,0.0,0.0,0.0,0.0,0.0,0.0,0.0,0.0,0.0,0.0,0.0,0.0,0.0,0.0,0.0,0.0,0.0,0.0,0.0,0.0,0.0,0.0,0.0,0.0,0.0,0.0,0.0,-1.7841,-1.9543,-2.0134,-2.0992,-2.2069,-2.2589,-2.2582,-2.2211,-2.2654,-2.248,0.0,0.0,0.0,0.0,0.0,0.0,0.0,0.0,0.0,0.0,0.0,0.0,0.0,0.0,0.0,0.0,0.0,0.0,0.0,0.0,0.0,0.0,0.0,0.0,0.0,0.0,0.0,0.0,-1.9586,-1.9757,-2.0656,0.0,0.0,0.0,0.0,0.0,0.0,0.0,0.0,0.0,0.0,-2.638,-2.7421,-2.9157,-3.0402,-3.0708,-3.0719,-3.0691,-3.0601,-2.968,-2.8914,-2.8817,0.0,0.0,0.0,0.0,0.0,0.0,0.0,0.0,0.0,0.0,0.0,0.0,0.0,0.0,0.0,0.0,0.0,0.0,0.0,0.0,0.0,0.0,0.0,0.0,0.0,0.0,0.0,0.0,0.0,0.0,0.0,0.0,0.0,0.0,0.0,0.0,0.0,0.0,0.0,0.0,0.0,0.0,0.0,0.0,0.0,0.0,0.0,0.0,0.0,0.0,0.0,0.0,0.0,-1.8955,-2.0912,-2.1539,-2.2414,-2.3664,-2.379,-2.3388,-2.2543,-2.2879,-2.2845,-2.2371,0.0,0.0,0.0,0.0,0.0,0.0,0.0,0.0,0.0,0.0,0.0,0.0,0.0,0.0,0.0,0.0,0.0,0.0,0.0,0.0,0.0,0.0,0.0,0.0,0.0,0.0,-1.9694,-2.0021,-2.0516,0.0,0.0,0.0,0.0,0.0,0.0,0.0,0.0,0.0,0.0,-2.6676,-2.8041,-2.8229,-2.9418,-3.0177,-2.9871,-3.0035,-2.9978,-2.9234,-2.936,-2.9319,0.0,0.0,0.0,0.0,0.0,0.0,0.0,0.0,0.0,0.0,0.0,0.0,0.0,0.0,0.0,0.0,0.0,0.0,0.0,0.0,0.0,0.0,0.0,0.0,0.0,0.0,0.0,0.0,0.0,0.0,0.0,0.0,0.0,0.0,0.0,0.0,0.0,0.0,0.0,0.0,-1.8574,-1.8319,0.0,0.0,0.0,0.0,0.0,0.0,0.0,0.0,0.0,0.0,0.0,0.0,-1.9556,-2.1302,-2.1947,-2.2692,-2.3527,-2.4173,-2.4158,-2.3426,-2.3807,-2.3688,-2.2928,0.0,0.0,0.0,0.0,0.0,0.0,0.0,0.0,0.0,0.0,0.0,0.0,0.0,0.0,0.0,0.0,0.0,0.0,0.0,0.0,0.0,0.0,0.0,0.0,0.0,-2.1021,0.0,0.0,0.0,0.0,0.0,0.0,0.0,0.0,0.0,0.0,0.0,-2.484,-2.5514,-2.7003,-2.8252,-2.902,-2.9978,-3.0621,0.0,0.0,0.0,0.0,0.0,0.0,0.0,0.0,0.0,0.0,0.0,0.0,0.0,0.0,-2.8557,-2.747,-2.7453,-2.7645,-2.7823,0.0,0.0,0.0,0.0,0.0,0.0,0.0,0.0,0.0,0.0,0.0,0.0,0.0,0.0,0.0,0.0,-1.7226,0.0,0.0,0.0,0.0,0.0,0.0,0.0,0.0,-1.8528,-1.938,-2.0043,-2.0068,-2.0456,0.0,-2.0696,-1.9879,0.0,0.0,0.0,0.0,0.0,0.0,0.0,0.0,-2.0449,-2.2025,-2.26,-2.3132,-2.3762,-2.4551,-2.4583,-2.3842,-2.4127,-2.4116,-2.3606,-2.3595,-2.3058,0.0,0.0,0.0,0.0,0.0,0.0,0.0,0.0,0.0,0.0,0.0,0.0,0.0,0.0,0.0,0.0,0.0,0.0,0.0,0.0,0.0,0.0,0.0,-2.1522,0.0,0.0,0.0,0.0,0.0,0.0,0.0,0.0,0.0,-2.3984,-2.53,-2.6519,-2.7338,-2.8338,-2.9201,-3.0063,0.0,0.0,0.0,0.0,0.0,0.0,0.0,-2.9208,-2.9671,-2.9655,-2.996,-3.0748,-3.1103,-3.1361,-3.1484,0.0,0.0,-2.9401,-2.9086,-2.9214,-2.9522,-2.967,-2.9659,-2.9515,-2.9949,-3.0163,0.0,0.0,0.0,0.0,0.0,0.0,0.0,0.0,-1.8788,-1.8711,0.0,0.0,0.0,0.0,0.0,0.0,0.0,0.0,0.0,0.0,-2.0061,-2.1104,-2.1888,-2.2241,-2.2595,-2.2804,-2.2896,-2.2497,-2.145,-1.9599,0.0,0.0,0.0,0.0,0.0,0.0,-2.169,-2.303,-2.326,-2.374,-2.4443,-2.4837,-2.4604,-2.3744,-2.4033,-2.4341,-2.451,-2.3895,-2.3436,-2.3015,-2.1811,0.0,0.0,0.0,0.0,0.0,0.0,0.0,0.0,0.0,0.0,0.0,0.0,0.0,0.0,0.0,0.0,0.0,0.0,0.0,0.0,-2.2207,0.0,0.0,0.0,0.0,0.0,0.0,0.0,0.0,0.0,0.0,-2.6438,-2.7357,-2.8695,-2.9998,0.0,0.0,0.0,0.0,-2.9922,-3.0156,-3.0109,-3.0165,-2.9939,-2.993,-2.9985,-3.0099,0.0,0.0,-3.1857,-3.2123,-3.2109,-3.1874,-3.243,-3.2556,-3.1156,-3.0571,-3.0587,-3.1048,-3.0988,-3.097,-3.1228,-3.1503,-3.1827,-1.9758,0.0,0.0,0.0,0.0,-1.8479,-1.9004,-1.977,-1.977,-1.9787,-1.9701,-1.959,0.0,0.0,0.0,0.0,0.0,0.0,-2.032,-2.0138,-2.1141,-2.1794,-2.2066,-2.1994,-2.2314,-2.2928,-2.2688,-2.2617,-2.2561,-2.2042,-2.1043,-1.9666,0.0,0.0,0.0,0.0,-2.208,-2.28,-2.3329,-2.3721,-2.394,-2.4368,-2.447,-2.4126,-2.4464,-2.4647,-2.4696,-2.4893,-2.4662,-2.3872,-2.3168,0.0,0.0,0.0,0.0,0.0,0.0,0.0,0.0,0.0,0.0,0.0,0.0,0.0,0.0,0.0,0.0,0.0,0.0,0.0,-2.2594,-2.3359,-2.3815,0.0,0.0,0.0,0.0,0.0,0.0,0.0,0.0,0.0,-2.8769,-2.8951,-2.9021,0.0,0.0,-3.064,-3.0402,-3.0697,-3.0901,-3.0791,0.0,0.0,0.0,-3.0489,-3.0605,-3.056,-3.1478,-3.2434,-3.3088,-3.2818,-3.2618,-3.2779,-3.2331,-3.1797,-3.1464,-3.1576,-3.1738,-3.1792,-3.1695,-3.1618,-3.1656,-3.1894,-3.205,-2.1045,-2.0358,-1.9592,-1.9175,-1.9309,-1.9392,-1.9817,-2.0427,-2.0598,-2.0708,-2.0731,-2.057,-2.0205,-1.9669,-1.9466,0.0,0.0,0.0,-2.1234,-2.1039,-2.1824,-2.2342,-2.2527,-2.251,-2.2828,-2.3238,-2.324,-2.3264,-2.3285,-2.3493,-2.2896,-2.16,0.0,0.0,-2.1768,-2.2193,-2.2559,-2.2852,-2.321,-2.3438,-2.3438,-2.3897,-2.4355,-2.471,-2.4798,-2.4861,-2.4992,-2.5407,-2.5274,-2.4553,-2.4221,-2.3468,0.0,0.0,0.0,0.0,0.0,0.0,0.0,0.0,0.0,0.0,0.0,-2.1272,-2.1786,0.0,0.0,0.0,-2.2723,-2.3089,-2.3619,-2.4434,0.0,0.0,0.0,0.0,0.0,0.0,0.0,-2.8346,-2.8568,-2.8926,-2.9762,-2.9984,-3.0022,-2.9893,-3.081,-3.1394,-3.0917,0.0,-3.1583,-3.1504,-3.1651,-3.169,-3.1604,-3.1267,-3.1047,-3.1189,-3.1875,-3.2624,-3.3183,-3.2773,-3.2541,-3.2709,-3.2159,-3.1415,-3.1162,-3.1415,-3.1734,-3.1866,-3.1768,-3.1737,-3.166,-3.2031,-3.2184,-2.1982,-2.1743,-2.0645,-2.0166,-2.014,-2.0404,-2.0658,-2.0911,-2.1268,-2.139,-2.1489,-2.1115,-2.0692,-2.0311,-2.0487,0.0,0.0,-2.159,-2.1797,-2.1655,-2.2176,-2.2637,-2.3118,-2.3437,-2.3667,-2.3689,-2.4148,-2.4148,-2.3766,-2.4192,-2.4192,-2.3733,-2.3274,-2.3045,-2.3012,-2.3001,-2.3001,-2.3001,-2.3001,-2.3001,-2.3075,-2.3457,-2.4177,-2.5241,-2.4992,-2.4981,-2.53,-2.5535,-2.5444,-2.5124,-2.49,-2.4406,-2.362,0.0,0.0,0.0,0.0,0.0,0.0,0.0,0.0,0.0,0.0,0.0,0.0,0.0,0.0,0.0,-2.467,0.0,-2.4594,-2.566,0.0,0.0,0.0,-2.7853,-2.8061,-2.8724,-2.9139,-2.9214,0.0,0.0,0.0,0.0,-3.1414,-3.1747,-3.2249,-3.2557,-3.2326,-3.1983,-3.1864,-3.2251,-3.1889,-3.1928,-3.2631,-3.2021,-3.1474,-3.1817,-3.1963,-3.2123,-3.2561,-3.2151,-3.1944,-3.226,-3.178,-3.1148,-3.0544,-3.0474,-3.0693,-3.1344,-3.134,-3.1281,-3.1395,-3.1883,-3.2124,-2.1824,-2.1879,-2.1053,-2.062,-2.0523,-2.0613,-2.0882,-2.1257,-2.1337,-2.1374,-2.1418,-2.1315,-2.1234,-2.1204,-2.1415,-2.1707,-2.2083,-2.2499,-2.2703,-2.2628,-2.2777,-2.2917,-2.3026,-2.3101,-2.3176,-2.3187,-2.3296,-2.3482,-2.3722,-2.3853,-2.3853,-2.3733,-2.3613,-2.3362,-2.3012,-2.3001,-2.3001,-2.3001,-2.3001,-2.315,-2.3446,-2.3824,-2.4334,-2.4933,-2.5111,-2.5253,-2.5312,-2.5618,-2.5583,-2.5124,-2.5006,-2.4519,-2.3607,-2.2539,0.0,0.0,0.0,0.0,0.0,0.0,0.0,0.0,0.0,-2.2644,-2.3616,0.0,-2.3813,0.0,-2.5473,-2.6358,-2.7025,-2.7683,0.0,0.0,-2.921,-2.9559,-2.979,-3.0242,-3.0543,-3.069,-3.0859,-3.0976,-3.1149,-3.1698,-3.1988,-3.173,-3.2006,-3.2071,-3.1679,-3.2003,-3.2286,-3.2355,-3.2638,-3.2733,-3.2554,-3.2112,-3.183,-3.2109,-3.2096,-3.2228,-3.2618,-3.182,-3.1251,-3.1573,-3.0797,-3.008,-2.9869,-2.9827,-2.9932,-3.0233,-3.0397,-3.0618,-3.0935,-3.1294,-3.1603,-2.194,-2.1696,-2.1285,-2.089,-2.0564,-2.0736,-2.0925,-2.1114,-2.1383,-2.1432,-2.129,-2.1184,-2.1318,-2.1479,-2.1691,-2.2101,-2.2703,-2.2916,-2.3001,-2.3001,-2.3001,-2.3001,-2.3001,-2.3001,-2.3001,-2.3012,-2.322,-2.3471,-2.3722,-2.3951,-2.3951,-2.3733,-2.3733,-2.3482,-2.3023,-2.3001,-2.3001,-2.3001,-2.3001,-2.3298,-2.3813,-2.4116,-2.4478,-2.5135,-2.5407,-2.5594,-2.5664,-2.6025,-2.6108,-2.5797,-2.5567,-2.5205,-2.4606,-2.3669,-2.292,0.0,0.0,0.0,0.0,0.0,0.0,0.0,0.0,0.0,0.0,0.0,-2.5216,0.0,-2.685,0.0,-2.8337,-2.8892,-2.9457,-2.9887,-3.0329,-3.0684,-3.093,-3.1127,-3.1277,-3.1447,-3.14,-3.1501,-3.1622,-3.1937,-3.2104,-3.1797,-3.1937,-3.2017,-3.1702,-3.2137,-3.2581,-3.2719,-3.2758,-3.271,-3.2339,-3.2467,-3.2467,-3.2341,-3.2154,-3.2105,-3.2374,-3.1432,-3.071,-3.0942,-3.0298,-2.9699,-2.9713,-2.9837,-2.996,-3.0068,-3.0372,-3.0613,-3.0747,-3.1058,-3.1351,-2.197,-2.1405,-2.1302,-2.0883,-2.0283,-2.0736,-2.0826,-2.0744,-2.1284,-2.1335,-2.1089,-2.0955,-2.1174,-2.1517,-2.1762,-2.2252,-2.3001,-2.3001,-2.3001,-2.3001,-2.3001,-2.3001,-2.3001,-2.3001,-2.3001,-2.3023,-2.3438,-2.3646,-2.3646,-2.4082,-2.4082,-2.3656,-2.3635,-2.3427,-2.3012,-2.3001,-2.3001,-2.3001,-2.3075,-2.3446,-2.4261,-2.4334,-2.4838,-2.5676,-2.5898,-2.6037,-2.622,-2.6508,-2.6676,-2.6599,-2.6343,-2.6052,-2.5746,-2.5127,-2.4491,0.0,-2.3692,0.0,0.0,0.0,0.0,0.0,0.0,0.0,0.0,-2.6296,-2.7051,-2.8118,-2.8425,-2.8782,-2.9261,-2.9849,-3.0348,-3.0711,-3.1096,-3.1415,-3.173,-3.1643,-3.1569,-3.1656,-3.1669,-3.1683,-3.1669,-3.1817,-3.1963,-3.195,-3.1942,-3.1974,-3.1896,-3.2226,-3.2637,-3.2942,-3.2508,-3.2291,-3.2296,-3.27,-3.2814,-3.2321,-3.1928,-3.1778,-3.193,-3.1029,-3.028,-3.0451,-3.0136,-2.9808,-2.9747,-2.9993,-3.0147,-3.0107,-3.0379,-3.0719,-3.0837,-3.1102,-3.1351,-2.1069,-2.1353,-2.0754,-2.0412,-2.0292,-2.0645,-2.0744,-2.0744,-2.0835,-2.0882,-2.0898,-2.11,-2.1402,-2.1777,-2.2116,-2.2553,-2.3001,-2.3001,-2.3001,-2.3001,-2.3001,-2.3001,-2.3001,-2.3001,-2.3001,-2.3001,-2.3088,-2.3132,-2.3143,-2.323,-2.323,-2.3143,-2.3132,-2.3088,0.0,0.0,0.0,0.0,-2.3446,-2.402,-2.4576,-2.5099,-2.5594,-2.6208,-2.6289,0.0,-2.6358,-2.6577,-2.6511,-2.6079,-2.6335,0.0,0.0,0.0,0.0,0.0,0.0,0.0,0.0,0.0,0.0,0.0,-2.6565,-2.6883,-2.6246,-2.7086,-2.8,-2.8703,-2.9358,-3.0086,-3.0804,-3.1411,-3.1906,-3.2239,-3.1796,-3.1768,-3.2335,-3.1793,-3.1548,-3.2187,-3.2169,-3.2096,-3.1996,-3.2109,-3.2169,-3.2042,-3.1762,-3.1477,-3.1419,-3.1893,-3.2245,-3.2318,-3.2155,-3.2214,-3.2345,-3.2116,-3.1954,-3.1763,-3.1461,-3.1183,-3.1263,-3.0735,-3.0299,-3.0423,-3.001,-2.9623,-2.9637,-2.9775,-2.9765,-2.9411,-2.9608,-3.0075,-3.0793,-3.1204,-3.1482,-2.112,0.0,-2.0737,-2.0472,0.0,0.0,-2.0464,-2.0473,-2.0736,-2.0784,-2.0665,-2.1109,-2.1438,-2.165,-2.2144,-2.2615,-2.3001,-2.3001,-2.3001,-2.3001,-2.3001,-2.3001,-2.3001,-2.3001,-2.3001,-2.3001,-2.3001,-2.3001,-2.3001,-2.3001,-2.3001,-2.3001,-2.3075,-2.315,-2.315,-2.3372,-2.3508,-2.3706,-2.4154,-2.4719,-2.5276,-2.5581,-2.6082,-2.6701,0.0,0.0,0.0,0.0,0.0,0.0,0.0,0.0,0.0,0.0,0.0,-2.5706,-2.5861,-2.5767,-2.5275,-2.5666,-2.5823,-2.5736,-2.7069,-2.787,-2.7748,-2.8397,-2.8985,-2.952,-2.9941,-3.0378,-3.0883,-3.1307,-3.1611,-3.1667,-3.135,-3.1309,-3.1681,-3.1221,-3.1053,-3.136,-3.1471,-3.1428,-3.13,-3.1357,-3.148,-3.1653,-3.1219,-3.0961,-3.1232,-3.1287,-3.13,-3.1314,-3.13,-3.1357,-3.1457,-3.1391,-3.1295,-3.1377,-3.1001,-3.0707,-3.0811,-3.0266,-2.9834,-2.9947,-2.9642,-2.9312,-2.9341,-2.9309,-2.9216,-2.9175,-2.9316,-2.9631,-3.0211,-3.0383,-3.0455,-2.1142,-2.0874,-2.0805,-2.0583,-2.0292,-2.0292,-2.0292,-2.0283,0.0,0.0,0.0,-2.1139,-2.1473,-2.153,-2.2097,-2.265,-2.2971,-2.297,-2.2927,-2.3001,-2.3001,-2.3001,-2.3001,-2.3001,-2.3001,-2.3001,-2.3001,-2.3001,-2.3001,-2.3001,-2.3001,-2.3075,-2.315,-2.3298,-2.3383,-2.3801,-2.4227,-2.4636,-2.4921,-2.537,-2.5988,-2.6139,-2.6483,-2.7175,-2.7335,-2.7603,-2.7855,-2.8013,-2.8079,-2.8066,-2.7147,-2.6774,-2.7183,-2.6863,-2.6698,-2.6829,-2.7234,-2.7058,-2.628,-2.628,-2.6208,-2.5896,-2.7071,-2.8296,-2.9317,-2.954,-2.9792,-3.0151,-3.0192,-3.0311,-3.0637,-3.0773,-3.0827,-3.0692,-3.0542,-3.0636,-3.0894,-3.0555,-3.0365,-3.061,-3.0624,-3.0528,-3.0459,-3.0514,-3.0678,-3.099,-3.0608,-3.0323,-3.069,-3.0595,-3.0527,-3.0527,-3.0568,-3.0541,-3.0597,-3.0609,-3.077,-3.089,-3.0508,-3.0155,-3.0009,-2.9617,-2.9268,-2.9161,-2.8898,-2.8748,-2.8852,-2.8742,-2.8693,-2.884,-2.899,-2.9178,-2.9182,-2.9113,-2.9149,-2.0309,-2.0848,-2.0239,-2.0161,-2.0292,-2.0292,-2.0292,-2.0357,-2.0385,-2.0474,-2.049,-2.1353,-2.1719,-2.1748,-2.2169,-2.2663,-2.2956,-2.2659,-2.2628,0.0,-2.3001,-2.3001,-2.3001,-2.3001,-2.3001,-2.3001,-2.3001,-2.3001,-2.3001,-2.3001,-2.3075,-2.3224,-2.315,-2.3224,-2.3666,-2.4874,-2.5652,-2.5709,-2.537,-2.5709,-2.6539,-2.7027,-2.7469,-2.7881,-2.7934,-2.8013,-2.8079,-2.8079,-2.8079,-2.8079,-2.7919,-2.7691,-2.739,-2.7776,-2.7894,-2.7575,-2.7602,-2.7623,-2.7434,-2.7275,-2.7242,-2.7479,-2.7692,-2.8296,-2.9476,-2.9602,-2.9806,-3.0174,-3.0109,-3.0377,-3.0812,-3.0825,-3.0784,-3.0758,-3.0358,-3.0342,-3.0999,-3.0306,-3.0035,-3.0622,-3.0583,-3.0419,-3.0296,-3.031,-3.0405,-3.0405,-3.0052,-2.9523,-2.936,-2.9821,-3.0337,-3.0405,-3.0405,-3.0473,-3.0433,-3.0186,-3.0031,-3.0135,-2.9803,-2.931,-2.8713,-2.8655,-2.8465,-2.7949,-2.7813,-2.786,-2.8122,-2.8239,-2.8137,-2.8119,-2.8096,-2.811,-2.8062,-2.7906,-2.8137,-1.9906,-2.0189,-2.0004,-1.9928,-1.9936,-2.0027,-2.0201,-2.0257,-2.0253,-2.0289,-2.0403,-2.0881,-2.1172,-2.1374,-2.188,-2.2257,-2.2624,-2.2498,-2.2628,-2.3001,-2.3001,-2.287,-2.2663,-2.2881,-2.2881,-2.2663,-2.304,-2.315,-2.3001,-2.3075,-2.315,-2.315,-2.3224,-2.3593,-2.4261,-2.5028,-2.5639,-2.6139,-2.6289,-2.6633,-2.7108,-2.739,-2.7525,-2.7626,-2.7613,-2.7677,-2.7857,-2.787,-2.8018,-2.8327,-2.8032,-2.7934,-2.8025,-2.7701,-2.7575,-2.7705,-2.7705,-2.7406,-2.6889,-2.6569,-2.6663,-2.7214,-2.7256,-2.7636,-2.8549,-2.8605,-2.8731,-2.8876,-2.8904,-2.9094,-2.9525,-2.9622,-2.9748,-2.99,-2.9665,-2.9638,-2.9924,-2.9591,-2.9364,-2.9676,-2.9745,-2.9627,-2.9428,-2.9494,-2.9644,-2.9781,-2.9604,-2.9238,-2.8695,-2.9048,-2.9428,-2.9428,-2.9414,-2.9481,-2.9613,-2.9474,-2.921,-2.9035,-2.8858,-2.8491,-2.795,-2.7931,-2.7865,-2.7673,-2.7365,-2.7199,-2.7414,-2.7285,-2.7193,-2.7345,-2.7466,-2.7499,-2.7497,-2.7488,-2.7763,-1.9694,-1.9587,-1.9754,-1.9754,-1.9762,-1.9845,-1.9985,-2.0129,-1.9946,-1.9955,-2.011,-2.0436,-2.0755,-2.1116,-2.1477,-2.1971,-2.2345,-2.2305,-2.2553,-2.3001,-2.3001,-2.2805,-2.2531,-2.2848,-2.2815,-2.2542,-2.2985,-2.3106,-2.2859,-2.2996,-2.3003,-2.2926,-2.3441,-2.4016,-2.4673,-2.504,-2.5652,-2.6346,-2.6985,-2.739,-2.7536,-2.7603,-2.7538,-2.7253,-2.7277,-2.74,-2.7528,-2.7637,-2.7922,-2.8329,-2.7949,-2.7908,-2.8302,-2.7393,-2.7026,-2.7447,-2.7501,-2.7101,-2.6301,-2.6131,-2.6232,-2.6582,-2.6596,-2.6821,-2.727,-2.7355,-2.7481,-2.772,-2.786,-2.797,-2.8228,-2.8372,-2.8493,-2.8692,-2.8685,-2.8657,-2.8685,-2.851,-2.8447,-2.8447,-2.8496,-2.8474,-2.847,-2.8511,-2.8784,-2.9209,-2.9279,-2.9075,-2.8682,-2.8587,-2.856,-2.8451,-2.8492,-2.8638,-2.8566,-2.8525,-2.8343,-2.7982,-2.7933,-2.7704,-2.7381,-2.7187,-2.7207,-2.7169,-2.6819,-2.6596,-2.6679,-2.6562,-2.6508,-2.6837,-2.7114,-2.7211,-2.7452,-2.759,-2.764,-1.9716,-1.9629,-1.9579,-1.9853,-2.0201,-2.0027,-1.9842,-1.9778,-1.9393,-1.9402,-1.9685,-2.0464,-2.1006,-2.1393,-2.1325,-2.163,-2.2315,-2.206,-2.2252,-2.2916,-2.3001,-2.2979,-2.2892,-2.2968,-2.2979,-2.2903,-2.2947,-2.2823,-2.239,-2.239,-2.2375,-2.2477,-2.3456,-2.4084,-2.4386,-2.5501,-2.622,-2.6427,-2.6985,-2.7469,-2.7776,-2.7947,-2.7851,-2.744,-2.7566,-2.7399,-2.6945,-2.742,-2.7732,-2.7786,-2.7718,-2.7718,-2.7718,-2.7162,-2.6837,-2.6891,-2.6904,-2.6739,-2.6445,-2.6993,-2.6888,-2.6118,-2.6006,-2.6048,-2.6118,-2.5994,-2.6399,-2.7195,-2.7647,-2.7661,-2.7642,-2.7642,-2.7638,-2.7746,-2.77,-2.7474,-2.7552,-2.7322,-2.7229,-2.7289,-2.7414,-2.7203,-2.7773,-2.7895,-2.8112,-2.8682,-2.8709,-2.8641,-2.8532,-2.8492,-2.8343,-2.8058,-2.822,-2.8329,-2.8053,-2.7786,-2.7672,-2.7155,-2.7207,-2.7037,-2.6596,-2.6464,-2.6538,-2.6273,-2.5981,-2.5953,-2.6117,-2.6139,-2.6354,-2.6832,-2.7055,-2.7144,-2.7488,-2.779,-2.784,-1.9183,-1.912,-1.9296,-1.9571,-1.9845,-1.9936,-1.9718,-1.9533,-1.9411,-1.9551,-1.9731,-1.9997,-2.0351,-2.0721,-2.0787,-2.1171,-2.1607,-2.1766,-2.2114,-2.2567,-2.287,-2.2859,-2.263,-2.2881,-2.2728,-2.2237,-2.2578,-2.2479,-2.2138,-2.2375,-2.2693,-2.284,-2.3768,-2.4508,-2.4859,-2.582,-2.6427,-2.6701,-2.6865,-2.7013,-2.7249,-2.7565,-2.734,-2.6698,-2.6792,-2.6633,-2.6256,-2.6451,-2.6809,-2.7149,-2.7176,-2.7189,-2.7176,-2.6606,-2.6267,-2.6253,-2.6116,-2.6109,-2.6392,-2.6524,-2.6372,-2.5921,-2.5893,-2.5948,-2.6002,-2.5893,-2.6022,-2.6414,-2.6511,-2.658,-2.69,-2.6956,-2.7095,-2.7353,-2.7714,-2.7848,-2.7652,-2.8118,-2.8304,-2.7728,-2.7948,-2.7947,-2.7849,-2.8017,-2.8302,-2.8505,-2.8343,-2.8139,-2.8085,-2.8071,-2.7976,-2.7854,-2.8397,-2.8479,-2.7903,-2.7705,-2.7434,-2.6959,-2.669,-2.6356,-2.5903,-2.5938,-2.605,-2.5689,-2.58,-2.5896,-2.6099,-2.6204,-2.6365,-2.6884,-2.7248,-2.7437,-2.7675,-2.784,-2.7905,-1.8915,-1.8835,-1.9096,-1.9379,-1.9571,-1.9736,-1.9566,-1.9284,-1.9341,-1.9472,-1.9661,-1.9687,-1.9883,-2.025,-2.0546,-2.0928,-2.1288,-2.1593,-2.1966,-2.2437,-2.2608,-2.2564,-2.2521,-2.2531,-2.2335,-2.1898,-2.2138,-2.2055,-2.1727,-2.2121,-2.2531,-2.2971,-2.3885,-2.4625,-2.5235,-2.579,-2.6282,-2.6649,-2.6466,-2.6425,-2.667,-2.6973,-2.6775,-2.599,-2.6054,-2.5955,-2.5509,-2.5747,-2.609,-2.6538,-2.6565,-2.6565,-2.6538,-2.5982,-2.5643,-2.5643,-2.5668,-2.5797,-2.6144,-2.6092,-2.6021,-2.5921,-2.5893,-2.5948,-2.603,-2.6048,-2.6091,-2.6161,-2.6036,-2.6313,-2.6496,-2.6637,-2.6801,-2.7266,-2.7825,-2.7986,-2.7789,-2.8415,-2.8393,-2.7659,-2.7824,-2.8422,-2.7966,-2.8243,-2.8651,-2.8661,-2.8375,-2.8075,-2.8075,-2.8116,-2.8061,-2.7898,-2.8601,-2.8683,-2.8029,-2.8002,-2.768,-2.7215,-2.6813,-2.6599,-2.5976,-2.6344,-2.6538,-2.6835,-2.6609,-2.6649,-2.6971,-2.7021,-2.6751,-2.7085,-2.7446,-2.7855,-2.8173,-2.8278,-2.8514,-1.9145,-1.8843,-1.9096,-1.9371,-1.9554,-1.9485,-1.9196,-1.8826,-1.8979,-1.9,-1.9163,-1.9645,-2.0039,-2.0322,-2.0683,-2.1195,-2.1618,-2.1511,-2.1988,-2.2709,-2.2106,-2.2149,-2.287,-2.2095,-2.1865,-2.204,-2.1745,-2.149,-2.1163,-2.1386,-2.1708,-2.2286,-2.3522,-2.4465,-2.5074,-2.5277,-2.554,-2.6112,-2.5769,-2.5712,-2.6025,-2.625,-2.6081,-2.5654,-2.5837,-2.5639,-2.5208,-2.5588,-2.59,-2.5928,-2.5928,-2.5928,-2.5887,-2.5385,-2.5086,-2.5113,-2.5734,-2.596,-2.5715,-2.6133,-2.6344,-2.6006,-2.5948,-2.5948,-2.603,-2.6259,-2.6456,-2.6539,-2.6816,-2.6926,-2.672,-2.672,-2.6886,-2.7402,-2.7423,-2.7446,-2.7405,-2.7668,-2.7096,-2.6744,-2.7157,-2.7646,-2.7913,-2.8397,-2.8789,-2.8972,-2.898,-2.8884,-2.8801,-2.8884,-2.865,-2.8402,-2.8629,-2.8906,-2.8353,-2.8249,-2.8154,-2.7837,-2.7555,-2.7563,-2.775,-2.7794,-2.7839,-2.7911,-2.7812,-2.7826,-2.8152,-2.81,-2.7735,-2.7772,-2.8015,-2.8344,-2.8885,-2.9149,-2.9296,-1.8947,-1.8827,-1.9096,-1.9066,-1.8847,-1.9246,-1.895,-1.8312,-1.899,-1.9282,-1.9277,-1.9863,-2.0264,-2.0498,-2.0741,-2.0978,-2.1169,-2.1636,-2.1999,-2.2312,-2.2121,-2.2237,-2.2444,-2.1887,-2.1483,-2.1352,-2.121,-2.1073,-2.0951,-2.1558,-2.222,-2.2936,-2.4102,-2.5054,-2.5492,-2.5598,-2.5757,-2.5853,-2.5243,-2.5065,-2.5406,-2.5196,-2.5055,-2.5243,-2.5522,-2.5441,-2.4919,-2.5151,-2.5331,-2.5317,-2.5331,-2.5331,-2.5303,-2.5127,-2.5005,-2.5032,-2.5322,-2.5476,-2.5424,-2.5828,-2.6077,-2.5936,-2.6056,-2.6165,-2.6286,-2.6363,-2.6451,-2.6548,-2.6565,-2.6707,-2.706,-2.7144,-2.7234,-2.7471,-2.7907,-2.8116,-2.8182,-2.8479,-2.8507,-2.7987,-2.794,-2.8138,-2.8443,-2.8834,-2.9035,-2.9071,-2.8768,-2.8547,-2.8519,-2.8519,-2.847,-2.8524,-2.8982,-2.9504,-2.935,-2.8736,-2.84,-2.825,-2.8085,-2.7905,-2.7921,-2.811,-2.8154,-2.8096,-2.8268,-2.8368,-2.8407,-2.8733,-2.8447,-2.8569,-2.8798,-2.8845,-2.9672,-2.9598,-2.9684,-1.8827,-1.8812,-1.9066,-1.8888,-1.8466,-1.8937,-1.882,-1.8347,-1.9044,-1.9478,-1.9576,-2.0098,-2.0489,-2.0644,-2.0906,-2.0978,-2.0998,-2.1518,-2.186,-2.2101,-2.1847,-2.1936,-2.2078,-2.1424,-2.1035,-2.0984,-2.0886,-2.084,-2.0952,-2.1816,-2.2561,-2.31,-2.4226,-2.5001,-2.5302,-2.5306,-2.5291,-2.5166,-2.4715,-2.4541,-2.4846,-2.4691,-2.465,-2.4989,-2.5283,-2.5253,-2.4848,-2.4948,-2.5005,-2.5005,-2.5005,-2.5005,-2.5005,-2.5005,-2.5005,-2.5005,-2.5118,-2.523,-2.5355,-2.5674,-2.5907,-2.5948,-2.6179,-2.6326,-2.6418,-2.6551,-2.6666,-2.6748,-2.6909,-2.714,-2.7455,-2.7726,-2.7778,-2.7762,-2.8231,-2.8499,-2.8482,-2.9036,-2.9134,-2.875,-2.826,-2.8246,-2.858,-2.8574,-2.8649,-2.8705,-2.8391,-2.8168,-2.82,-2.814,-2.82,-2.8306,-2.8799,-2.9132,-2.9032,-2.8618,-2.8852,-2.8902,-2.8862,-2.855,-2.8294,-2.8454,-2.8455,-2.8411,-2.8426,-2.8537,-2.8755,-2.9134,-2.9297,-2.935,-2.9037,-2.8824,-2.9394,-2.9863,-2.9869,-1.8812,-1.8748,-1.8897,-1.871,-1.8491,-1.8539,-1.8705,-1.875,-1.8941,-1.9329,-1.9709,-2.0294,-2.0469,-2.0566,-2.0804,-2.1115,-2.105,-2.1036,-2.1544,-2.2137,-2.121,-2.1209,-2.1826,-2.0815,-2.0555,-2.0997,-2.0947,-2.1001,-2.1204,-2.1993,-2.2533,-2.287,-2.3758,-2.4325,-2.43,-2.4304,-2.4155,-2.424,-2.4193,-2.4197,-2.435,-2.4721,-2.4935,-2.5005,-2.5003,-2.5059,-2.5005,-2.5005,-2.5005,-2.5005,-2.5005,-2.5005,-2.5005,-2.5005,-2.5005,-2.5005,-2.5118,-2.53,-2.5494,-2.5743,-2.6002,-2.6111,-2.6218,-2.6326,-2.6451,-2.6837,-2.7138,-2.7221,-2.7567,-2.7997,-2.7997,-2.8096,-2.8197,-2.8211,-2.8297,-2.8311,-2.8397,-2.8754,-2.9007,-2.8788,-2.8169,-2.7659,-2.7703,-2.7931,-2.8074,-2.8119,-2.8106,-2.8064,-2.8181,-2.8151,-2.8095,-2.8211,-2.8468,-2.8668,-2.857,-2.8469,-2.9085,-2.9554,-2.9617,-2.9504,-2.9115,-2.9102,-2.8958,-2.8886,-2.8881,-2.8983,-2.8996,-2.9282,-2.9154,-2.9128,-2.8834,-2.8935,-2.9445,-2.9925,-2.993,-1.8462,-1.8422,-1.8266,-1.7977,-1.7768,-1.8027,-1.8054,-1.7975,-1.8789,-1.9155,-1.9245,-1.9822,-1.9951,-1.9821,-2.0004,-2.0172,-2.029,-2.0441,-2.0959,-2.1647,-2.1144,-2.0945,-2.1043,-2.0455,-2.0281,-2.0587,-2.0789,-2.1019,-2.1434,-2.2079,-2.2645,-2.3262,-2.3763,-2.4252,-2.4526,-2.4217,-2.3991,-2.404,-2.3863,-2.3897,-2.4189,-2.4465,-2.4751,-2.4948,-2.5005,-2.5005,-2.5005,-2.5005,-2.5005,-2.5005,-2.5005,-2.5005,-2.5005,-2.5005,-2.5005,-2.5005,-2.5118,-2.53,-2.5481,-2.5867,-2.6111,-2.6258,-2.6486,-2.6621,-2.6621,-2.6862,-2.6992,-2.6977,-2.7165,-2.7252,-2.7374,-2.7428,-2.7697,-2.8282,-2.8425,-2.8382,-2.8397,-2.8626,-2.8627,-2.8425,-2.8254,-2.8096,-2.8068,-2.7982,-2.7968,-2.7982,-2.8068,-2.8068,-2.8154,-2.8011,-2.8226,-2.8326,-2.8326,-2.821,-2.8137,-2.8121,-2.844,-2.8915,-2.9232,-2.9536,-2.9377,-2.9175,-2.9101,-2.9022,-2.9094,-2.9217,-2.9252,-2.9229,-2.9082,-2.9322,-2.947,-2.9659,-2.9925,-2.993,-2.9781,-1.8134,-1.8073,-1.781,-1.764,-1.7516,-1.7804,-1.7935,-1.8184,-1.8743,-1.9182,-1.9457,-1.9763,-1.986,-1.9757,-1.993,-2.0032,-1.998,-2.0145,-2.0493,-2.0963,-2.0855,-2.0668,-2.066,-2.0369,-2.0346,-2.0604,-2.0967,-2.1285,-2.1537,-2.2235,-2.2776,-2.3207,-2.3492,-2.3816,-2.4155,-2.3941,-2.3752,-2.375,-2.3855,-2.3956,-2.4176,-2.4523,-2.4751,-2.4948,-2.5005,-2.5005,-2.4991,-2.4815,-2.4788,-2.4964,-2.5005,-2.5005,-2.5005,-2.5005,-2.5005,-2.5061,-2.5244,-2.5411,-2.5633,-2.5976,-2.6218,-2.6404,-2.6659,-2.6794,-2.6794,-2.6794,-2.6832,-2.6846,-2.6928,-2.6951,-2.7055,-2.7159,-2.7451,-2.7948,-2.7966,-2.8086,-2.8175,-2.8303,-2.8233,-2.808,-2.8009,-2.7937,-2.768,-2.7553,-2.7553,-2.7539,-2.7539,-2.7609,-2.7623,-2.7566,-2.7693,-2.7763,-2.766,-2.7602,-2.7717,-2.7773,-2.7842,-2.8146,-2.8421,-2.874,-2.8927,-2.8508,-2.8344,-2.8238,-2.8292,-2.8472,-2.8544,-2.8936,-2.8996,-2.9475,-2.9628,-2.9373,-2.9193,-2.93,-2.9212,-1.7775,-1.7802,-1.7621,-1.7619,-1.7696,-1.7654,-1.8132,-1.8946,-1.8811,-1.9313,-2.0091,-1.9983,-1.9919,-2.0157,-2.0286,-2.0272,-2.0103,-2.0195,-2.01,-2.0069,-2.0154,-2.0268,-2.0261,-2.038,-2.054,-2.0786,-2.14,-2.1737,-2.1812,-2.2543,-2.2848,-2.2874,-2.3056,-2.309,-2.3288,-2.3296,-2.3406,-2.3479,-2.3982,-2.4234,-2.4279,-2.4627,-2.491,-2.491,-2.4896,-2.4842,-2.4679,-2.4313,-2.4327,-2.4801,-2.4761,-2.4776,-2.4856,-2.4896,-2.4886,-2.4984,-2.5301,-2.5536,-2.5823,-2.6136,-2.6379,-2.6525,-2.6712,-2.6779,-2.6779,-2.6832,-2.6899,-2.6951,-2.7003,-2.7055,-2.7181,-2.7299,-2.7424,-2.738,-2.738,-2.7428,-2.7632,-2.7773,-2.7773,-2.7679,-2.7541,-2.7259,-2.6769,-2.6697,-2.6683,-2.6683,-2.6712,-2.6852,-2.6905,-2.6992,-2.6761,-2.6818,-2.7103,-2.7147,-2.7321,-2.7321,-2.7389,-2.7505,-2.7723,-2.7926,-2.8257,-2.7937,-2.7783,-2.7705,-2.7742,-2.7855,-2.8106,-2.8583,-2.8713,-2.8839,-2.8732,-2.8473,-2.8535,-2.875,-2.8827,-1.7134,-1.7374,-1.7266,-1.7131,-1.6911,-1.7179,-1.762,-1.8222,-1.8606,-1.9058,-1.9602,-1.982,-1.9561,-1.9154,-1.9693,-1.9541,-1.9143,-1.9483,-1.9479,-1.9235,-1.9596,-1.9852,-2.0051,-2.0401,-2.0635,-2.0944,-2.1651,-2.2111,-2.2235,-2.2775,-2.3017,-2.3017,-2.303,-2.3125,-2.3138,-2.3138,-2.3198,-2.3258,-2.3839,-2.4163,-2.4142,-2.4265,-2.4299,-2.4354,-2.4354,-2.4082,-2.377,-2.3606,-2.3619,-2.3768,-2.3809,-2.3863,-2.3984,-2.4051,-2.4079,-2.4226,-2.4743,-2.518,-2.5463,-2.6012,-2.6467,-2.6712,-2.6701,-2.6899,-2.6779,-2.6884,-2.6951,-2.7003,-2.7003,-2.7063,-2.7255,-2.7386,-2.735,-2.7299,-2.7233,-2.727,-2.7313,-2.729,-2.7185,-2.7094,-2.7002,-2.69,-2.6785,-2.6698,-2.6698,-2.6712,-2.6712,-2.6712,-2.6779,-2.6779,-2.6712,-2.6727,-2.6895,-2.6852,-2.6852,-2.6852,-2.6866,-2.6924,-2.7012,-2.7041,-2.7336,-2.7331,-2.7432,-2.7548,-2.7709,-2.7851,-2.8134,-2.8486,-2.8427,-2.8411,-2.8411,-2.8411,-2.8411,-2.855,-2.8565,-1.6576,-1.6789,-1.69,-1.6944,-1.6926,-1.7166,-1.762,-1.8148,-1.8285,-1.876,-1.9211,-1.9509,-1.9375,-1.9137,-1.9584,-1.938,-1.8814,-1.9172,-1.9168,-1.9014,-1.955,-1.9836,-1.9997,-2.0373,-2.0662,-2.0871,-2.1756,-2.2173,-2.2371,-2.2848,-2.303,-2.303,-2.3078,-2.3065,-2.3125,-2.3198,-2.3198,-2.3318,-2.3826,-2.4084,-2.3809,-2.4023,-2.3865,-2.3757,-2.3609,-2.3352,-2.2839,-2.2848,-2.3046,-2.3316,-2.345,-2.3554,-2.3606,-2.3606,-2.3658,-2.3723,-2.4211,-2.4587,-2.485,-2.5392,-2.577,-2.5952,-2.6119,-2.6119,-2.6039,-2.6134,-2.6184,-2.6226,-2.627,-2.6503,-2.6985,-2.7309,-2.7408,-2.7335,-2.7284,-2.7248,-2.713,-2.707,-2.6951,-2.6899,-2.6846,-2.6794,-2.6794,-2.6794,-2.6794,-2.6779,-2.6779,-2.6779,-2.6779,-2.6794,-2.6765,-2.6683,-2.6649,-2.6576,-2.6344,-2.6257,-2.6083,-2.6141,-2.625,-2.6279,-2.6607,-2.6836,-2.71,-2.7354,-2.763,-2.7894,-2.8048,-2.8258,-2.8411,-2.8411,-2.8411,-2.835,-2.8304,-2.8306,-2.8321,-1.6017,-1.6087,-1.65,-1.6878,-1.7147,-1.7326,-1.7768,-1.8384,-1.8209,-1.8582,-1.918,-1.9297,-1.9321,-1.9568,-1.9703,-1.9637,-1.9053,-1.9093,-1.9137,-1.9256,-1.9683,-2.0028,-2.0138,-2.0522,-2.0728,-2.0857,-2.1689,-2.203,-2.225,-2.2698,-2.2917,-2.293,-2.3015,-2.3027,-2.3075,-2.3182,-2.3229,-2.3213,-2.3515,-2.3612,-2.3369,-2.3486,-2.3339,-2.3002,-2.2773,-2.2638,-2.2339,-2.2305,-2.2528,-2.3242,-2.3348,-2.3289,-2.3381,-2.3423,-2.3446,-2.3585,-2.3727,-2.3955,-2.4248,-2.4646,-2.4838,-2.5058,-2.5223,-2.514,-2.5189,-2.5263,-2.536,-2.5457,-2.5221,-2.5749,-2.6325,-2.7006,-2.716,-2.7069,-2.707,-2.7027,-2.7041,-2.7003,-2.7003,-2.7003,-2.6846,-2.6794,-2.6794,-2.6794,-2.6794,-2.6794,-2.6794,-2.6794,-2.6794,-2.6794,-2.6669,-2.6515,-2.6437,-2.6366,-2.6046,-2.5712,-2.5415,-2.527,-2.5413,-2.5593,-2.6134,-2.6476,-2.6804,-2.7086,-2.7003,-2.7294,-2.7701,-2.7934,-2.8057,-2.7997,-2.7689,-2.7905,-2.8121,-2.8138,-2.8123,-1.5209,-1.565,-1.6229,-1.6327,-1.6341,-1.7113,-1.7682,-1.8004,-1.8211,-1.858,-1.9195,-1.9268,-1.9082,-1.8899,-1.9262,-1.9027,-1.8537,-1.8884,-1.9315,-1.9724,-1.9911,-2.0281,-2.0442,-2.083,-2.1005,-2.1081,-2.1265,-2.1703,-2.2043,-2.2048,-2.2309,-2.2915,-2.2614,-2.2698,-2.2987,-2.2648,-2.2543,-2.2539,-2.2565,-2.2643,-2.2627,-2.2525,-2.2468,-2.2264,-2.1901,-2.1961,-2.2256,-2.2089,-2.2131,-2.2311,-2.2346,-2.2457,-2.2588,-2.2594,-2.267,-2.2865,-2.332,-2.3664,-2.3976,-2.4423,-2.4951,-2.496,-2.5044,-2.5316,-2.5188,-2.5147,-2.5257,-2.5349,-2.5349,-2.5367,-2.5714,-2.5834,-2.6154,-2.6361,-2.6379,-2.6454,-2.6842,-2.6884,-2.6899,-2.6846,-2.6846,-2.6794,-2.6794,-2.6794,-2.6794,-2.6794,-2.6779,-2.6779,-2.6736,-2.6692,-2.6451,-2.6145,-2.5936,-2.5763,-2.5261,-2.4927,-2.4646,-2.4505,-2.4663,-2.4835,-2.5379,-2.5819,-2.6123,-2.6221,-2.6195,-2.6626,-2.7226,-2.7088,-2.7103,-2.7041,-2.7071,-2.7226,-2.7457,-2.7643,-2.7845,-1.4816,-1.51,-1.5672,-1.5797,-1.5921,-1.6497,-1.7063,-1.7512,-1.7816,-1.8222,-1.8699,-1.8877,-1.8848,-1.8662,-1.8919,-1.8832,-1.8587,-1.8773,-1.9188,-1.956,-1.9966,-2.0478,-2.0857,-2.1091,-2.1236,-2.1067,-2.151,-2.1741,-2.1661,-2.1569,-2.1807,-2.2297,-2.2058,-2.2046,-2.2322,-2.2083,-2.1945,-2.1964,-2.2005,-2.2053,-2.2036,-2.2047,-2.1914,-2.1876,-2.1537,-2.1648,-2.1986,-2.2,-2.201,-2.2123,-2.2137,-2.2184,-2.2324,-2.237,-2.2417,-2.258,-2.2812,-2.3102,-2.3418,-2.3763,-2.4078,-2.4244,-2.4445,-2.449,-2.4459,-2.4459,-2.449,-2.449,-2.4445,-2.4534,-2.4936,-2.5337,-2.549,-2.557,-2.5619,-2.5731,-2.601,-2.6454,-2.6846,-2.6846,-2.6846,-2.6794,-2.6794,-2.6707,-2.6779,-2.6765,-2.6721,-2.6678,-2.6213,-2.6141,-2.5864,-2.5596,-2.5387,-2.5096,-2.4505,-2.4174,-2.3894,-2.3841,-2.3966,-2.4148,-2.4507,-2.4912,-2.5302,-2.5499,-2.5819,-2.6244,-2.6717,-2.6454,-2.6375,-2.6652,-2.6758,-2.6678,-2.671,-2.7065,-2.7223,-1.4454,-1.4465,-1.494,-1.5245,-1.5474,-1.5851,-1.6488,-1.7117,-1.7432,-1.7765,-1.7988,-1.8408,-1.8525,-1.8535,-1.8665,-1.8745,-1.8765,-1.8819,-1.8962,-1.9473,-2.0107,-2.0655,-2.11,-2.14,-2.1451,-2.1046,-2.1403,-2.1468,-2.1238,-2.1181,-2.1267,-2.1443,-2.1393,-2.1506,-2.1506,-2.1393,-2.1368,-2.1411,-2.1373,-2.1508,-2.1537,-2.1712,-2.1709,-2.1732,-2.1609,-2.1664,-2.1842,-2.1963,-2.2137,-2.2278,-2.2385,-2.2523,-2.2615,-2.2615,-2.2615,-2.2601,-2.2718,-2.2824,-2.2989,-2.317,-2.3304,-2.3172,-2.3466,-2.3626,-2.3642,-2.3688,-2.3703,-2.3599,-2.3629,-2.3688,-2.4146,-2.4454,-2.479,-2.4963,-2.4945,-2.4907,-2.5101,-2.5916,-2.6345,-2.6462,-2.625,-2.6141,-2.6387,-2.6474,-2.662,-2.6721,-2.6649,-2.646,-2.5981,-2.556,-2.5286,-2.5026,-2.4834,-2.4524,-2.4005,-2.3846,-2.3536,-2.3554,-2.3629,-2.379,-2.3949,-2.4303,-2.4826,-2.5341,-2.5707,-2.5991,-2.6047,-2.5858,-2.5948,-2.6364,-2.6299,-2.5998,-2.6154,-2.6498,-2.6611,-1.3407,-1.3518,-1.4145,-1.4423,-1.4613,-1.552,-1.6196,-1.6727,-1.7243,-1.7689,-1.7988,-1.8096,-1.8154,-1.8125,-1.8115,-1.832,-1.8474,-1.8674,-1.9065,-1.9781,-2.0291,-2.0741,-2.1197,-2.154,-2.162,-2.1433,-2.125,-2.0936,-2.0711,-2.0388,-2.0702,-2.1204,-2.1016,-2.102,-2.1192,-2.1066,-2.0803,-2.074,-2.057,-2.0527,-2.0897,-2.1169,-2.1488,-2.1759,-2.1746,-2.1841,-2.2044,-2.2137,-2.2338,-2.2644,-2.2629,-2.2661,-2.2766,-2.2706,-2.2661,-2.2766,-2.2797,-2.2873,-2.3053,-2.3275,-2.3436,-2.3508,-2.3551,-2.361,-2.3566,-2.3538,-2.3466,-2.3422,-2.3363,-2.3349,-2.3452,-2.3642,-2.3802,-2.4048,-2.4329,-2.4429,-2.4805,-2.516,-2.5365,-2.5267,-2.5276,-2.5494,-2.5814,-2.6061,-2.6097,-2.6112,-2.6054,-2.5879,-2.5502,-2.5081,-2.4699,-2.4457,-2.42,-2.3873,-2.3481,-2.3496,-2.3393,-2.3511,-2.3627,-2.3801,-2.3958,-2.4082,-2.4468,-2.4995,-2.5153,-2.5155,-2.515,-2.5222,-2.5311,-2.5613,-2.5409,-2.5205,-2.5544,-2.5874,-2.6042,-1.312,-1.3128,-1.3424,-1.3641,-1.3899,-1.4546,-1.5397,-1.626,-1.6741,-1.7274,-1.7842,-1.8008,-1.8008,-1.7949,-1.7878,-1.8009,-1.8334,-1.8793,-1.9309,-1.9987,-2.0366,-2.0647,-2.1028,-2.1386,-2.1223,-2.0978,-2.0727,-2.0652,-2.0655,-2.01,-2.03,-2.0715,-2.0501,-2.0514,-2.0803,-2.0501,-2.0328,-2.0202,-2.0013,-2.0144,-2.0795,-2.1237,-2.1793,-2.1888,-2.2091,-2.2184,-2.2278,-2.237,-2.2537,-2.2749,-2.2735,-2.2781,-2.2781,-2.2781,-2.2721,-2.2826,-2.2888,-2.2963,-2.3098,-2.3231,-2.3363,-2.3319,-2.3451,-2.3494,-2.3436,-2.3392,-2.3378,-2.329,-2.3246,-2.3157,-2.3097,-2.3023,-2.3152,-2.3387,-2.3595,-2.3802,-2.4022,-2.4248,-2.4261,-2.4268,-2.4717,-2.5082,-2.5316,-2.552,-2.5537,-2.5502,-2.5458,-2.5241,-2.5028,-2.4621,-2.4232,-2.4019,-2.3833,-2.3777,-2.3525,-2.3495,-2.3494,-2.3581,-2.3711,-2.3897,-2.4109,-2.4261,-2.4426,-2.4792,-2.4717,-2.4726,-2.4854,-2.5114,-2.4997,-2.4886,-2.5012,-2.5131,-2.514,-2.5274,-2.5496,-1.2956,-1.2879,-1.2955,-1.3124,-1.3433,-1.3768,-1.4633,-1.5754,-1.6123,-1.6899,-1.7794,-1.7784,-1.7794,-1.7793,-1.7777,-1.7815,-1.8363,-1.9007,-1.9454,-1.9857,-2.0231,-2.0461,-2.0549,-2.0712,-2.0722,-2.0592,-2.036,-2.0482,-2.0351,-1.9999,-2.0112,-2.0328,-2.0051,-2.0103,-2.0406,-2.0295,-1.999,-1.9952,-1.9965,-2.0359,-2.1042,-2.1779,-2.2278,-2.2184,-2.2417,-2.2417,-2.2417,-2.2463,-2.2569,-2.2689,-2.2689,-2.2689,-2.2749,-2.2749,-2.2735,-2.2843,-2.2843,-2.2873,-2.2918,-2.3098,-2.3231,-2.3246,-2.3378,-2.3363,-2.3363,-2.3319,-2.3201,-2.3082,-2.3037,-2.3037,-2.2947,-2.2933,-2.2962,-2.3067,-2.3245,-2.3349,-2.3422,-2.36,-2.3718,-2.394,-2.4393,-2.4622,-2.4813,-2.4863,-2.482,-2.5043,-2.5014,-2.4776,-2.4531,-2.4214,-2.3864,-2.3733,-2.3613,-2.3701,-2.3683,-2.3726,-2.3754,-2.3797,-2.3967,-2.4151,-2.4359,-2.458,-2.4701,-2.4782,-2.4822,-2.4846,-2.4966,-2.5005,-2.4966,-2.4966,-2.5005,-2.506,-2.5147,-2.5187,-2.5314,-1.2385,-1.2425,-1.2728,-1.2928,-1.3127,-1.3912,-1.4641,-1.5338,-1.5869,-1.6691,-1.7396,-1.7092,-1.7034,-1.7239,-1.7419,-1.7869,-1.8436,-1.8871,-1.9169,-1.9544,-1.9879,-1.995,-1.9803,-1.984,-2.0087,-2.0101,-1.9915,-1.9871,-1.9905,-1.9861,-1.9861,-2.0026,-2.0129,-2.022,-2.0424,-2.0386,-2.051,-2.051,-2.051,-2.0723,-2.1166,-2.1698,-2.1935,-2.2077,-2.2231,-2.2356,-2.2417,-2.2463,-2.2523,-2.2615,-2.2523,-2.2523,-2.2555,-2.2509,-2.2523,-2.2601,-2.2678,-2.2754,-2.2754,-2.2994,-2.3142,-2.3157,-2.3275,-2.3378,-2.3334,-2.3201,-2.3068,-2.2947,-2.2947,-2.2992,-2.3023,-2.3023,-2.3082,-2.3171,-2.3334,-2.3407,-2.3466,-2.3509,-2.3566,-2.3596,-2.4,-2.4101,-2.4185,-2.4177,-2.4167,-2.4451,-2.4557,-2.43,-2.4099,-2.3836,-2.3763,-2.3671,-2.3739,-2.3867,-2.3909,-2.3925,-2.3967,-2.4067,-2.4193,-2.4359,-2.4482,-2.4661,-2.4822,-2.4862,-2.4942,-2.4942,-2.4966,-2.5005,-2.5029,-2.5084,-2.5123,-2.5162,-2.5256,-2.5256,-2.5256,-1.2305,-1.2298,-1.2452,-1.2673,-1.2966,-1.363,-1.4425,-1.5114,-1.524,-1.5735,-1.629,-1.586,-1.5662,-1.5921,-1.6429,-1.6858,-1.7215,-1.7966,-1.8574,-1.9044,-1.9377,-1.9422,-1.9034,-1.9205,-1.95,-1.919,-1.9353,-1.9572,-1.9641,-1.9784,-1.9911,-2.024,-2.0155,-2.0296,-2.0515,-2.0463,-2.0511,-2.0623,-2.0809,-2.1118,-2.1471,-2.1807,-2.2044,-2.2123,-2.2324,-2.2388,-2.2434,-2.2431,-2.2523,-2.2661,-2.2601,-2.2583,-2.2675,-2.2675,-2.2629,-2.2555,-2.254,-2.2586,-2.2678,-2.283,-2.2965,-2.3023,-2.3112,-2.3157,-2.3157,-2.3112,-2.3068,-2.3112,-2.3098,-2.3187,-2.3231,-2.3319,-2.3334,-2.3378,-2.3466,-2.3509,-2.3581,-2.3668,-2.3696,-2.3653,-2.3625,-2.3777,-2.3851,-2.379,-2.3787,-2.386,-2.398,-2.3879,-2.3807,-2.3776,-2.3729,-2.3784,-2.3925,-2.4135,-2.4135,-2.4177,-2.4193,-2.4276,-2.4333,-2.4441,-2.4564,-2.4686,-2.4846,-2.4942,-2.4942,-2.4966,-2.5005,-2.5045,-2.5084,-2.5123,-2.5201,-2.5317,-2.5448,-2.547,-2.547,-1.1939,-1.2091,-1.2237,-1.249,-1.286,-1.3447,-1.4095,-1.4718,-1.4706,-1.4945,-1.5239,-1.4939,-1.4648,-1.4734,-1.5614,-1.6083,-1.5966,-1.7088,-1.7696,-1.8215,-1.8578,-1.8565,-1.823,-1.8426,-1.83,-1.7847,-1.8714,-1.9059,-1.9339,-1.9606,-2.0012,-2.0479,-2.0233,-2.0374,-2.0708,-2.0807,-2.0723,-2.097,-2.1166,-2.141,-2.165,-2.1888,-2.2091,-2.2128,-2.2243,-2.2281,-2.2267,-2.1993,-2.2026,-2.2146,-2.2058,-2.2042,-2.2302,-2.2144,-2.2143,-2.2098,-2.2038,-2.1882,-2.2042,-2.2218,-2.2568,-2.2715,-2.2819,-2.2877,-2.2615,-2.2746,-2.2937,-2.3067,-2.3304,-2.3391,-2.3551,-2.3566,-2.3581,-2.3581,-2.3668,-2.3625,-2.3625,-2.3754,-2.3839,-2.3839,-2.3797,-2.3739,-2.3744,-2.3569,-2.3466,-2.3349,-2.3363,-2.3451,-2.3581,-2.3711,-2.3839,-2.3967,-2.4051,-2.4234,-2.4261,-2.4302,-2.4359,-2.44,-2.4457,-2.458,-2.4645,-2.4766,-2.4926,-2.4966,-2.5005,-2.5084,-2.5162,-2.5123,-2.5123,-2.524,-2.5339,-2.5508,-2.56,-2.5659,-2.5696,-1.0924,-1.1503,-1.2115,-1.2431,-1.2593,-1.3677,-1.3897,-1.3739,-1.437,-1.4505,-1.4423,-1.462,-1.4569,-1.4736,-1.4913,-1.5487,-1.6177,-1.6694,-1.6917,-1.7098,-1.7243,-1.7448,-1.7335,-1.7266,-1.7299,-1.7757,-1.8166,-1.8444,-1.8895,-1.9296,-1.966,-1.9875,-2.0067,-2.0497,-2.0835,-2.0953,-2.1197,-2.1315,-2.1356,-2.1438,-2.1608,-2.1716,-2.1782,-2.1792,-2.1622,-2.1417,-2.1478,-2.1095,-2.1012,-2.1212,-2.1198,-2.137,-2.1657,-2.1427,-2.1413,-2.1541,-2.1384,-2.1198,-2.1183,-2.1643,-2.1975,-2.2233,-2.2416,-2.2494,-2.2191,-2.2988,-2.3163,-2.2954,-2.34,-2.3565,-2.3681,-2.3696,-2.3812,-2.3754,-2.3797,-2.3754,-2.3754,-2.3824,-2.3882,-2.394,-2.3897,-2.3797,-2.3739,-2.3625,-2.3581,-2.3494,-2.3523,-2.3566,-2.3797,-2.3967,-2.4094,-2.4177,-2.4219,-2.4261,-2.4261,-2.4317,-2.4317,-2.4359,-2.4441,-2.458,-2.4742,-2.4846,-2.4989,-2.5123,-2.5162,-2.524,-2.5317,-2.5355,-2.5394,-2.5416,-2.553,-2.5659,-2.5787,-2.586,-2.5897,-1.0686,-1.0514,-1.1006,-1.1462,-1.1938,-1.2869,-1.3136,-1.2972,-1.3166,-1.2958,-1.2663,-1.3173,-1.3365,-1.3428,-1.4252,-1.4625,-1.4984,-1.5712,-1.6025,-1.6356,-1.6615,-1.6665,-1.6577,-1.6566,-1.6711,-1.6898,-1.7237,-1.7625,-1.7958,-1.8672,-1.9008,-1.9295,-1.9693,-2.0074,-2.0412,-2.0962,-2.1307,-2.1429,-2.1052,-2.0763,-2.1342,-2.0945,-2.0792,-2.0957,-2.0978,-2.0926,-2.0998,-2.0826,-2.0852,-2.092,-2.0849,-2.1023,-2.1181,-2.0922,-2.0937,-2.1111,-2.0922,-2.0752,-2.0752,-2.1206,-2.1627,-2.1739,-2.1876,-2.1943,-2.1949,-2.273,-2.323,-2.339,-2.367,-2.3809,-2.4036,-2.4009,-2.4024,-2.394,-2.3882,-2.3897,-2.3882,-2.3867,-2.3867,-2.3897,-2.3797,-2.3696,-2.3696,-2.3696,-2.3653,-2.361,-2.3696,-2.3739,-2.3952,-2.4048,-2.4116,-2.4107,-2.4076,-2.4071,-2.4056,-2.4122,-2.423,-2.4251,-2.4271,-2.4356,-2.4477,-2.4934,-2.5036,-2.5169,-2.5189,-2.5191,-2.5266,-2.5556,-2.5659,-2.5626,-2.5717,-2.5844,-2.597,-2.6059,-2.6059,-1.0112,-0.982,-1.0018,-1.056,-1.1206,-1.2067,-1.2305,-1.2178,-1.2322,-1.2023,-1.1453,-1.2208,-1.2503,-1.2712,-1.3372,-1.408,-1.4323,-1.4847,-1.528,-1.5606,-1.5839,-1.5978,-1.6026,-1.6015,-1.6051,-1.6078,-1.6586,-1.7135,-1.747,-1.7962,-1.8469,-1.8823,-1.9046,-1.9527,-2.0454,-2.0795,-2.1139,-2.0983,-2.0574,-2.012,-2.0773,-2.039,-2.0111,-2.0314,-2.0288,-2.0231,-2.0298,-2.0223,-2.0215,-2.0295,-2.0393,-2.0553,-2.0651,-2.0651,-2.0607,-2.0637,-2.0648,-2.0589,-2.0575,-2.0881,-2.1099,-2.1151,-2.1575,-2.1704,-2.1924,-2.2465,-2.3371,-2.3178,-2.3614,-2.4109,-2.4276,-2.4208,-2.4124,-2.4067,-2.394,-2.394,-2.3867,-2.3852,-2.3824,-2.3839,-2.3739,-2.3754,-2.3752,-2.3736,-2.3676,-2.3721,-2.3839,-2.3867,-2.4036,-2.4059,-2.3952,-2.3912,-2.3815,-2.3779,-2.3717,-2.3588,-2.3498,-2.3554,-2.3616,-2.3857,-2.4074,-2.4512,-2.4649,-2.4446,-2.4539,-2.4944,-2.4968,-2.486,-2.5304,-2.5832,-2.5937,-2.6043,-2.6079,-2.6132,-2.6203,-0.9005,-0.9492,-0.9498,-0.9836,-1.0456,-1.1338,-1.1561,-1.1414,-1.187,-1.1918,-1.1663,-1.214,-1.248,-1.2716,-1.3172,-1.3678,-1.4086,-1.4384,-1.4704,-1.5061,-1.5244,-1.5428,-1.5532,-1.5579,-1.5602,-1.6092,-1.6314,-1.6578,-1.7016,-1.763,-1.8125,-1.8495,-1.8653,-1.9309,-2.081,-2.0992,-2.0709,-2.015,-1.9894,-1.98,-1.9956,-1.9759,-1.9765,-1.9768,-1.9655,-1.9634,-1.9684,-1.9569,-1.9517,-1.9527,-1.946,-1.9648,-2.003,-1.9638,-1.9653,-2.0079,-1.9832,-1.9597,-1.9322,-2.0076,-2.0408,-2.0588,-2.1107,-2.1515,-2.1292,-2.2201,-2.3496,-2.3279,-2.3544,-2.4048,-2.4166,-2.4166,-2.4124,-2.3971,-2.38,-2.3648,-2.3588,-2.3481,-2.339,-2.3455,-2.3773,-2.3955,-2.3879,-2.3819,-2.3728,-2.3758,-2.3937,-2.3991,-2.3906,-2.3749,-2.3504,-2.3477,-2.3317,-2.3249,-2.3103,-2.2878,-2.2767,-2.2817,-2.3038,-2.3401,-2.3585,-2.3851,-2.388,-2.3691,-2.4009,-2.4474,-2.4263,-2.3967,-2.4644,-2.5304,-2.5931,-2.6151,-2.6203,-2.6187,-2.6258,-0.859,-0.8764,-0.887,-0.9058,-0.9494,-1.0472,-1.0809,-1.0852,-1.1218,-1.1404,-1.1471,-1.1977,-1.2136,-1.2378,-1.3074,-1.3611,-1.3798,-1.4422,-1.4662,-1.4766,-1.4801,-1.4994,-1.5143,-1.512,-1.5199,-1.5348,-1.5558,-1.5688,-1.5776,-1.6827,-1.7243,-1.7486,-1.8465,-1.9243,-1.9762,-2.0097,-2.0281,-1.9874,-1.9278,-1.8796,-1.9251,-1.9031,-1.8852,-1.9015,-1.8979,-1.9105,-1.9262,-1.9089,-1.9107,-1.913,-1.9093,-1.9176,-1.9416,-1.9069,-1.9142,-1.9473,-1.9369,-1.9465,-1.9472,-1.9871,-2.0002,-2.0318,-2.0749,-2.1341,-2.1644,-2.2607,-2.3259,-2.3442,-2.3529,-2.3941,-2.4082,-2.3952,-2.3803,-2.3375,-2.3178,-2.297,-2.2858,-2.276,-2.2699,-2.2894,-2.3183,-2.3056,-2.2989,-2.3092,-2.3122,-2.3086,-2.3117,-2.3071,-2.2958,-2.2854,-2.2655,-2.2717,-2.2686,-2.2647,-2.2499,-2.2306,-2.2352,-2.2524,-2.2841,-2.3239,-2.3372,-2.3271,-2.3422,-2.3422,-2.3737,-2.3983,-2.3784,-2.3701,-2.4165,-2.473,-2.5362,-2.5894,-2.5909,-2.6077,-2.6347,-0.8202,-0.8262,-0.8527,-0.8731,-0.8964,-0.9705,-1.0189,-1.0538,-1.0964,-1.1167,-1.1301,-1.1693,-1.1881,-1.2091,-1.2701,-1.3369,-1.3379,-1.3895,-1.4239,-1.4394,-1.4393,-1.4435,-1.4446,-1.4559,-1.4476,-1.4609,-1.4877,-1.5019,-1.5122,-1.6008,-1.6645,-1.7271,-1.824,-1.8303,-1.8577,-1.8934,-1.9475,-1.9003,-1.8315,-1.837,-1.8603,-1.8492,-1.8297,-1.8442,-1.8556,-1.8803,-1.8941,-1.9078,-1.9139,-1.9199,-1.9139,-1.9064,-1.9011,-1.9049,-1.9072,-1.925,-1.9398,-1.9545,-1.9654,-1.9705,-1.9822,-1.9944,-2.0459,-2.0978,-2.1546,-2.2085,-2.2489,-2.2848,-2.3305,-2.3422,-2.3396,-2.3303,-2.3219,-2.2772,-2.2659,-2.2501,-2.2378,-2.224,-2.2339,-2.2524,-2.2632,-2.2408,-2.2163,-2.2248,-2.2394,-2.2302,-2.2263,-2.2179,-2.2164,-2.2178,-2.2099,-2.2096,-2.2092,-2.2004,-2.1869,-2.1725,-2.1846,-2.2191,-2.2492,-2.2742,-2.2703,-2.2556,-2.2866,-2.3062,-2.3056,-2.3114,-2.3312,-2.3508,-2.3787,-2.4221,-2.4809,-2.5213,-2.5547,-2.5748,-2.5916,-0.7759,-0.7972,-0.8508,-0.8738,-0.8905,-0.9183,-0.9717,-1.0458,-1.1032,-1.1216,-1.1232,-1.1138,-1.1425,-1.1887,-1.2097,-1.2509,-1.2986,-1.3334,-1.3527,-1.3629,-1.3785,-1.3746,-1.3765,-1.3806,-1.3974,-1.4152,-1.4363,-1.4667,-1.4769,-1.5683,-1.6375,-1.6863,-1.7651,-1.7388,-1.7317,-1.782,-1.8327,-1.8023,-1.7968,-1.7984,-1.8106,-1.7995,-1.7893,-1.7967,-1.811,-1.8351,-1.8544,-1.878,-1.892,-1.8987,-1.9008,-1.9096,-1.9148,-1.9214,-1.9398,-1.9522,-1.9549,-1.969,-1.969,-1.9705,-1.9741,-1.9837,-2.025,-2.0324,-2.0736,-2.15,-2.2033,-2.2063,-2.2269,-2.2301,-2.2325,-2.2448,-2.2517,-2.2332,-2.2255,-2.2154,-2.2009,-2.2022,-2.2117,-2.2238,-2.2332,-2.2207,-2.1999,-2.1935,-2.1765,-2.1667,-2.1636,-2.1766,-2.1797,-2.1952,-2.1838,-2.1577,-2.1537,-2.1368,-2.1279,-2.1282,-2.1417,-2.1773,-2.1762,-2.194,-2.1835,-2.2005,-2.2297,-2.2424,-2.2149,-2.2237,-2.2769,-2.3076,-2.3241,-2.3727,-2.413,-2.4642,-2.4968,-2.4936,-2.5002,-0.7132,-0.7629,-0.781,-0.8019,-0.829,-0.889,-0.9461,-0.9977,-1.0496,-1.0609,-1.033,-1.106,-1.1259,-1.1166,-1.2077,-1.2404,-1.2633,-1.2858,-1.3117,-1.323,-1.331,-1.3494,-1.3628,-1.3703,-1.3893,-1.4022,-1.4162,-1.431,-1.4237,-1.5145,-1.5887,-1.6254,-1.694,-1.6436,-1.6469,-1.705,-1.7319,-1.7443,-1.7526,-1.7609,-1.7522,-1.7329,-1.7279,-1.7297,-1.7486,-1.7669,-1.7878,-1.8296,-1.8361,-1.8089,-1.831,-1.831,-1.7722,-1.7772,-1.7914,-1.8776,-1.9224,-1.9705,-1.9705,-1.9705,-1.9741,-1.9726,-1.9966,-2.0317,-2.0714,-2.125,-2.1767,-2.1614,-2.1576,-2.1765,-2.1886,-2.1976,-2.1941,-2.1823,-2.1766,-2.1693,-2.1568,-2.1499,-2.1619,-2.1874,-2.1963,-2.1802,-2.1581,-2.1408,-2.1221,-2.1085,-2.1088,-2.1261,-2.1403,-2.1541,-2.1572,-2.1327,-2.1185,-2.1093,-2.1065,-2.105,-2.1183,-2.1295,-2.1388,-2.1542,-2.179,-2.1943,-2.1903,-2.1986,-2.2118,-2.226,-2.2511,-2.2788,-2.3038,-2.2966,-2.3302,-2.3853,-2.4291,-2.4308,-2.4377,-0.6614,-0.7016,-0.7364,-0.7719,-0.8205,-0.8837,-0.9236,-0.9579,-1.0141,-1.0288,-1.0245,-1.0786,-1.0963,-1.1013,-1.159,-1.1891,-1.1847,-1.2201,-1.2502,-1.2569,-1.2856,-1.2849,-1.3089,-1.3341,-1.3312,-1.3528,-1.3791,-1.3914,-1.3848,-1.4323,-1.5042,-1.551,-1.6122,-1.5877,-1.5874,-1.6462,-1.7117,-1.7186,-1.7241,-1.7287,-1.7186,-1.6917,-1.6681,-1.6753,-1.6973,-1.7177,-1.7473,-1.8028,-1.8206,-1.7934,-1.8232,-1.8174,-1.7851,-1.8018,-1.8288,-1.9105,-1.9364,-1.9711,-1.9726,-1.9726,-1.9762,-1.9797,-1.9869,-2.0188,-2.0409,-2.0801,-2.102,-2.1072,-2.1253,-2.1439,-2.1528,-2.1605,-2.1412,-2.1268,-2.1227,-2.1219,-2.1063,-2.0939,-2.1114,-2.1415,-2.1399,-2.1207,-2.1031,-2.0906,-2.081,-2.0856,-2.0903,-2.0951,-2.1029,-2.1093,-2.1106,-2.0998,-2.0936,-2.0857,-2.0893,-2.1007,-2.1183,-2.1388,-2.1511,-2.1694,-2.1844,-2.1991,-2.2135,-2.2248,-2.2388,-2.2497,-2.2605,-2.2712,-2.2868,-2.2842,-2.2893,-2.3345,-2.3725,-2.367,-2.3774,-0.6192,-0.6251,-0.7044,-0.7689,-0.84,-0.8697,-0.8963,-0.922,-0.9872,-1.0294,-1.0374,-1.0416,-1.0624,-1.0832,-1.1156,-1.1308,-1.1437,-1.1757,-1.1979,-1.1844,-1.2173,-1.2355,-1.2479,-1.2448,-1.2914,-1.3023,-1.3262,-1.3717,-1.3579,-1.395,-1.4511,-1.4852,-1.5152,-1.5216,-1.544,-1.6028,-1.6634,-1.6858,-1.6683,-1.657,-1.7302,-1.7135,-1.6611,-1.6948,-1.7255,-1.7584,-1.8021,-1.8519,-1.9081,-1.8728,-1.8584,-1.8535,-1.8554,-1.8753,-1.9116,-1.951,-1.9555,-1.9747,-1.9812,-1.9848,-1.9904,-2.0025,-2.0216,-2.0281,-2.043,-2.0507,-2.0716,-2.0782,-2.0965,-2.1054,-2.1139,-2.1192,-2.1088,-2.1027,-2.1031,-2.0984,-2.0872,-2.0811,-2.0939,-2.1145,-2.1147,-2.1004,-2.1052,-2.0941,-2.099,-2.0925,-2.0958,-2.0958,-2.0958,-2.0958,-2.0893,-2.0893,-2.0925,-2.099,-2.1039,-2.1166,-2.1324,-2.1479,-2.1678,-2.184,-2.2044,-2.2203,-2.2366,-2.2515,-2.2632,-2.2659,-2.2764,-2.2842,-2.2944,-2.297,-2.302,-2.3095,-2.3175,-2.3282,-2.3336,-0.5594,-0.6012,-0.6621,-0.7228,-0.7752,-0.8196,-0.8534,-0.8857,-0.9271,-0.9556,-0.968,-1.0091,-1.0375,-1.0558,-1.0994,-1.1178,-1.133,-1.1485,-1.1697,-1.187,-1.2041,-1.2258,-1.2449,-1.2733,-1.292,-1.3154,-1.3424,-1.3659,-1.3595,-1.3856,-1.4125,-1.4433,-1.4816,-1.5133,-1.5096,-1.5711,-1.6157,-1.6515,-1.6129,-1.6199,-1.6895,-1.6501,-1.6013,-1.5971,-1.6057,-1.6522,-1.7021,-1.769,-1.7879,-1.7802,-1.8268,-1.8219,-1.7981,-1.8127,-1.8425,-1.8897,-1.9501,-1.9773,-1.9919,-2.0005,-2.0061,-2.0185,-2.0323,-2.0357,-2.0407,-2.0444,-2.0527,-2.0561,-2.061,-2.0695,-2.0761,-2.0811,-2.0844,-2.0811,-2.0811,-2.0761,-2.0711,-2.0794,-2.0844,-2.0877,-2.0909,-2.099,-2.1038,-2.1103,-2.1151,-2.123,-2.1324,-2.1339,-2.1308,-2.1276,-2.1135,-2.1103,-2.1183,-2.1214,-2.123,-2.1386,-2.157,-2.1764,-2.1986,-2.2141,-2.2265,-2.2453,-2.2596,-2.2755,-2.2868,-2.2868,-2.2893,-2.2995,-2.307,-2.3095,-2.3193,-2.3247,-2.3365,-2.3466,-2.3294,-0.5089,-0.5584,-0.6324,-0.693,-0.7403,-0.7763,-0.8188,-0.8665,-0.884,-0.9128,-0.9545,-0.9947,-1.0219,-1.0361,-1.0854,-1.1141,-1.1244,-1.1384,-1.1549,-1.1785,-1.2077,-1.2377,-1.2674,-1.299,-1.3116,-1.3288,-1.348,-1.3628,-1.3682,-1.3788,-1.396,-1.4165,-1.4686,-1.4927,-1.4925,-1.5487,-1.5867,-1.6245,-1.5768,-1.6033,-1.6474,-1.589,-1.5602,-1.5386,-1.5741,-1.6049,-1.6449,-1.7137,-1.7257,-1.7379,-1.7729,-1.8242,-1.8265,-1.8642,-1.8901,-1.9286,-1.9688,-1.994,-2.008,-2.02,-2.0254,-2.0392,-2.0579,-2.0613,-2.0646,-2.0712,-2.0695,-2.0744,-2.0644,-2.0711,-2.0711,-2.0777,-2.0695,-2.0662,-2.0662,-2.0644,-2.0744,-2.0876,-2.0974,-2.1071,-2.1087,-2.1151,-2.1246,-2.1324,-2.1339,-2.1386,-2.1493,-2.1524,-2.1554,-2.1615,-2.1462,-2.1321,-2.1366,-2.1462,-2.154,-2.1691,-2.1869,-2.2073,-2.2298,-2.2463,-2.2598,-2.2694,-2.2842,-2.2944,-2.302,-2.302,-2.307,-2.3144,-2.3193,-2.3217,-2.3313,-2.3412,-2.3526,-2.366,-2.3558,-0.464,-0.5106,-0.6002,-0.6693,-0.7178,-0.744,-0.7913,-0.8493,-0.8575,-0.8967,-0.9655,-0.9872,-1.0157,-1.0467,-1.0708,-1.0843,-1.1044,-1.1298,-1.1474,-1.176,-1.2077,-1.2377,-1.2697,-1.306,-1.322,-1.3378,-1.3547,-1.3715,-1.3828,-1.3861,-1.3927,-1.4,-1.4251,-1.4465,-1.5145,-1.5524,-1.5712,-1.6118,-1.6131,-1.6225,-1.5966,-1.5458,-1.5513,-1.5791,-1.6117,-1.6288,-1.6556,-1.6822,-1.7008,-1.7104,-1.7287,-1.779,-1.823,-1.8597,-1.8982,-1.9292,-1.9623,-1.9912,-2.0172,-2.0348,-2.0462,-2.0628,-2.0795,-2.0862,-2.0862,-2.0893,-2.0861,-2.0844,-2.0745,-2.0744,-2.076,-2.0693,-2.0644,-2.0577,-2.0577,-2.0545,-2.0712,-2.0909,-2.1039,-2.1166,-2.1261,-2.1308,-2.1448,-2.1524,-2.1568,-2.1568,-2.1568,-2.1568,-2.1645,-2.1811,-2.1827,-2.1602,-2.1483,-2.1611,-2.1761,-2.1915,-2.2035,-2.2354,-2.2544,-2.2721,-2.2893,-2.297,-2.3045,-2.3095,-2.3144,-2.3157,-2.3199,-2.3265,-2.3313,-2.336,-2.3504,-2.362,-2.3728,-2.3816,-2.3881,-0.4393,-0.5053,-0.5701,-0.6165,-0.6631,-0.7209,-0.7692,-0.8071,-0.8356,-0.8837,-0.9323,-0.9737,-1.0137,-1.0687,-1.0919,-1.1071,-1.1174,-1.1373,-1.156,-1.1782,-1.2041,-1.2341,-1.2697,-1.3082,-1.3323,-1.3527,-1.3728,-1.3828,-1.3914,-1.398,-1.4098,-1.4356,-1.456,-1.4756,-1.4972,-1.5267,-1.5444,-1.5768,-1.5785,-1.5717,-1.585,-1.5601,-1.5688,-1.5833,-1.5932,-1.6059,-1.6301,-1.6714,-1.6973,-1.7067,-1.7065,-1.7494,-1.8,-1.8309,-1.8526,-1.9052,-1.9364,-1.9743,-2.003,-2.0365,-2.0541,-2.0783,-2.0863,-2.0751,-2.0799,-2.0943,-2.0911,-2.0927,-2.0894,-2.0893,-2.0876,-2.076,-2.0677,-2.0595,-2.0561,-2.0532,-2.0552,-2.083,-2.1069,-2.121,-2.1334,-2.1505,-2.1738,-2.1794,-2.1816,-2.1828,-2.1836,-2.1819,-2.1556,-2.1826,-2.2017,-2.1748,-2.1435,-2.1725,-2.1864,-2.2004,-2.2201,-2.2539,-2.2669,-2.2566,-2.2687,-2.3182,-2.323,-2.2852,-2.3094,-2.3282,-2.3341,-2.327,-2.3499,-2.3571,-2.3728,-2.3855,-2.3939,-2.4039,-2.4117]}]]